GFSSE_925_spd_000.txt.gz
Wind_Speed
12 23 23 15 17 16 14 12 9 7 6 5 6 8 9 9 9 7 5 3 4 3 5 2 5 7 8 5 5 2 2 3 6 10 15 12 7 5 5 6 5 9 9
19 23 23 17 17 16 14 12 9 8 7 7 7 9 8 5 6 5 6 5 3 3 5 5 2 4 4 4 2 1 3 5 7 9 12 10 5 4 2 5 7 5 6
21 24 24 19 18 16 14 13 10 8 9 8 9 6 7 5 5 6 6 5 3 2 7 6 3 2 3 3 3 3 4 5 7 10 10 7 4 4 5 3 6 6 6
21 25 25 21 18 16 15 13 11 9 8 9 9 8 5 6 6 5 7 4 1 2 5 5 3 4 4 2 4 5 5 6 7 9 9 6 5 5 5 6 8 6 6
23 25 23 21 18 15 15 13 11 10 9 9 9 6 6 7 8 8 7 5 0 1 3 4 4 4 5 4 5 5 6 5 7 8 8 7 8 8 6 6 7 8 9
23 23 21 19 17 16 15 13 10 10 9 8 8 9 8 5 9 10 6 5 2 0 2 3 4 5 5 7 7 7 8 8 8 8 9 8 9 10 10 9 10 11 11
22 20 20 18 16 17 14 13 11 10 9 8 9 8 8 3 2 9 8 5 2 1 2 4 4 6 7 8 9 9 9 7 10 12 11 10 10 10 10 11 12 12 12
21 20 19 17 17 16 14 13 10 10 9 8 9 8 6 5 1 2 7 5 3 2 4 5 6 8 9 9 9 9 9 10 11 12 13 12 11 11 12 12 13 14 14
19 20 19 17 17 16 16 13 11 10 9 8 8 7 7 6 4 2 3 4 4 4 5 7 7 7 7 8 8 9 10 11 12 13 13 14 14 13 12 12 12 13 14
18 20 19 18 17 17 17 14 11 12 10 9 8 7 6 6 5 4 3 4 3 3 4 5 6 6 7 8 10 11 11 12 13 13 14 13 15 14 14 14 14 14 15
17 21 20 18 18 19 18 14 12 13 12 10 8 5 5 5 5 4 2 2 1 2 3 5 8 8 8 8 8 9 10 10 11 12 12 12 12 12 13 14 15 16 18
18 19 20 18 19 19 18 16 14 14 13 11 9 5 3 4 4 3 2 2 1 2 4 5 7 7 8 7 7 8 10 10 11 12 11 9 10 10 11 13 14 14 15
22 18 22 21 20 20 20 17 16 14 13 12 9 8 5 4 3 3 2 0 1 2 3 3 3 4 6 8 9 10 11 11 12 12 11 10 9 9 9 9 10 10 11
20 23 23 24 21 21 20 18 17 16 14 12 10 9 7 5 4 3 2 2 2 1 1 3 4 6 8 10 11 12 13 14 14 11 7 7 6 8 8 7 7 8 11
20 23 25 26 23 21 21 19 18 16 13 12 12 10 8 6 5 5 3 2 1 4 3 5 7 8 10 12 13 13 12 13 9 6 6 6 7 8 11 12 11 12 12
25 27 26 27 27 22 22 20 18 17 14 12 11 10 9 7 5 5 6 5 5 5 6 8 9 10 12 13 13 11 10 11 6 7 6 6 7 8 12 14 14 14 12
25 26 27 29 28 25 23 21 19 18 15 13 10 12 9 8 10 5 6 6 7 7 8 9 10 11 13 14 14 12 12 6 10 7 7 6 7 8 9 12 15 15 14
22 23 20 25 29 28 25 22 21 19 18 15 14 13 11 11 8 7 7 8 9 9 11 12 14 15 15 18 18 14 15 1 3 11 9 8 10 10 10 13 14 15 15
19 18 18 24 29 28 26 24 21 21 21 18 18 18 15 9 9 9 9 9 9 9 12 13 13 15 15 21 21 18 15 3 4 7 11 11 10 12 11 15 16 17 16
16 16 18 23 28 30 29 25 23 24 23 22 21 19 16 15 13 10 10 9 9 10 12 12 13 16 15 22 16 21 9 1 5 5 10 13 11 13 15 18 20 21 19
13 18 23 28 31 34 32 30 26 25 23 21 19 18 18 16 13 10 9 9 10 12 13 13 14 16 17 23 14 17 6 4 9 7 20 13 12 17 21 22 26 25 24
17 21 26 30 34 34 34 31 29 28 23 23 21 21 18 15 13 10 9 10 10 11 12 14 15 14 12 18 13 4 4 6 5 23 16 14 23 17 26 27 28 30 23
19 23 28 31 33 32 32 29 29 26 27 23 22 21 18 14 12 9 9 10 10 11 12 12 13 14 12 14 12 8 4 3 7 5 13 12 15 19 24 27 30 22 24
25 22 26 31 32 33 33 32 35 29 23 24 26 22 18 13 11 9 9 9 9 10 10 10 11 12 11 12 7 12 7 7 3 5 4 23 6 29 25 28 22 30 31
23 25 26 30 32 34 34 33 33 30 27 29 25 22 17 14 10 9 8 8 9 9 9 9 10 11 10 10 10 8 6 9 4 3 7 9 25 24 26 19 35 21 26
23 26 29 32 32 34 34 30 29 32 32 30 25 22 18 13 11 8 7 7 8 7 7 8 9 10 10 11 9 8 7 3 6 4 4 13 15 17 27 28 21 24 22

GFSSE_925_spd_003.txt.gz
Wind_Speed
15 23 21 15 15 15 13 11 9 6 5 5 6 7 6 7 8 7 7 5 6 6 6 6 5 7 9 8 7 5 2 1 5 8 10 11 7 4 1 7 6 6 7
21 25 22 16 17 16 14 11 8 7 6 6 8 10 7 6 6 4 6 6 4 6 7 6 5 5 5 6 3 2 3 4 5 6 8 9 5 5 1 3 5 3 6
25 26 22 17 17 15 13 11 9 8 7 7 8 8 7 6 5 4 6 5 4 5 6 6 6 4 2 3 3 3 3 3 5 6 6 6 3 4 4 2 1 6 5
24 26 22 19 17 15 13 11 9 8 8 8 7 7 4 5 6 5 8 3 3 4 6 6 6 7 7 5 5 4 4 4 4 6 4 4 4 4 4 5 4 6 5
22 24 22 20 16 14 12 10 9 8 8 8 8 6 5 5 6 7 7 3 2 4 5 7 7 7 7 6 6 6 6 6 6 5 5 4 6 6 5 6 6 8 8
24 24 20 17 14 13 13 11 9 8 8 8 7 8 4 4 4 7 4 4 1 3 4 6 7 7 7 8 7 7 5 5 8 6 7 7 7 8 8 9 9 8 10
21 21 19 17 13 13 12 10 9 7 7 7 7 7 5 2 2 9 8 5 1 1 3 5 7 7 8 8 8 7 7 7 6 8 8 8 9 9 10 10 11 12 13
22 20 18 15 14 15 11 10 8 7 7 6 7 7 4 4 3 2 8 4 1 2 3 4 6 6 6 6 6 6 6 8 7 8 9 9 9 10 11 11 11 12 15
19 19 18 15 14 14 13 11 9 8 7 7 7 6 6 4 1 4 6 4 1 2 4 5 5 5 6 6 7 7 8 8 9 10 11 10 10 11 11 12 13 14 15
17 17 19 16 15 15 15 12 10 9 9 8 7 7 6 6 4 2 1 2 1 1 2 4 6 7 6 7 9 9 9 9 9 10 10 9 10 10 10 12 13 15 17
14 17 16 16 16 15 15 13 10 10 10 8 7 6 5 5 5 3 2 3 1 1 3 5 7 7 6 7 7 8 9 9 8 9 10 9 9 10 11 12 13 14 14
13 15 14 16 16 17 16 14 12 12 12 9 6 4 3 5 5 4 2 2 1 1 3 5 5 6 6 8 8 8 9 9 9 10 10 9 9 9 10 11 12 13 13
17 14 17 18 18 18 19 16 14 14 13 10 7 6 5 6 5 4 3 2 1 1 3 3 4 6 8 9 9 9 9 10 11 10 8 7 7 8 8 7 7 6 9
18 18 17 21 20 18 20 20 17 15 14 12 9 9 7 6 5 4 3 3 2 1 0 2 5 8 9 10 10 10 10 12 10 6 5 3 4 8 8 9 10 11 11
17 19 22 21 23 21 21 20 19 17 15 12 11 12 9 7 5 7 5 4 4 3 2 4 6 8 9 10 11 10 9 9 6 3 3 3 5 9 11 12 12 12 10
21 21 22 24 25 24 22 22 21 19 16 15 14 13 10 8 9 8 8 6 4 4 5 6 7 9 10 11 11 8 9 7 3 3 2 3 4 4 9 12 13 11 12
20 19 23 25 26 27 25 23 22 20 17 16 15 15 13 13 12 10 7 6 5 5 6 7 9 9 10 12 13 10 9 2 4 5 5 5 5 5 7 9 12 13 14
20 20 19 22 27 29 26 26 23 23 19 18 16 16 16 14 12 10 9 8 7 7 8 9 12 12 14 16 16 12 11 2 3 6 8 7 8 8 8 10 12 14 14
23 24 20 20 25 29 28 25 24 23 21 21 21 20 19 16 14 13 10 9 7 8 9 11 13 13 15 18 15 15 10 3 6 6 9 11 9 10 11 12 15 17 17
24 22 18 21 23 30 30 27 24 23 23 24 24 24 22 19 16 14 11 10 8 9 11 11 11 12 15 19 16 14 7 2 7 3 8 16 8 10 12 15 19 21 22
17 16 18 23 29 35 35 33 28 26 24 25 26 24 22 21 18 13 11 9 9 11 11 11 10 12 15 21 12 11 6 3 2 2 18 11 9 12 16 16 21 20 20
17 15 17 21 30 34 37 30 29 32 26 27 25 24 23 21 17 14 11 10 10 10 9 11 13 11 11 17 9 3 4 4 4 20 6 11 11 17 15 28 23 21 21
19 20 21 24 27 29 34 33 34 29 29 24 25 25 23 20 17 13 11 10 9 9 10 11 12 12 9 11 13 6 2 2 9 8 16 4 17 10 22 19 19 21 23
26 22 21 26 28 31 36 38 41 33 28 23 32 26 23 18 16 13 10 9 8 8 9 9 9 10 9 8 5 8 3 2 3 5 5 12 5 21 18 17 22 20 23
25 27 26 28 29 33 37 38 39 27 23 34 30 28 23 19 15 13 10 9 8 7 8 8 8 8 9 6 5 4 4 5 3 4 8 12 21 16 18 20 19 21 19
23 26 28 30 29 34 36 35 37 37 33 36 32 28 24 20 16 12 10 7 7 6 6 7 7 7 7 6 4 4 2 3 5 5 6 16 17 14 26 15 19 15 20

GFSSE_925_spd_006.txt.gz
Wind_Speed
12 19 21 16 16 14 13 10 9 7 6 6 7 6 6 7 8 7 8 8 7 8 8 5 6 8 9 8 8 6 3 3 4 6 8 11 6 5 1 3 6 5 7
18 20 20 16 15 15 13 11 9 8 7 8 11 11 9 8 7 7 8 6 7 7 8 6 5 5 6 7 6 5 5 5 6 7 7 9 6 5 3 3 4 7 4
19 19 19 16 14 15 14 11 9 8 9 10 10 7 8 7 6 5 7 6 6 7 7 7 7 6 4 4 3 4 5 5 5 7 6 4 3 4 4 3 3 3 7
19 18 17 17 17 13 12 11 10 9 9 10 10 6 9 5 6 7 7 6 5 6 7 7 7 8 7 7 6 6 5 5 6 7 4 4 3 6 5 6 5 5 6
19 19 17 18 16 12 12 10 10 9 9 10 12 7 4 4 5 7 6 5 4 6 7 8 7 7 7 7 7 5 6 7 9 6 5 5 5 5 7 8 7 7 9
19 19 19 19 16 12 11 9 9 9 9 10 9 8 4 3 3 6 5 4 1 4 5 6 7 8 8 7 6 6 4 4 5 6 6 7 6 8 7 8 10 10 9
15 16 18 19 15 12 12 8 9 8 9 8 9 8 4 3 2 6 7 6 1 3 4 5 6 6 6 6 6 6 6 7 6 6 6 7 7 9 8 9 10 11 12
14 16 16 17 13 11 13 11 8 8 8 8 10 7 3 1 4 4 9 5 2 2 3 5 5 5 6 6 5 6 7 8 8 8 8 8 10 11 9 10 11 12 14
14 15 14 15 12 13 12 11 9 9 9 8 9 8 6 2 3 7 7 4 2 1 3 5 5 6 5 5 7 8 8 9 7 7 9 8 11 11 10 12 13 15 16
15 14 14 13 12 14 13 12 8 9 9 9 8 7 6 4 2 3 4 3 1 1 3 4 6 7 6 7 8 8 8 8 6 6 6 6 10 10 10 11 12 13 15
15 15 14 13 14 14 13 13 9 10 10 8 7 7 4 4 3 3 2 2 1 1 1 4 7 6 7 8 8 9 8 6 6 7 6 10 10 10 10 11 11 12 13
16 16 15 14 14 14 14 13 11 11 10 9 7 6 5 5 4 4 3 3 1 1 2 5 5 7 7 7 8 10 7 8 7 8 7 10 10 9 9 10 8 7 7
15 16 17 17 16 15 14 14 12 12 11 10 8 8 7 7 5 4 3 2 1 1 3 3 4 5 7 8 8 8 8 9 8 8 7 6 6 7 6 6 9 9 10
15 16 18 19 19 18 16 16 15 13 13 12 10 10 9 8 7 5 4 4 3 2 2 3 4 6 7 8 8 8 8 9 8 6 5 3 6 9 8 9 9 10 10
16 18 19 20 21 21 20 17 15 14 15 13 12 12 11 9 8 7 6 3 4 3 3 4 5 7 8 8 9 8 8 8 6 3 2 1 3 6 10 10 11 11 12
17 19 19 21 21 21 24 19 18 16 16 14 13 14 11 9 9 9 9 7 4 3 4 5 6 7 8 9 9 8 7 5 3 2 0 2 2 3 9 11 11 11 12
16 16 19 21 21 22 26 21 19 18 17 14 14 14 12 12 12 11 10 7 5 4 4 5 6 7 8 9 8 7 6 4 2 1 1 2 3 6 6 7 11 12 13
15 15 15 18 21 21 23 22 21 19 18 16 15 15 15 16 14 14 11 8 6 5 5 6 7 7 9 10 10 8 7 4 2 2 3 4 4 5 7 10 11 14 15
14 15 13 16 20 23 23 22 20 20 18 17 19 19 20 18 17 14 10 9 7 6 6 6 7 8 11 13 11 10 7 3 5 3 2 5 5 6 6 10 15 16 18
13 13 15 14 17 21 24 20 19 18 18 20 20 21 23 22 18 14 12 10 8 7 8 6 7 8 10 14 11 8 2 2 5 2 4 6 4 6 6 10 15 14 15
14 12 12 15 19 24 27 23 22 21 22 22 22 25 25 22 20 16 13 11 9 9 8 7 6 8 10 14 10 5 2 0 4 3 7 3 5 6 11 11 14 15 15
16 14 14 18 21 25 24 22 20 21 17 20 27 26 24 23 19 16 14 11 10 9 8 8 9 7 7 11 8 5 3 1 1 8 4 9 3 11 12 17 16 16 17
18 17 18 20 22 24 23 22 21 19 20 22 26 25 23 21 17 16 14 12 10 8 7 7 8 8 7 6 8 5 3 2 11 3 8 4 13 13 19 17 16 19 16
22 18 19 22 24 25 26 25 29 29 28 22 31 29 24 19 16 15 14 11 10 8 7 6 6 6 5 6 3 4 2 3 3 5 5 11 10 19 19 18 19 20 18
24 21 22 23 25 27 27 26 26 23 22 28 34 30 24 16 15 15 13 11 9 8 7 6 5 3 3 3 4 5 4 6 5 5 9 10 19 18 19 19 20 16 15
20 21 23 25 26 26 29 27 26 28 30 33 28 27 21 17 14 13 12 10 9 8 6 5 3 2 1 1 2 3 5 5 7 8 9 14 18 20 22 20 14 16 17

GFSSE_925_spd_009.txt.gz
Wind_Speed
15 19 20 16 15 12 11 11 9 7 6 7 8 7 8 10 11 11 10 9 9 9 9 8 9 10 12 13 11 8 6 6 7 8 10 11 8 7 6 3 2 4 4
20 22 22 17 15 15 13 11 9 7 8 9 11 11 11 10 11 11 9 8 9 9 9 9 8 8 9 9 9 8 7 7 7 8 8 6 7 7 7 3 1 5 4
20 22 21 18 15 16 13 10 9 9 9 13 11 9 9 9 10 10 10 9 9 9 10 10 10 10 9 8 7 6 6 6 7 8 6 5 3 7 6 5 5 2 6
19 20 20 19 17 15 13 11 9 9 10 10 9 9 10 8 9 9 9 9 9 9 10 10 10 10 9 9 8 8 8 8 9 6 7 4 5 6 5 6 6 5 6
17 18 20 21 18 13 11 10 9 8 8 8 10 8 8 7 8 9 7 7 8 9 10 9 9 9 9 8 6 6 6 6 7 6 5 4 5 5 7 6 6 6 7
18 16 20 18 17 12 11 9 10 9 10 12 8 6 5 5 5 6 5 3 5 7 8 8 8 8 7 6 6 6 5 4 6 5 5 6 5 7 8 8 8 9 8
16 17 17 19 15 11 11 8 10 9 10 9 8 6 5 5 2 8 6 3 4 6 6 6 6 5 6 6 5 5 7 8 7 5 6 6 6 10 9 8 9 10 10
17 15 18 18 16 12 11 11 10 8 10 10 9 6 4 4 4 8 9 5 4 4 4 5 5 5 5 5 6 8 9 10 8 7 7 7 8 11 9 10 10 11 12
15 16 18 17 15 14 12 13 9 9 10 11 10 8 6 4 6 9 9 6 4 3 4 4 5 5 5 6 7 9 10 10 8 7 7 6 8 10 9 10 11 11 12
14 16 17 17 15 16 16 14 11 10 10 12 12 10 7 3 4 8 7 6 3 3 3 3 6 6 7 7 8 9 10 8 8 8 7 7 11 11 10 10 10 11 12
13 15 15 16 16 16 16 16 11 11 11 11 11 10 7 6 5 6 7 5 3 2 3 4 6 7 8 9 11 12 9 7 8 7 8 10 12 11 10 10 10 9 9
14 16 17 17 17 19 17 17 13 11 11 10 9 8 7 7 8 8 4 4 3 2 3 5 6 8 8 6 8 10 7 9 8 8 7 11 11 10 9 6 9 9 8
15 16 16 17 17 17 17 19 14 13 14 12 10 9 8 9 8 6 4 4 3 5 2 4 5 6 7 7 8 8 9 9 8 7 7 10 9 7 8 9 10 10 11
16 17 17 18 18 19 18 19 16 15 14 13 12 11 9 8 8 8 6 5 4 4 3 4 5 6 7 8 8 9 9 8 7 5 4 3 6 8 9 10 10 12 12
15 18 19 19 19 18 17 18 18 17 15 14 13 12 11 10 9 8 7 6 5 4 4 4 5 6 8 9 9 8 8 7 6 3 3 4 2 6 9 11 11 12 12
16 19 19 21 20 21 20 17 19 17 15 15 13 13 13 11 11 10 8 7 6 5 4 4 6 7 7 9 9 8 7 6 4 2 0 4 3 2 5 9 10 11 12
16 18 20 21 21 21 21 20 19 17 16 18 15 14 13 11 10 10 10 8 7 5 4 4 5 6 7 8 8 7 6 5 3 1 0 1 5 7 8 7 9 10 11
17 19 20 20 21 21 24 23 20 18 16 19 15 16 14 13 14 13 12 9 7 5 4 4 6 6 7 8 9 7 6 5 3 1 2 2 2 3 8 11 12 14 13
18 18 18 19 22 23 22 22 21 19 19 18 19 16 15 16 17 15 12 10 7 6 5 5 5 7 8 10 9 8 5 2 4 3 0 3 4 4 5 9 14 14 17
21 21 21 21 21 23 21 23 23 18 21 18 13 16 17 18 17 15 12 11 8 7 6 5 5 6 8 11 9 6 2 1 3 3 3 5 3 5 6 10 14 11 12
27 23 22 23 23 24 24 27 27 22 19 15 15 20 20 22 21 16 14 12 10 8 7 6 5 6 8 13 7 6 2 1 3 4 2 3 6 4 8 11 13 13 14
26 26 23 23 24 26 26 25 24 23 18 16 18 21 26 25 21 17 15 13 10 9 7 7 8 5 6 10 7 6 2 3 3 5 8 5 3 8 10 15 14 13 17
29 26 24 23 24 26 24 26 22 22 22 16 19 23 27 25 21 18 15 14 11 8 7 6 6 7 5 5 7 4 2 2 8 3 3 6 8 11 14 17 16 16 19
29 24 24 22 24 26 27 30 32 29 24 20 25 32 28 25 20 17 15 13 11 9 8 6 5 5 4 4 1 4 2 2 2 4 3 13 11 13 18 16 17 22 16
28 28 24 24 24 25 30 29 29 23 20 24 27 34 29 23 20 16 14 13 11 9 8 6 5 4 3 2 2 2 3 4 7 6 8 8 17 16 17 14 19 18 15
27 22 25 25 26 27 29 30 29 26 29 29 30 29 29 25 19 15 14 12 10 9 7 5 4 3 1 1 2 2 3 3 6 7 6 13 16 18 18 23 16 16 15

GFSSE_925_spd_012.txt.gz
Wind_Speed
20 26 23 20 17 13 12 11 10 9 9 10 10 11 13 13 13 13 12 12 11 11 11 11 11 12 15 17 14 12 10 8 8 9 8 8 10 9 8 6 2 5 2
24 26 22 21 18 16 14 12 10 9 12 12 11 12 14 14 14 12 11 11 12 12 12 12 11 12 13 12 11 10 7 6 8 8 7 4 6 9 8 7 4 3 3
25 25 22 18 16 17 15 13 11 11 14 14 13 14 14 14 13 13 11 12 12 13 13 13 12 12 11 10 8 8 7 8 8 8 8 7 3 7 5 5 5 4 4
27 24 22 18 16 16 15 13 12 13 13 14 13 12 12 12 13 13 12 12 13 13 13 13 12 12 10 9 9 8 7 8 8 9 11 5 6 5 7 4 4 4 4
25 24 22 21 16 15 14 13 13 13 12 11 14 12 12 11 12 11 11 11 11 11 12 12 12 11 10 9 7 5 4 6 6 8 7 5 4 4 7 5 3 4 4
24 26 22 21 16 11 13 12 12 12 12 13 12 12 11 10 10 9 8 8 9 10 9 9 9 8 8 9 7 6 7 8 6 7 4 6 2 6 8 6 6 6 6
22 27 23 21 17 13 12 10 10 13 13 11 11 11 10 8 7 9 5 5 7 8 7 7 7 7 8 7 6 6 7 7 7 6 3 4 4 7 8 6 6 7 7
23 24 24 20 18 15 14 12 9 9 14 12 10 9 8 7 5 12 8 6 6 6 6 6 6 6 6 5 6 8 9 9 7 8 5 1 3 8 8 8 8 8 9
21 24 25 22 18 17 16 14 11 7 13 13 12 10 8 7 9 13 10 7 7 4 5 6 6 6 6 6 7 9 9 9 10 9 4 4 8 9 9 8 9 9 10
18 22 24 22 20 20 18 17 13 8 12 15 14 12 8 7 9 11 11 9 6 5 4 5 5 6 7 9 11 12 8 8 8 5 6 6 8 10 9 9 9 9 8
16 22 26 25 21 19 19 19 16 12 13 15 15 12 9 8 10 11 10 8 6 5 4 4 6 8 8 8 10 10 8 5 5 7 7 8 10 10 9 8 9 9 10
16 17 23 25 28 20 19 20 17 15 15 14 13 12 11 9 11 11 8 7 6 5 5 6 8 7 4 4 6 6 7 8 5 8 5 8 11 9 8 11 11 13 12
19 18 18 18 24 23 24 21 18 15 15 13 11 10 9 15 14 7 8 9 7 6 6 6 6 5 7 7 7 7 7 6 6 7 6 8 8 9 8 9 12 12 12
24 22 21 19 20 24 23 20 20 18 20 16 15 12 13 11 13 11 9 11 9 7 4 4 3 3 5 6 6 8 7 6 5 6 4 6 6 9 10 10 11 11 12
24 23 24 22 20 21 21 21 19 21 22 18 18 15 12 14 14 12 12 8 9 7 6 4 1 3 5 7 6 7 6 5 2 5 5 5 3 7 9 10 10 11 11
14 22 25 25 24 23 23 22 23 20 19 17 17 17 15 14 14 15 14 10 9 5 4 3 5 5 6 7 6 6 5 4 2 2 4 4 5 5 5 8 10 10 11
19 22 24 26 28 28 21 21 23 20 18 21 15 16 17 18 17 13 14 11 8 7 3 3 3 3 5 5 5 5 5 4 1 1 3 5 6 7 8 9 10 11 11
21 23 27 28 29 27 26 24 22 21 19 23 21 19 18 18 16 15 14 11 8 6 4 4 5 4 5 7 7 5 5 3 2 3 3 3 2 5 7 10 11 12 12
23 20 28 31 33 33 30 28 25 24 19 21 22 21 20 19 18 19 18 13 9 7 7 5 6 7 8 10 6 6 4 1 5 4 2 2 4 6 5 9 11 10 12
28 25 21 27 32 33 32 29 26 23 24 21 24 27 25 23 19 20 18 14 11 9 7 6 6 7 10 11 6 4 1 2 4 5 1 4 1 5 5 5 12 13 12
31 27 30 27 27 30 31 32 28 29 29 26 29 30 30 24 24 21 19 17 13 10 9 6 5 7 11 12 5 4 4 4 4 4 2 3 3 1 4 11 15 16 13
23 26 25 24 34 31 32 31 26 30 29 28 25 24 25 29 28 24 22 19 16 13 10 8 8 5 7 12 6 2 3 1 3 3 7 2 3 5 7 12 18 15 14
30 25 20 24 30 34 27 28 27 28 27 23 24 27 27 30 27 24 23 20 17 13 11 9 8 7 5 6 9 4 2 1 5 1 3 3 6 8 12 16 17 18 19
29 34 28 26 28 33 36 36 40 31 26 21 31 28 30 30 27 25 23 21 17 14 12 9 7 7 5 5 3 4 3 1 1 4 2 11 8 16 17 20 22 20 23
26 31 37 32 28 33 38 33 34 26 22 28 28 30 32 30 27 24 23 20 18 14 12 9 7 6 5 4 2 2 1 2 6 5 4 4 21 22 21 18 20 25 21
30 32 28 35 26 34 37 32 35 30 29 32 33 31 32 31 28 24 22 20 17 15 12 9 7 5 4 2 1 1 1 0 2 2 2 6 13 16 19 23 16 17 20

GFSSE_925_spd_015.txt.gz
Wind_Speed
25 25 22 20 18 15 14 14 13 12 13 13 15 16 16 15 15 14 13 12 11 11 11 11 12 15 17 15 13 11 10 7 7 7 7 10 11 9 7 7 5 6 2
30 26 24 22 18 16 15 14 13 13 14 13 14 15 16 16 15 14 13 12 12 12 12 11 12 13 13 11 10 8 5 4 5 8 7 5 8 9 8 7 5 6 3
31 27 24 21 18 18 16 14 16 16 16 15 17 16 18 16 15 13 13 13 14 13 13 12 11 10 9 8 6 5 6 8 11 9 6 4 7 6 6 5 5 3 3
32 27 25 20 19 18 16 16 17 19 17 16 15 16 16 16 15 15 14 14 14 13 13 13 12 11 9 9 8 8 9 11 10 8 8 8 7 5 5 3 3 2 1
30 27 24 21 19 18 17 17 18 17 16 18 17 15 15 16 15 15 14 14 13 13 12 11 11 10 9 9 8 7 7 7 6 7 7 4 2 4 6 3 2 1 2
29 27 25 21 16 17 18 18 17 17 16 17 17 16 15 16 14 14 12 12 12 11 11 9 9 9 9 9 8 8 7 5 7 6 5 4 3 3 5 4 4 3 3
32 28 27 22 17 15 17 17 17 18 18 17 16 15 14 14 13 12 10 11 11 10 9 9 8 8 8 6 6 6 5 4 5 3 5 3 3 4 4 3 4 5 3
34 29 28 24 19 18 17 17 18 22 19 17 16 15 13 12 13 13 11 10 10 8 9 8 7 6 5 5 6 7 7 8 8 6 5 5 3 4 4 3 4 5 3
34 30 28 25 21 19 18 18 17 21 20 17 15 14 12 9 14 14 11 9 9 8 8 7 6 6 6 7 8 6 6 7 5 4 4 4 4 5 5 3 4 4 4
30 28 28 26 24 22 20 18 15 16 19 19 16 13 12 11 14 14 12 10 8 7 7 6 6 6 7 7 9 8 6 6 7 2 3 4 5 6 5 4 5 6 6
28 28 29 28 25 23 21 20 16 13 18 19 17 13 11 11 13 14 12 10 7 7 7 5 6 6 4 4 5 4 3 4 3 3 4 5 8 6 9 10 10 12 12
28 29 31 30 28 25 22 20 18 15 17 19 17 15 12 12 13 12 11 9 8 7 6 7 6 4 3 3 3 2 5 5 3 4 4 6 9 9 9 11 11 11 11
24 28 31 31 30 28 26 23 20 18 16 17 17 15 14 14 16 11 11 11 10 9 8 6 4 2 2 3 4 4 4 4 4 3 5 6 9 10 7 10 11 11 10
29 28 31 31 32 31 28 26 23 20 18 17 16 14 15 17 18 13 12 13 10 9 7 7 5 2 0 3 3 4 4 4 5 4 5 5 10 10 10 11 11 11 10
32 32 30 33 32 34 30 25 24 22 20 21 18 18 18 17 17 17 14 14 13 12 8 6 3 1 2 3 3 3 3 3 3 4 6 6 6 9 10 10 10 11 11
31 35 33 27 30 31 29 27 24 24 23 22 23 24 21 19 19 19 21 19 15 11 8 5 1 0 1 2 2 4 2 3 2 5 6 7 6 7 9 10 10 10 11
17 36 36 36 28 32 31 30 24 26 23 27 26 25 19 20 21 23 20 17 13 11 8 5 3 1 1 1 1 3 3 2 4 5 7 7 5 5 7 10 10 10 11
22 28 38 38 36 33 30 30 26 27 28 29 23 25 24 26 25 23 20 17 14 11 7 5 3 1 2 4 3 3 2 2 6 7 5 4 2 4 5 7 9 9 11
33 25 38 40 39 39 33 28 27 26 29 27 27 28 28 27 29 23 21 18 15 12 8 5 5 4 6 6 4 4 4 6 8 7 4 2 1 4 3 5 9 12 11
34 32 26 40 41 39 40 36 26 27 28 30 31 31 30 27 25 23 23 21 17 15 10 7 5 6 8 6 3 5 5 7 8 6 4 4 3 2 4 6 11 15 12
37 33 25 33 40 42 35 32 34 32 30 32 31 32 34 28 27 27 25 21 19 15 12 8 7 6 9 6 3 6 5 5 5 5 4 3 2 1 5 9 14 17 15
22 24 21 28 41 44 42 40 33 36 33 34 32 31 32 30 28 28 26 24 22 18 14 11 8 6 7 10 4 3 2 1 3 4 4 3 2 2 5 9 15 15 19
26 28 29 20 37 42 42 36 30 30 28 28 30 32 32 30 31 30 27 25 23 18 17 13 10 7 7 7 10 4 2 1 3 1 5 5 3 4 9 14 17 17 15
27 25 33 26 28 41 42 39 41 33 27 27 40 37 32 31 33 30 28 26 23 20 17 14 11 9 8 7 5 6 5 3 2 3 3 4 4 10 20 19 16 20 20
32 32 24 32 28 30 40 42 42 30 28 32 36 35 33 33 32 30 28 26 23 20 18 15 13 10 8 8 5 3 2 2 2 2 3 5 16 21 16 15 21 14 15
21 23 26 30 32 33 40 43 42 39 36 32 34 36 36 35 33 30 29 27 23 20 17 16 13 10 9 7 5 4 3 2 1 1 2 4 9 13 18 14 17 12 18

GFSSE_925_spd_018.txt.gz
Wind_Speed
26 25 23 20 19 18 17 16 17 16 15 16 17 17 18 15 13 12 11 10 10 10 11 11 15 14 14 15 12 9 7 5 3 5 8 9 9 8 7 9 6 6 4
31 26 24 21 19 18 17 16 16 18 16 16 16 16 15 14 13 11 11 11 10 10 11 12 12 12 12 11 9 6 4 2 6 8 7 8 10 7 8 7 7 6 1
32 27 24 21 19 18 17 17 18 17 17 17 17 16 17 14 12 11 12 12 12 11 11 10 10 10 9 7 5 4 6 10 8 6 5 6 7 5 5 6 6 3 4
32 29 25 22 20 19 18 19 20 19 19 19 19 19 16 14 13 13 13 12 12 12 11 10 9 8 8 7 8 9 11 9 7 5 5 5 6 4 4 3 3 2 2
32 30 26 22 21 19 18 20 21 19 19 20 19 19 17 15 14 14 13 13 13 12 11 10 9 10 9 9 8 8 8 6 4 4 5 5 4 2 3 2 2 1 1
31 29 25 22 20 19 19 21 20 18 18 19 19 19 18 16 14 13 13 12 12 11 10 9 10 10 10 9 7 6 5 3 3 3 6 5 3 2 2 3 2 1 1
31 28 25 22 19 18 18 20 21 19 18 18 17 17 18 16 15 12 11 11 10 9 8 9 10 9 8 6 6 5 4 4 4 4 8 5 3 3 3 2 2 4 2
31 28 26 20 16 17 17 18 21 21 20 19 18 17 17 15 14 11 10 10 9 8 8 8 8 7 6 7 7 6 7 5 4 6 5 4 3 3 3 3 2 3 2
29 30 28 24 19 18 17 17 20 22 21 20 20 18 16 16 16 13 11 9 8 8 8 8 7 6 7 8 6 6 4 3 3 6 5 3 3 3 4 3 3 3 4
32 32 32 28 24 21 19 18 20 22 20 20 18 16 13 13 18 15 12 10 8 8 7 6 5 6 7 7 6 5 5 4 4 4 3 3 3 4 4 4 5 4 7
31 32 32 30 28 24 22 21 19 21 21 20 18 16 14 13 19 17 14 11 7 7 6 5 4 4 4 3 2 3 1 1 1 3 4 7 5 8 8 9 11 10 11
26 29 33 32 30 27 25 23 21 20 22 22 20 18 16 16 17 16 14 12 8 8 6 6 5 3 1 2 1 0 1 1 1 4 5 7 9 8 8 7 7 10 11
33 31 35 34 32 31 29 26 24 21 22 23 22 20 17 17 17 16 15 12 11 10 10 8 6 3 2 1 1 0 0 0 3 5 8 9 10 9 5 6 9 8 8
32 34 34 35 34 32 30 30 27 24 23 25 25 23 22 21 19 17 15 14 13 12 10 9 6 3 2 1 1 1 1 1 5 8 8 8 11 10 9 9 9 8 9
31 34 37 36 35 36 33 32 30 27 25 23 23 23 23 22 23 19 16 17 15 13 11 10 7 5 3 2 1 2 2 3 7 8 9 8 10 10 9 9 8 8 8
28 33 35 38 38 39 37 36 34 30 26 24 25 24 24 22 23 22 20 19 15 15 12 9 7 5 2 1 1 3 4 4 6 10 10 9 8 9 9 9 8 8 9
17 33 37 36 35 41 42 38 33 32 29 25 27 25 24 24 23 24 22 22 19 16 12 9 6 4 2 1 2 3 4 4 7 9 9 8 7 7 7 8 9 9 9
22 16 31 39 39 38 42 40 36 31 30 26 27 28 28 26 24 24 25 24 20 15 12 9 7 4 1 1 4 4 5 4 8 9 8 5 4 4 4 5 6 8 9
30 26 21 33 40 41 42 38 37 34 30 27 31 31 32 28 26 27 28 25 20 16 13 10 7 4 2 3 6 5 5 7 11 10 8 6 5 3 3 4 7 10 10
33 30 26 30 39 42 40 37 38 34 30 29 33 33 32 32 31 31 28 25 21 18 15 11 7 5 3 6 7 8 7 10 10 8 7 7 5 3 3 5 8 12 13
26 34 28 28 37 38 37 32 34 35 35 33 33 35 32 35 34 34 30 25 22 20 17 13 11 7 6 7 8 8 7 8 7 7 9 8 8 5 3 5 10 12 13
21 20 21 28 37 40 41 40 28 37 38 38 35 34 33 35 36 33 31 26 24 21 19 16 12 9 5 5 3 5 1 1 4 5 8 9 8 5 2 7 10 10 9
23 21 20 19 31 41 41 36 30 29 28 29 34 35 34 37 36 33 31 29 26 23 21 17 14 10 8 5 4 4 2 3 0 4 8 7 8 2 6 11 10 13 13
27 26 25 26 21 37 39 38 40 33 25 31 41 40 37 38 36 34 34 31 28 24 21 17 14 11 10 9 6 5 4 4 3 1 6 8 6 4 14 10 16 9 10
29 30 29 25 19 31 39 40 39 33 34 34 39 39 39 39 37 36 34 31 29 26 21 17 15 13 11 10 7 5 3 3 3 2 2 3 6 13 15 14 8 10 10
12 15 20 22 24 26 37 38 41 35 37 32 36 36 39 38 38 36 33 32 30 27 24 19 15 12 11 9 8 6 5 3 3 3 1 3 6 9 11 10 13 6 12

GFSSE_925_spd_021.txt.gz
Wind_Speed
16 24 21 20 18 18 17 17 17 16 17 17 16 15 15 13 11 8 8 8 8 9 9 10 10 14 13 11 9 8 7 5 3 5 7 8 9 9 7 6 5 6 4
29 25 22 19 18 17 17 17 17 17 17 17 17 17 15 12 11 10 9 9 9 10 10 11 12 12 12 9 7 5 4 4 7 8 8 8 9 8 7 6 7 5 2
30 26 23 20 17 16 15 16 18 17 18 18 18 16 14 13 11 10 11 11 10 11 10 10 10 9 8 6 5 5 7 9 8 7 6 7 8 6 5 5 3 3 4
31 28 23 20 18 16 15 14 16 17 17 17 17 17 15 13 11 11 11 12 11 10 8 8 7 8 7 7 7 8 9 8 6 6 6 5 7 6 5 3 2 2 1
31 29 25 20 17 16 15 15 15 15 18 19 19 17 15 13 13 13 12 11 11 10 9 8 8 8 8 8 8 7 7 5 4 4 6 6 6 5 5 4 4 4 1
31 29 25 21 18 16 16 18 17 18 18 19 20 17 16 14 13 13 12 11 10 9 8 8 8 9 8 8 7 5 3 3 4 4 5 5 4 4 4 4 5 5 4
31 28 25 20 18 16 18 18 16 16 17 18 17 16 15 14 13 12 11 10 10 8 6 8 8 7 6 5 4 3 3 3 2 5 5 5 4 4 4 4 3 5 4
29 27 23 19 17 16 18 16 16 17 17 18 18 17 15 14 13 11 11 10 9 9 7 7 6 5 5 5 4 4 5 4 5 7 6 4 4 4 4 3 2 4 2
27 26 23 20 17 16 17 19 18 18 17 18 20 19 17 14 12 12 10 9 9 8 7 7 5 5 6 5 4 4 3 3 3 5 5 3 4 4 4 3 3 3 4
26 26 26 23 20 19 18 18 19 19 17 18 20 19 19 17 15 12 11 9 9 9 8 6 5 6 5 5 4 3 3 4 3 3 3 4 4 4 4 4 4 7 9
26 27 28 26 24 21 19 18 19 21 20 20 19 18 17 16 18 16 13 12 8 9 7 6 5 5 3 2 3 1 2 2 1 2 5 7 5 8 10 10 10 11 12
27 30 31 29 28 25 23 21 21 22 21 21 19 17 16 15 20 19 14 12 9 9 8 7 6 4 2 1 1 1 3 2 2 4 7 7 7 8 6 7 8 10 12
36 33 34 32 30 28 27 25 23 23 23 22 21 19 17 16 19 19 16 14 11 11 9 8 7 4 2 1 0 1 1 1 4 6 8 8 7 8 4 5 10 8 10
31 37 35 34 33 32 30 29 27 25 24 25 24 22 20 19 20 19 18 16 13 12 11 9 6 3 2 1 0 0 1 3 6 8 8 8 10 10 9 9 9 9 8
23 31 35 36 36 35 33 31 31 29 27 25 26 26 23 21 21 19 18 16 15 14 11 9 7 4 3 1 1 1 2 5 7 8 9 8 10 10 9 8 8 8 8
27 32 34 36 37 36 37 35 34 31 29 27 27 28 27 24 23 21 19 18 16 15 12 10 8 5 4 2 2 4 4 6 8 10 8 8 8 9 8 8 8 8 8
28 29 30 35 37 39 39 38 36 35 33 30 28 27 28 27 26 24 22 20 18 16 14 11 8 6 4 3 4 6 6 6 9 9 9 8 7 7 7 9 8 8 7
20 21 30 35 35 40 41 40 38 37 36 33 30 29 28 27 25 24 24 23 19 18 14 11 8 6 4 3 5 6 6 7 10 11 8 8 6 4 4 4 5 6 7
26 23 24 30 37 39 39 40 40 39 38 35 31 30 29 28 26 27 26 24 23 19 15 12 9 6 4 4 7 7 6 7 12 11 9 7 6 4 3 3 4 6 6
32 30 24 28 33 40 39 37 36 37 38 35 35 33 30 31 29 28 27 27 25 21 17 13 10 7 5 8 8 7 6 10 11 10 9 9 7 6 3 0 4 5 7
20 25 28 25 31 37 33 28 28 34 37 37 38 35 32 34 33 31 29 30 27 24 20 16 13 10 7 11 12 7 7 7 9 9 11 10 9 7 3 1 5 7 8
22 19 18 23 29 36 37 39 30 37 37 41 40 37 34 34 37 36 34 33 30 26 21 20 17 13 6 13 6 6 2 2 5 8 10 11 11 7 3 3 5 8 10
27 23 22 20 21 34 39 33 25 28 25 33 37 37 36 36 38 40 38 33 32 29 26 23 20 15 11 9 10 5 2 4 2 5 9 12 11 8 2 5 8 9 7
25 26 23 24 23 24 33 33 35 31 23 32 42 43 39 37 39 41 39 36 34 31 27 25 21 18 15 13 9 7 5 5 3 1 7 11 11 9 6 7 10 7 7
17 18 21 21 20 19 30 37 39 30 29 35 40 43 39 38 38 41 40 38 36 33 28 26 23 20 17 16 11 9 6 4 4 2 2 4 12 13 10 8 7 6 5
9 10 12 15 16 17 24 34 38 34 27 29 37 38 39 39 39 40 40 41 38 34 29 26 23 21 17 13 11 9 7 4 4 4 1 3 5 6 6 14 6 5 9

GFSSE_925_spd_024.txt.gz
Wind_Speed
17 22 19 17 16 15 15 15 14 14 15 15 15 14 14 12 10 9 9 9 8 9 8 10 11 12 12 10 9 8 7 6 6 8 8 9 12 11 10 9 9 7 4
24 24 19 18 17 15 14 14 13 14 14 14 14 14 13 11 10 9 9 9 9 9 9 13 13 14 13 10 7 6 6 7 8 8 9 10 12 11 9 9 9 8 7
30 24 21 20 18 16 14 15 14 14 14 14 15 15 12 10 9 9 9 10 11 11 10 10 11 11 9 7 7 8 9 8 8 8 9 11 12 9 7 6 6 5 5
30 26 22 20 18 17 16 16 15 15 15 16 15 13 12 11 10 11 12 12 12 11 10 9 9 8 9 9 9 9 8 7 8 8 8 8 10 8 7 5 4 4 3
28 25 21 19 18 16 15 16 17 15 15 14 14 14 12 12 13 13 13 13 12 11 9 8 8 8 9 9 8 7 6 5 6 6 7 7 8 7 6 6 7 6 3
28 26 22 19 17 15 15 15 14 16 16 16 17 14 13 13 13 13 13 12 12 11 10 10 10 10 9 8 6 4 4 4 4 5 5 6 7 7 6 7 6 7 3
27 25 23 18 16 15 15 17 17 17 17 19 16 15 14 13 14 13 13 12 12 9 9 10 10 8 7 6 5 4 4 3 2 5 6 5 7 6 6 6 5 9 11
28 26 22 18 16 15 17 17 17 17 16 17 15 15 14 13 12 12 11 11 11 10 8 8 8 5 6 5 5 5 5 5 6 6 5 5 7 5 5 4 3 4 3
27 27 23 20 17 16 16 17 16 16 16 17 16 15 14 12 12 11 10 10 10 8 7 6 5 5 5 5 5 5 5 5 6 6 5 5 6 5 4 4 4 6 8
25 25 24 22 19 18 18 17 16 16 16 16 17 16 14 12 9 9 9 8 10 7 6 6 5 6 5 5 5 6 6 6 5 4 5 5 7 7 7 8 11 12 12
24 26 25 24 21 19 19 19 17 17 16 16 17 17 17 15 12 10 8 8 8 7 6 5 5 4 3 2 3 3 3 3 3 4 7 7 8 11 11 13 13 14 13
21 27 26 25 23 21 20 20 20 20 20 19 19 18 17 15 15 14 10 9 7 7 6 5 5 4 3 1 1 2 3 3 4 7 10 8 9 10 8 9 13 12 12
20 27 29 28 25 24 23 22 22 22 23 21 21 19 16 14 15 17 13 11 9 9 8 7 6 3 2 1 1 2 2 3 6 7 8 8 9 8 5 4 9 9 7
24 27 28 30 28 27 25 25 24 24 24 24 23 22 19 16 16 18 17 14 12 10 9 8 7 4 2 1 1 1 2 4 7 9 9 9 11 10 9 9 10 10 9
22 26 30 31 32 30 29 27 27 27 26 25 25 25 23 20 19 20 18 16 14 12 11 10 8 5 3 1 1 2 4 7 8 9 10 9 11 11 9 9 9 9 8
26 27 28 31 33 33 33 32 31 29 28 26 27 27 26 24 22 21 20 18 16 14 12 10 9 6 4 3 2 3 5 7 8 8 8 8 8 9 9 9 9 9 8
24 29 28 30 34 35 35 35 33 32 30 29 29 27 29 28 24 23 22 20 18 17 15 13 10 7 5 4 4 6 7 8 9 9 9 8 8 8 10 9 9 8 7
20 24 30 32 33 36 37 37 36 35 33 33 32 30 31 31 28 26 25 22 20 19 18 15 11 9 7 5 6 7 8 9 11 11 9 8 7 7 7 6 6 7 7
23 24 25 31 34 35 37 38 37 37 36 37 35 33 33 31 30 29 27 26 24 22 20 17 14 10 8 7 8 8 8 9 11 11 10 8 7 7 5 3 3 3 3
21 23 25 27 31 32 36 34 33 34 36 38 38 37 34 31 31 30 27 28 27 25 23 19 16 12 9 10 11 8 7 10 13 12 10 9 9 8 5 2 1 2 4
21 20 24 28 33 34 27 27 26 29 33 38 39 39 36 33 33 31 30 30 30 30 27 22 17 13 12 14 13 8 7 8 10 11 11 10 10 9 7 5 3 4 6
23 21 19 21 29 35 35 31 25 30 29 40 40 39 38 37 36 35 33 32 33 32 28 24 22 17 8 19 7 7 2 2 7 9 12 13 13 11 8 6 5 7 8
21 24 24 20 19 31 36 33 27 20 21 28 32 38 41 39 39 38 38 36 38 36 32 29 26 22 15 21 13 6 2 4 3 7 12 14 15 13 9 7 7 7 8
18 17 20 22 19 21 30 29 26 26 23 29 38 42 42 40 40 40 41 40 40 38 37 33 30 25 20 18 17 14 5 5 3 1 8 14 16 15 11 8 7 7 6
17 15 11 14 18 20 24 32 34 31 33 28 32 36 41 43 42 42 42 43 44 42 40 36 32 29 25 21 16 12 9 6 5 3 3 6 17 16 15 11 8 7 6
18 14 11 9 14 17 22 28 35 34 31 31 31 35 36 41 43 41 42 45 46 44 42 39 34 30 28 23 22 19 16 8 7 4 2 3 6 7 14 13 11 9 9

GFSSE_925_spd_027.txt.gz
Wind_Speed
15 22 19 18 17 16 16 16 15 15 15 15 14 13 11 10 10 10 9 8 7 7 8 10 12 13 12 10 10 9 9 9 9 10 10 11 12 11 10 11 10 7 6
25 24 20 18 17 16 16 14 14 15 15 13 13 12 10 10 9 9 9 9 9 7 9 11 14 14 12 10 8 8 8 9 9 10 11 12 12 11 10 9 9 7 9
27 24 20 18 18 17 16 15 13 13 14 12 14 14 12 10 9 9 9 10 11 9 14 15 14 12 9 7 9 10 10 10 9 10 11 11 10 9 8 7 6 5 5
28 22 20 20 18 17 16 16 15 14 13 14 15 13 11 10 10 11 11 13 11 11 12 10 10 10 9 10 11 10 10 9 10 9 10 10 9 9 7 5 4 4 4
25 24 21 19 18 17 18 17 16 16 14 14 13 11 11 11 12 12 12 12 13 10 9 8 8 10 10 10 9 8 8 8 8 9 9 9 8 7 6 6 7 6 4
23 23 21 20 18 16 17 19 18 16 15 13 13 12 11 12 12 13 13 13 12 10 10 10 10 10 9 8 6 6 6 6 7 7 7 8 8 6 6 6 5 7 4
24 23 20 19 17 16 16 17 19 17 16 15 15 13 13 12 12 12 12 12 12 11 11 11 10 8 7 6 5 5 5 5 5 6 6 6 7 5 4 4 7 7 9
23 23 21 17 16 15 16 17 15 18 17 17 14 14 13 13 12 11 11 11 11 10 10 9 9 7 7 6 7 7 6 6 7 6 5 6 6 3 3 3 4 6 9
20 19 19 16 16 16 17 18 19 17 17 16 14 14 14 13 12 11 11 11 10 9 8 9 6 6 7 6 7 6 6 7 7 6 5 4 4 3 2 4 6 10 13
21 22 20 18 16 16 17 18 18 19 19 16 14 14 14 12 11 10 10 10 10 8 7 6 5 6 6 7 7 7 7 6 6 5 4 5 7 8 11 12 13 14 15
20 23 22 19 18 18 17 17 17 17 18 18 17 15 13 12 11 10 10 11 10 8 6 6 5 5 3 4 5 4 4 3 4 5 6 9 10 12 13 13 13 11 11
19 20 23 21 20 19 19 18 18 17 18 20 21 19 19 16 14 12 10 11 10 9 7 7 5 4 3 2 2 3 3 4 6 9 8 9 11 12 13 12 12 10 13
17 20 25 24 22 21 19 20 20 20 20 21 23 23 21 19 16 16 14 13 12 11 10 8 6 5 3 2 1 2 3 5 7 8 6 8 7 6 8 8 9 9 9
15 20 20 24 24 24 22 21 21 22 23 22 23 22 22 20 18 19 19 16 14 12 11 9 8 6 4 2 1 1 3 6 8 9 8 11 11 10 9 8 9 10 11
16 18 22 26 27 27 25 24 23 24 24 24 24 23 22 21 20 20 21 19 16 14 13 12 10 8 5 3 3 3 5 7 9 10 8 9 10 10 9 9 9 9 9
20 22 22 27 27 28 29 28 27 26 26 25 26 26 25 23 21 22 22 21 18 16 15 13 12 10 7 5 4 5 7 9 10 11 11 8 8 9 9 8 8 8 8
17 21 25 26 28 29 32 32 31 30 29 29 28 27 27 26 24 23 23 23 20 18 16 16 14 11 9 7 7 7 9 10 11 11 11 11 10 10 10 8 8 7 7
20 18 20 24 28 31 33 32 34 34 33 32 31 29 29 29 28 26 25 24 22 20 20 18 16 13 11 9 9 9 10 11 12 12 12 12 11 12 9 8 7 7 6
23 23 24 23 26 30 32 30 32 35 36 36 34 32 31 31 31 30 28 26 24 23 22 20 18 14 12 11 11 11 12 13 13 13 12 12 11 11 9 7 6 5 3
19 21 22 27 27 30 31 25 28 28 35 36 38 37 35 33 31 32 31 30 28 27 25 24 20 15 13 12 11 10 10 13 15 14 13 12 12 11 10 8 6 4 3
21 22 24 24 29 28 23 26 27 29 32 32 38 38 37 36 34 33 35 33 32 32 30 27 22 17 14 16 13 6 6 10 14 15 15 14 14 13 11 9 7 6 5
21 21 22 25 25 32 29 28 27 27 28 33 31 35 38 38 39 36 37 37 36 35 33 30 26 20 13 22 8 6 3 4 11 15 16 16 16 15 13 11 9 8 7
13 17 21 26 26 27 32 28 24 22 24 22 27 31 39 41 41 39 40 41 39 37 37 35 33 29 20 26 17 6 3 4 4 10 16 18 19 18 16 13 11 9 8
16 11 12 17 24 26 26 26 26 27 25 26 29 36 35 40 42 41 41 43 43 41 42 41 38 35 29 24 23 19 7 5 3 3 8 15 18 18 17 15 12 10 8
22 16 14 10 14 22 24 30 28 27 28 28 29 29 28 36 41 43 44 45 46 45 45 45 44 42 35 31 30 16 15 10 8 3 3 7 14 17 18 16 13 11 10
23 20 16 14 10 12 18 23 26 27 26 25 29 27 30 35 38 42 44 46 47 47 47 47 45 43 40 32 32 26 21 8 9 5 2 3 8 11 19 19 16 14 13

GFSSE_925_spd_030.txt.gz
Wind_Speed
15 19 18 16 16 14 15 15 14 14 14 15 14 11 11 9 10 9 7 6 7 6 8 11 12 10 11 10 10 10 9 9 9 10 11 12 13 11 11 9 8 6 8
20 20 19 18 17 16 15 15 15 14 15 14 13 11 10 9 9 8 6 6 7 8 7 13 14 13 10 10 9 10 10 10 10 11 13 13 12 10 9 8 9 8 7
22 20 19 19 17 16 14 14 15 15 13 12 12 11 8 9 9 8 7 10 9 15 18 16 13 10 9 9 9 9 9 9 10 11 14 9 9 8 7 7 6 5 6
20 19 19 18 17 17 16 14 13 12 12 11 13 12 10 9 9 9 10 10 11 13 13 11 11 9 10 11 10 10 9 9 9 11 8 8 7 8 6 6 6 3 4
19 18 18 20 18 17 17 15 15 13 12 14 13 11 10 10 10 11 12 10 11 10 9 9 9 10 10 9 8 8 8 8 9 9 7 6 6 5 6 6 6 4 3
18 16 18 18 17 16 17 16 15 15 15 13 10 11 12 11 11 11 10 11 8 8 8 10 10 9 8 7 6 6 6 7 8 6 6 6 6 6 7 7 11 6 6
16 15 16 17 16 16 19 18 16 15 15 12 12 11 13 12 11 11 11 11 10 9 10 10 8 7 6 5 4 4 5 5 5 5 4 5 5 5 4 4 6 6 10
15 14 14 15 15 14 16 20 18 17 14 13 13 12 13 13 12 12 12 11 10 10 10 9 7 6 6 5 5 5 5 6 5 4 3 4 4 2 2 3 5 8 12
15 14 14 12 12 13 14 16 18 18 15 15 12 13 14 14 13 12 12 11 11 10 9 9 6 6 5 5 5 5 5 6 4 3 3 2 2 2 1 4 9 12 13
15 15 14 12 12 12 12 15 16 16 18 15 13 13 14 13 12 12 12 12 11 8 10 7 6 6 6 6 6 5 5 5 2 2 2 2 5 9 9 11 12 14 12
14 16 14 13 12 12 12 14 16 16 16 15 14 15 13 11 11 11 11 13 10 11 8 7 6 6 5 4 4 4 4 1 1 1 2 5 9 11 13 12 12 11 11
14 15 14 14 13 13 12 12 14 14 15 16 16 15 15 13 12 11 11 12 10 9 9 9 7 6 5 4 4 3 2 2 3 3 4 10 12 10 11 11 10 10 10
12 13 14 15 14 14 13 12 13 13 14 16 17 17 16 15 14 13 11 11 10 9 8 8 7 6 5 4 4 3 3 3 3 4 6 8 8 9 9 9 9 9 9
12 14 15 16 16 16 14 14 13 14 14 15 17 19 18 17 15 15 14 13 12 11 10 8 7 7 6 5 4 4 5 4 5 5 5 11 10 8 7 7 8 8 9
13 15 16 17 17 17 18 15 15 15 16 16 16 19 19 18 17 16 15 15 14 12 11 10 8 8 6 5 5 5 5 6 7 7 7 12 9 8 8 8 8 8 8
16 16 17 19 20 18 20 19 17 17 16 16 18 19 21 19 17 17 16 17 16 14 12 11 10 9 7 5 5 5 6 7 7 8 7 7 9 9 9 8 8 7 7
13 14 18 19 20 22 23 22 20 18 18 19 20 20 21 20 18 18 17 18 22 15 14 12 11 9 7 6 6 6 7 7 8 8 9 8 8 10 9 9 7 6 6
15 14 14 17 20 22 24 26 24 21 21 21 21 20 22 23 22 20 19 18 19 17 16 15 13 11 10 8 8 7 8 8 9 9 9 9 9 9 9 9 8 7 5
18 18 19 18 20 22 24 27 31 29 24 23 22 23 23 24 24 24 22 20 20 19 18 16 15 14 12 10 8 8 8 10 11 11 11 11 11 10 9 11 11 8 6
16 17 17 18 20 22 21 24 29 31 29 25 25 25 24 24 26 26 24 22 22 21 19 18 16 14 12 11 9 8 8 10 11 11 12 11 11 11 10 9 9 7 8
14 16 16 16 18 20 22 22 25 27 33 30 30 27 24 26 26 27 27 24 25 25 22 21 19 17 13 13 10 7 7 9 12 13 13 13 13 12 11 10 9 7 6
14 15 16 18 19 20 22 25 27 25 25 27 27 28 29 28 29 30 30 28 28 25 25 24 22 18 14 18 11 9 4 7 13 16 15 15 14 13 12 11 10 8 7
7 7 12 16 18 19 21 22 23 23 20 19 25 31 33 34 30 31 31 31 30 29 30 30 28 24 18 19 18 7 4 6 11 13 17 16 15 15 13 12 11 9 8
11 7 7 9 13 17 19 20 23 25 25 26 27 26 29 31 32 29 29 30 30 32 30 34 35 35 25 20 18 19 9 3 4 4 12 17 17 17 16 14 12 10 8
11 10 9 8 9 11 15 19 20 24 24 25 24 25 25 26 35 33 33 31 32 32 33 31 34 32 35 25 25 13 15 9 7 4 3 9 16 17 16 16 13 12 11
13 12 13 11 10 8 9 14 20 23 23 22 20 21 23 22 26 29 31 31 33 32 34 37 37 37 35 26 31 29 20 11 11 7 3 7 11 15 18 16 14 13 11

GFSSE_925_spd_033.txt.gz
Wind_Speed
15 19 18 13 13 14 13 12 12 11 11 11 11 10 10 8 7 6 6 6 6 7 8 10 13 13 12 12 11 11 10 9 10 11 11 12 12 12 11 10 9 7 9
20 20 20 16 13 12 13 12 12 11 12 12 11 10 9 7 7 5 5 6 6 8 10 13 12 12 11 11 11 10 9 9 11 13 13 13 11 11 10 9 11 9 9
19 20 18 17 16 13 12 12 12 12 13 11 10 9 8 8 7 5 7 7 11 12 15 14 11 10 9 9 9 9 9 10 13 15 12 8 10 10 9 8 7 8 8
18 17 18 17 15 12 11 11 12 13 11 10 9 9 9 8 7 8 9 9 14 15 13 12 10 10 10 10 10 9 9 10 12 10 8 8 8 9 9 9 8 6 6
17 16 17 16 16 14 11 10 9 10 9 8 10 10 9 9 9 12 10 11 11 10 9 9 10 10 10 9 8 8 8 10 12 10 8 6 8 7 8 9 6 6 5
16 15 18 17 15 14 13 11 10 10 8 11 9 8 10 11 11 11 9 10 9 8 8 10 9 9 8 7 6 6 8 9 8 6 7 8 8 8 7 9 11 9 14
15 14 15 15 14 14 14 12 10 10 12 10 7 8 11 11 11 10 10 8 8 8 10 9 8 7 6 5 5 5 6 7 5 5 6 7 6 6 6 6 7 9 12
15 14 15 15 13 14 15 14 11 11 10 9 8 9 10 11 10 10 11 9 9 10 9 7 6 6 5 5 5 6 7 8 5 5 5 4 5 4 4 5 6 11 12
14 14 13 13 12 13 16 17 15 13 11 9 8 8 10 10 10 10 10 9 9 9 7 6 4 4 5 5 5 6 7 8 5 4 3 3 4 2 3 6 10 12 13
13 12 13 13 12 11 11 16 18 15 13 12 8 10 10 9 9 9 10 10 9 8 8 5 4 5 5 5 5 5 6 7 3 3 3 4 9 7 8 11 12 13 12
10 12 12 12 12 12 11 12 14 16 15 13 10 10 11 9 9 8 8 9 8 9 8 5 4 4 4 3 3 3 4 1 2 2 3 6 10 13 13 13 11 11 11
10 11 11 11 12 12 11 12 13 13 13 13 12 12 11 11 10 9 10 11 9 9 7 6 5 4 4 1 1 2 2 1 1 2 5 9 10 9 9 9 9 9 9
12 11 14 12 11 12 12 12 13 13 14 15 15 16 13 13 11 11 9 11 9 9 7 8 7 4 4 4 3 2 2 2 2 3 7 8 9 8 8 8 8 8 8
13 13 14 13 13 13 12 13 12 13 14 15 16 18 15 15 17 15 13 13 12 11 11 9 8 7 6 5 4 3 3 3 3 4 5 9 10 8 7 7 8 8 8
13 13 14 15 15 14 15 13 13 14 14 15 15 18 19 17 17 17 17 16 16 14 12 11 10 9 8 6 5 4 4 4 5 5 6 10 10 7 7 7 7 7 8
13 13 14 15 18 17 17 17 15 14 14 15 17 18 21 18 18 16 18 17 16 16 14 13 12 11 10 8 7 6 6 6 6 6 6 9 9 8 8 8 7 7 6
14 15 16 17 17 19 19 19 19 16 16 17 17 18 19 21 20 19 18 21 19 15 15 14 13 11 11 10 9 8 7 8 8 8 8 8 9 11 9 9 9 7 7
11 12 13 15 16 19 20 19 19 19 18 18 18 18 20 22 22 21 21 21 24 18 19 15 14 13 12 11 10 10 10 9 10 10 10 9 10 9 12 11 8 8 6
18 17 17 16 18 19 20 21 23 20 19 19 18 19 21 22 22 23 22 20 22 22 22 18 18 17 15 13 12 10 10 10 11 11 11 12 12 11 10 13 12 11 8
16 17 18 18 19 20 20 19 23 25 26 21 22 23 22 23 25 26 24 22 22 25 24 21 20 19 17 15 12 10 10 10 12 13 13 13 13 14 12 11 15 11 11
13 14 16 16 18 18 20 21 19 25 28 27 27 24 23 25 25 27 26 25 25 25 26 24 23 22 19 16 12 9 8 11 13 15 15 16 16 16 15 14 11 11 10
9 12 14 16 18 19 20 21 22 21 22 27 29 31 27 26 28 29 30 29 29 28 28 27 27 21 20 23 13 12 4 8 15 18 18 18 18 18 17 16 15 14 12
5 5 8 13 15 17 18 19 20 20 20 20 24 28 30 30 30 29 29 30 29 28 29 30 29 27 23 23 22 9 4 5 9 16 20 19 19 20 19 18 17 15 14
7 7 6 6 8 11 15 19 20 20 21 22 22 21 24 25 28 31 30 33 33 31 30 31 32 32 25 22 22 25 10 4 3 3 14 20 20 21 20 19 18 16 15
8 8 8 8 8 7 9 13 18 21 23 22 21 23 23 22 25 28 30 30 33 32 31 30 30 34 32 26 27 16 17 13 10 3 3 9 20 23 22 21 18 16 14
8 10 10 10 10 10 9 9 14 19 22 20 20 19 19 19 20 25 28 32 31 33 31 32 32 32 34 30 29 26 25 13 11 8 3 7 11 18 22 20 18 17 14

GFSSE_925_spd_036.txt.gz
Wind_Speed
17 21 19 16 16 14 12 12 11 11 11 11 11 10 9 8 8 8 8 8 8 10 12 15 14 15 14 14 13 11 11 12 13 13 12 14 13 12 12 19 10 13 12
20 21 18 14 15 14 13 12 11 10 11 11 11 11 7 6 7 8 7 6 9 12 14 14 14 14 13 13 12 11 11 13 14 16 17 13 13 12 11 11 12 11 10
23 20 18 15 14 14 14 12 11 11 12 12 12 10 8 8 7 8 10 10 11 14 15 13 13 12 12 12 12 11 13 16 13 10 9 13 12 11 11 11 10 11 10
24 20 19 17 14 13 12 12 11 13 11 9 7 8 8 8 8 11 10 17 17 16 14 12 12 13 13 13 12 12 14 14 12 12 11 10 11 11 11 10 9 8 8
21 21 21 19 15 13 12 13 12 11 9 5 7 9 9 9 12 12 13 13 13 11 11 11 12 12 12 11 11 12 14 14 13 11 7 10 11 11 11 12 7 7 8
20 23 22 18 16 13 13 12 10 10 8 8 7 7 9 11 12 10 10 10 10 9 10 11 11 10 10 9 10 11 13 11 13 9 10 5 8 8 9 12 14 17 16
24 20 20 18 16 14 14 14 12 9 11 8 6 9 11 11 10 9 10 9 9 10 11 10 9 8 8 8 8 9 11 10 10 8 5 4 8 7 8 9 10 13 14
19 19 19 16 15 14 14 13 13 11 11 8 7 10 11 10 10 10 10 9 10 11 9 8 7 7 7 7 8 8 9 8 9 5 3 4 5 5 7 8 12 13 13
17 19 17 17 15 16 15 13 11 11 10 8 8 9 11 10 10 10 10 10 11 11 8 6 6 6 6 6 7 8 9 9 7 5 6 3 3 5 8 12 12 13 13
15 18 16 16 13 15 18 16 14 12 11 8 7 8 10 10 9 9 9 9 9 8 7 5 5 6 6 6 6 7 8 7 5 6 1 5 8 8 11 13 13 12 8
13 12 16 16 12 10 11 18 17 13 11 10 7 6 9 8 9 8 8 7 9 7 7 5 4 5 4 4 4 5 6 5 2 2 2 7 13 13 13 12 8 10 10
12 14 14 15 14 14 15 12 16 16 14 12 10 9 9 10 7 8 9 8 7 10 7 5 4 5 4 2 2 5 5 3 2 3 5 8 10 8 8 7 6 9 9
10 8 13 13 14 14 15 12 15 15 14 16 15 14 13 13 12 15 12 10 11 10 9 8 7 6 6 5 4 2 4 6 4 4 7 10 9 9 8 8 8 8 8
14 14 15 12 12 14 14 13 15 19 17 18 20 19 14 17 19 14 13 9 13 10 9 8 6 5 7 10 6 5 5 6 6 7 8 10 11 9 7 7 7 8 8
16 14 16 17 14 15 16 15 16 18 18 17 18 20 21 20 22 19 19 15 14 16 11 14 10 11 11 8 8 8 7 7 7 9 9 13 13 9 8 8 7 8 9
15 17 16 18 20 16 18 16 16 14 17 18 19 20 21 20 24 21 21 22 20 20 17 16 14 14 11 12 11 9 9 9 9 8 9 12 14 10 9 10 9 9 8
23 22 21 20 22 22 20 18 17 17 16 19 20 20 21 24 18 18 21 24 23 20 19 17 16 16 16 16 13 13 12 12 13 11 11 10 15 13 11 11 11 10 9
9 9 20 22 20 20 22 19 20 19 19 17 16 19 22 24 25 22 23 22 24 23 20 22 20 19 18 18 17 16 16 15 15 16 11 12 11 16 15 14 13 11 10
9 10 11 10 19 17 18 20 21 23 18 22 21 22 22 25 26 27 24 24 25 28 27 25 22 23 21 20 18 17 17 16 17 16 18 13 11 14 17 19 17 16 12
5 12 13 12 19 18 18 21 26 25 28 19 22 25 25 25 29 29 30 26 26 29 31 28 27 24 24 23 19 16 17 16 16 19 19 20 17 17 16 19 21 19 15
8 9 9 10 13 11 19 19 23 27 28 29 32 25 21 27 28 31 31 32 26 31 33 31 30 25 26 23 19 13 13 18 18 20 21 20 23 22 17 19 18 21 18
7 8 8 12 14 17 17 18 18 20 27 30 29 31 33 24 25 29 31 31 33 30 32 32 32 28 29 27 16 11 2 8 22 23 22 23 25 25 26 20 20 18 17
6 5 6 9 11 12 12 13 16 19 14 20 24 26 29 31 32 24 29 32 33 31 28 34 34 34 28 30 29 11 3 5 5 19 29 27 26 27 27 27 24 22 20
6 4 5 6 7 8 13 16 16 18 18 19 21 22 24 24 26 29 36 25 33 35 34 34 36 39 30 29 32 31 12 8 4 2 16 28 27 26 28 28 27 25 23
6 6 7 7 7 7 6 8 12 17 19 21 22 22 24 23 23 25 24 28 25 32 34 32 34 36 42 32 33 28 32 18 11 3 3 9 26 29 27 29 28 28 25
7 8 10 10 10 10 10 9 9 12 16 19 20 20 21 23 21 22 23 23 27 29 31 31 32 34 37 34 34 30 27 17 14 8 2 3 10 18 28 25 25 26 24

GFSSE_925_spd_039.txt.gz
Wind_Speed
23 23 20 20 19 17 16 14 14 13 14 13 12 11 9 9 10 10 10 11 13 16 16 16 16 15 14 13 13 13 14 14 15 15 13 14 14 14 18 10 13 13 11
26 23 21 20 19 17 16 14 14 14 13 12 12 12 9 9 9 9 9 12 13 16 17 16 15 14 14 13 12 13 15 17 17 17 15 13 14 12 10 11 11 10 10
27 23 20 20 18 17 16 15 14 14 14 14 14 9 9 9 9 10 12 13 16 16 15 14 14 13 13 12 13 15 17 15 13 11 13 13 13 12 10 10 10 10 10
27 23 21 20 20 19 16 15 15 15 15 11 7 7 10 9 11 12 18 17 17 14 13 13 14 14 14 14 16 18 16 14 13 10 9 11 10 10 9 9 8 8 8
26 23 20 18 18 17 17 15 17 14 11 8 7 9 10 12 12 14 16 16 13 12 12 13 14 13 13 13 15 17 15 14 12 14 16 10 11 10 11 9 8 12 15
27 25 22 20 17 16 19 18 15 12 9 9 8 9 12 14 14 13 13 12 11 11 11 12 12 11 11 12 13 14 13 11 11 9 6 5 8 9 11 15 15 14 15
29 26 23 18 17 15 17 15 15 12 11 8 8 11 13 13 11 11 11 10 10 10 11 11 10 9 9 10 11 12 11 9 12 7 5 5 8 8 8 10 12 12 10
30 25 22 19 16 15 16 15 13 12 11 6 7 12 13 11 10 11 11 11 10 11 10 9 9 9 9 9 11 12 9 8 8 4 3 4 5 6 8 10 12 12 11
24 22 23 20 17 15 15 14 13 12 12 7 7 10 12 12 11 11 10 11 11 9 9 8 8 8 9 9 10 12 9 9 6 4 4 3 6 7 11 12 12 11 12
20 17 21 21 19 19 17 15 14 13 12 9 8 10 10 12 13 13 12 12 11 9 7 6 6 7 7 8 9 10 8 6 6 3 2 6 9 10 12 12 12 10 10
21 17 18 18 18 19 19 19 17 15 13 11 8 9 10 11 12 12 12 13 13 10 9 6 5 5 5 6 6 9 7 5 3 3 2 8 12 13 12 11 6 8 9
22 21 20 16 15 17 19 21 19 17 16 14 11 9 10 11 12 12 11 11 12 10 9 7 6 6 6 5 5 7 4 5 4 5 6 10 12 8 9 6 6 7 7
11 11 23 19 15 18 16 18 22 18 17 16 14 12 12 14 12 13 13 12 12 13 11 9 8 8 8 6 6 6 6 5 6 7 9 10 10 9 8 8 9 8 8
12 10 12 20 20 21 18 16 16 21 20 20 19 15 12 18 19 18 14 13 14 14 12 10 10 10 11 9 8 8 8 11 7 11 10 12 11 11 9 9 8 8 9
16 15 17 14 18 18 19 15 14 19 20 18 20 20 16 19 20 22 18 16 13 14 13 12 11 10 12 12 13 11 10 10 10 13 13 14 14 13 11 10 9 10 10
20 18 21 21 19 17 18 18 16 21 22 19 20 21 22 20 21 25 21 19 17 16 15 15 16 14 15 14 14 13 12 12 13 14 14 14 14 15 12 12 12 12 11
23 22 21 22 27 23 20 20 19 18 19 21 20 20 21 24 25 27 26 24 23 20 19 19 18 18 17 17 17 16 15 15 15 14 15 15 15 16 15 14 14 14 12
24 24 22 19 20 28 25 23 25 18 20 17 21 22 23 24 26 23 27 28 25 25 25 26 21 22 20 21 20 18 17 17 17 17 17 16 16 17 17 17 17 16 15
9 18 21 22 20 20 21 24 27 24 21 24 20 22 23 25 26 28 26 26 26 27 29 27 26 25 25 24 22 19 20 20 20 21 20 19 19 17 19 20 21 18 17
4 4 7 11 25 21 18 19 22 24 26 25 27 27 26 26 27 31 33 33 29 28 31 33 31 29 27 27 23 21 21 22 22 23 23 23 22 20 19 23 25 23 22
4 1 2 3 0 7 21 23 25 28 28 27 29 26 26 28 29 31 34 35 34 33 34 36 35 30 29 26 19 18 19 23 24 26 25 25 25 24 24 24 25 26 25
7 4 4 6 9 7 7 7 8 19 27 32 30 30 30 32 27 25 30 35 34 35 35 36 36 32 33 28 15 4 2 10 26 29 28 29 30 29 28 28 26 26 26
11 9 7 7 9 12 11 11 11 9 9 12 18 22 24 26 26 29 32 30 33 36 37 38 36 36 30 34 33 15 2 6 2 18 35 31 32 32 33 31 29 27 25
9 6 6 6 8 8 7 10 12 14 15 18 15 19 24 25 24 22 23 25 32 29 34 37 35 38 33 26 32 38 28 5 4 2 11 32 31 33 35 34 33 30 28
7 5 6 6 7 9 8 7 9 11 14 17 19 17 20 22 25 24 23 24 24 20 29 29 31 35 38 31 30 24 32 19 10 3 4 6 30 33 34 35 36 33 30
7 6 6 8 8 9 8 8 9 10 12 14 15 15 17 15 17 25 24 23 20 20 20 24 26 29 34 37 31 33 28 18 19 9 3 5 8 17 33 33 36 36 32

GFSSE_925_spd_042.txt.gz
Wind_Speed
24 26 22 22 20 18 17 17 17 17 16 15 13 12 9 10 9 10 12 13 16 16 15 14 14 13 13 13 13 14 13 15 14 14 12 13 13 14 11 11 11 11 9
30 26 24 23 21 20 18 18 18 17 16 15 14 12 9 9 9 9 12 13 16 16 15 14 13 12 11 12 13 13 15 16 15 15 13 12 11 10 10 10 10 9 8
29 25 25 23 21 19 18 18 18 18 16 16 13 10 8 9 9 11 13 15 16 14 13 12 12 11 11 12 13 15 14 12 12 13 13 13 13 10 8 9 9 7 7
29 26 25 22 20 19 18 17 17 16 17 13 9 7 10 11 11 15 14 16 14 12 12 12 12 12 13 15 16 14 13 10 7 8 11 10 10 7 6 7 7 7 6
28 26 24 22 20 18 18 18 17 17 13 9 6 9 11 13 16 18 17 14 12 11 10 12 12 13 14 16 15 13 10 8 8 10 9 8 7 9 9 6 9 12 17
27 24 23 23 21 19 18 19 17 15 10 7 7 10 14 15 14 14 14 12 10 9 11 11 11 12 13 14 14 11 9 9 10 10 7 4 7 9 12 12 12 13 12
27 25 22 19 19 21 19 19 17 14 10 7 8 13 15 15 14 13 12 11 10 10 10 10 10 9 11 12 12 10 8 8 8 6 4 5 7 7 7 9 9 9 5
29 27 24 20 17 19 21 18 16 14 12 8 9 13 14 12 11 11 11 10 10 11 10 9 9 9 10 11 11 9 7 8 6 4 3 4 6 6 8 8 8 8 8
28 27 24 21 17 18 20 17 15 15 12 8 8 12 14 13 13 11 11 10 10 9 9 8 8 9 10 11 11 10 7 8 5 3 2 2 7 7 11 11 9 7 8
27 25 25 22 20 20 20 19 15 15 14 9 9 10 10 12 13 12 12 12 10 7 7 6 7 7 8 9 10 10 8 5 5 3 1 6 9 10 11 10 9 7 6
24 23 24 22 23 21 21 19 16 16 14 10 9 10 11 12 12 12 12 12 12 9 6 5 5 6 6 7 8 9 6 6 6 5 2 7 10 12 11 8 5 4 6
24 24 22 22 22 22 22 21 18 17 15 14 11 10 11 12 12 12 12 12 12 10 8 6 5 5 5 5 6 8 6 6 6 6 6 9 11 12 10 6 6 6 5
23 22 23 21 21 23 23 22 20 19 17 16 13 10 10 12 13 13 13 12 12 11 11 10 9 9 8 7 7 8 7 7 7 7 8 10 11 10 8 10 9 7 6
19 22 21 20 21 21 20 23 23 21 20 18 17 13 11 15 16 15 15 13 13 14 14 13 12 11 11 10 9 9 9 9 9 11 11 11 12 10 9 9 8 8 8
17 16 20 22 22 23 21 19 21 23 22 21 19 17 16 17 19 18 17 17 16 16 17 17 15 13 13 13 12 12 12 12 12 13 14 15 13 12 11 10 10 9 9
20 20 18 19 19 23 25 22 19 18 20 20 20 21 19 19 22 21 23 24 21 20 17 17 16 15 13 14 15 15 15 15 15 15 16 17 17 15 14 13 11 11 11
21 20 25 24 21 19 21 24 21 19 19 20 22 20 21 22 23 24 25 28 26 23 20 19 19 19 18 17 19 17 17 17 19 19 19 21 20 18 17 15 14 14 13
24 22 18 22 27 23 21 20 22 21 21 21 25 24 23 24 26 27 27 31 29 26 25 24 24 23 26 21 21 21 21 20 21 22 21 22 22 20 19 18 18 17 16
24 23 22 20 19 26 29 24 24 24 20 20 20 22 24 24 25 27 30 31 30 30 29 28 27 28 27 27 24 24 24 23 22 23 25 24 24 23 22 21 22 22 21
14 14 20 22 21 20 22 26 28 27 28 25 24 27 24 28 30 29 32 31 30 31 33 33 33 33 31 31 27 26 26 25 23 26 28 28 28 27 25 23 25 26 25
15 14 11 8 13 17 20 20 22 25 27 29 30 29 28 29 28 27 28 33 33 33 34 35 35 36 33 33 19 23 25 26 27 30 29 30 31 31 29 27 26 29 29
10 9 9 6 4 4 8 14 16 16 24 30 29 28 28 28 27 28 28 29 31 35 35 35 34 33 33 33 15 3 2 10 29 35 34 34 35 33 34 32 29 30 31
10 8 6 5 5 2 4 6 8 9 9 12 14 19 21 23 25 26 27 28 30 30 33 36 38 37 26 28 30 12 1 5 2 13 34 37 37 36 36 36 34 32 30
9 7 7 6 6 7 3 1 1 4 8 12 14 15 18 19 20 21 23 23 23 24 29 30 31 33 31 26 24 35 26 8 4 4 9 20 36 33 36 36 36 35 33
7 7 6 6 5 6 5 6 5 5 6 9 10 12 15 17 15 19 20 23 23 24 22 18 22 27 30 30 30 19 34 23 12 5 4 5 11 32 35 35 37 36 35
7 7 6 6 6 6 6 6 7 8 8 8 8 9 10 12 13 12 15 22 25 22 18 18 14 15 20 27 26 27 23 9 14 7 2 4 5 12 23 30 30 33 34

GFSSE_925_spd_045.txt.gz
Wind_Speed
21 24 20 20 18 16 16 15 15 15 14 13 11 10 8 9 9 11 11 15 15 14 12 11 11 12 13 14 15 13 12 12 13 12 11 13 11 10 10 9 9 9 8
32 26 24 22 19 17 16 16 17 16 15 14 13 10 9 9 9 11 12 13 13 12 11 10 10 10 11 12 13 13 13 13 13 13 11 10 9 9 9 9 9 7 8
34 26 25 23 21 18 17 17 16 16 15 15 11 9 9 8 9 12 12 13 12 11 10 9 9 9 10 11 12 12 11 11 12 12 12 12 11 8 7 8 7 7 6
31 28 25 23 22 20 18 18 17 16 16 12 9 7 10 10 12 12 13 12 10 10 9 9 9 10 10 12 12 10 8 7 7 9 10 9 8 4 6 6 6 6 4
30 29 25 23 22 19 20 19 18 17 13 10 6 9 12 14 15 13 14 11 9 8 9 10 11 11 12 13 11 9 7 6 6 6 7 7 8 7 4 5 8 14 15
29 28 24 22 20 19 19 19 18 15 11 7 6 10 14 16 16 15 13 10 7 7 9 10 10 11 12 11 9 7 6 7 8 6 5 6 7 7 9 10 11 11 10
27 26 23 21 20 20 20 18 18 14 9 5 6 12 13 13 13 12 10 8 6 7 8 8 8 9 10 9 7 5 4 5 5 4 3 4 4 5 7 7 5 5 2
27 25 21 19 20 19 19 19 17 13 9 6 7 13 12 12 11 10 9 7 6 7 6 6 6 6 7 8 6 4 3 5 3 1 1 2 2 4 5 4 2 3 4
26 26 24 19 19 19 18 17 14 11 9 6 8 12 12 12 11 9 9 8 7 6 5 4 4 4 6 6 6 4 3 5 2 2 1 2 3 4 6 6 5 3 4
26 25 25 21 20 20 18 15 13 12 9 6 7 12 13 13 12 10 10 9 8 7 5 4 3 3 4 5 6 4 3 4 4 3 3 2 4 6 8 6 5 2 3
24 24 23 21 20 21 20 17 15 14 11 8 7 9 10 12 13 11 10 10 8 6 4 4 4 4 4 5 6 7 5 5 4 4 2 2 5 8 7 5 1 2 1
24 23 22 20 21 22 21 20 18 16 15 12 9 10 10 10 11 10 11 11 11 9 7 5 4 5 5 6 7 8 7 6 6 5 3 3 6 8 8 4 4 4 3
24 23 22 20 21 21 22 21 20 18 16 14 12 10 10 10 11 11 11 12 12 11 10 9 8 8 7 8 8 8 9 8 8 7 6 6 7 8 7 7 9 9 4
23 22 20 20 20 20 21 22 20 19 18 17 15 13 11 12 13 13 14 13 13 13 13 12 11 11 11 11 11 11 11 10 9 9 9 10 11 10 9 10 9 7 6
23 21 21 20 20 21 22 21 21 20 20 18 17 16 14 13 14 15 15 15 15 14 15 15 15 15 15 15 15 14 14 14 13 13 14 14 13 14 11 9 9 8 8
20 20 22 23 21 20 22 20 22 21 20 20 19 18 18 16 15 18 18 18 18 17 16 16 17 18 17 15 15 16 16 17 16 14 15 16 17 16 15 12 11 11 10
25 21 21 22 24 24 23 21 20 21 20 21 20 18 20 20 20 20 21 22 22 22 21 21 20 20 20 19 20 18 18 18 19 19 18 18 19 19 19 15 14 13 13
22 25 24 23 22 20 23 25 24 22 20 20 20 20 21 22 22 24 25 27 25 26 27 26 25 25 25 25 25 23 22 19 20 21 21 20 21 22 22 21 18 17 16
20 21 20 20 23 23 21 20 22 23 23 23 23 24 27 27 25 27 28 29 28 27 29 30 30 28 29 30 28 28 26 25 23 23 24 23 24 25 26 24 22 21 20
20 21 21 18 18 17 19 23 23 22 23 22 22 24 22 23 27 28 29 29 31 30 30 31 33 33 32 33 32 31 30 29 27 28 28 26 27 28 28 28 25 24 25
9 12 18 20 20 19 17 18 21 26 28 28 28 27 24 24 25 25 26 28 30 32 32 32 32 33 34 33 27 25 29 28 28 30 30 30 32 32 32 31 29 27 26
11 10 10 8 7 8 12 18 17 17 19 23 25 25 27 27 27 26 26 28 27 28 29 31 32 29 30 27 11 5 3 9 24 33 34 35 36 34 34 34 32 30 28
10 8 7 5 4 5 6 6 8 10 11 13 14 17 19 21 23 24 24 25 24 23 25 27 28 29 23 18 20 11 2 4 3 9 18 24 33 35 33 32 33 32 31
12 10 9 9 7 5 4 5 6 8 9 11 13 15 17 16 17 18 20 21 22 22 22 22 22 24 24 19 18 24 27 13 3 4 5 9 12 21 29 32 30 30 34
11 10 9 9 8 8 5 4 2 2 4 7 9 10 12 15 17 19 17 21 22 23 22 22 18 17 18 20 18 15 15 19 13 3 8 4 10 10 13 22 28 29 30
11 10 8 6 6 5 3 4 3 2 4 6 6 7 7 8 10 12 15 15 18 21 22 19 16 13 13 12 16 16 18 9 7 10 6 9 10 18 23 25 28 30 31

GFSSE_925_spd_048.txt.gz
Wind_Speed
22 25 21 20 18 17 15 14 13 12 13 13 10 9 10 9 12 13 17 15 14 13 12 12 13 13 14 13 14 13 13 13 13 13 13 11 12 11 10 11 10 10 9
30 26 23 21 19 18 15 14 14 12 12 11 10 9 9 9 12 13 13 14 13 12 11 11 11 12 13 13 13 13 13 13 13 12 12 12 11 10 9 10 10 9 12
32 25 25 22 19 19 17 16 15 14 13 12 9 9 9 10 12 13 13 12 11 10 10 10 10 11 11 12 12 10 10 11 11 11 11 11 10 8 9 9 8 7 7
30 26 26 22 20 18 17 17 15 14 14 10 8 9 10 11 13 12 12 9 9 9 9 10 10 10 10 10 9 8 7 8 9 10 10 10 8 6 7 9 9 6 8
28 27 25 23 21 19 19 18 16 15 11 8 7 10 12 12 12 13 11 6 8 9 10 10 11 11 11 9 8 7 6 6 5 7 9 9 10 6 6 9 15 16 12
27 26 24 22 21 20 19 18 17 14 10 6 7 12 14 15 12 13 9 6 6 8 9 10 10 10 10 8 6 6 6 7 6 7 8 7 9 9 10 10 11 11 10
27 25 23 21 19 20 19 18 16 13 9 5 7 13 14 14 12 11 8 6 6 7 8 8 8 8 8 6 5 5 4 4 5 6 6 5 4 5 6 7 6 7 7
29 25 21 19 18 19 19 18 15 12 8 5 8 13 13 10 9 9 8 6 6 7 6 6 6 6 5 4 3 3 3 2 4 5 5 4 2 2 2 3 4 5 6
26 24 22 19 17 18 19 17 15 10 7 4 7 12 16 14 9 7 7 6 6 6 6 5 5 4 4 3 2 2 2 0 3 4 5 6 1 1 2 2 4 5 4
24 23 21 19 19 18 17 15 12 10 7 5 6 11 10 11 10 9 7 6 6 5 4 4 3 3 3 2 3 2 0 2 4 4 5 3 1 2 5 1 4 3 4
22 23 21 19 18 18 18 14 12 10 7 6 6 8 9 9 10 8 8 8 5 3 2 2 2 2 2 2 3 4 4 4 5 5 4 2 2 3 4 2 4 4 5
23 23 21 19 18 18 18 17 14 12 11 9 6 6 7 8 9 9 9 9 7 7 4 2 2 3 3 3 4 6 6 6 7 6 4 3 3 5 4 2 5 4 4
24 21 20 18 16 19 18 18 17 15 13 11 8 7 7 8 9 10 10 10 10 8 7 6 6 5 5 6 7 7 8 8 8 8 6 4 2 6 4 6 7 8 11
24 21 19 18 16 18 19 18 18 16 15 13 11 9 9 10 11 11 11 10 10 10 9 9 10 9 9 9 10 11 11 10 9 9 9 7 6 8 8 10 12 10 8
21 20 19 18 18 18 18 18 18 17 16 14 14 13 12 11 11 12 12 12 12 11 11 12 12 13 13 13 13 14 14 13 12 12 12 11 11 12 11 10 8 7 8
21 20 18 18 17 17 18 19 19 18 17 16 16 16 15 14 13 12 13 14 13 13 13 13 14 15 15 15 15 14 14 15 16 15 14 13 14 15 15 13 11 10 10
21 20 20 19 19 18 17 18 18 18 18 17 17 17 17 17 16 16 15 16 16 16 17 18 18 18 19 19 19 18 18 17 18 18 17 16 16 17 18 17 14 13 12
20 20 18 17 20 20 19 19 19 17 18 19 18 18 19 19 18 19 20 20 19 20 21 22 23 23 24 24 24 24 23 22 22 21 21 20 20 20 20 21 20 17 15
20 19 21 19 19 19 20 21 22 21 21 20 19 19 20 21 22 22 24 24 23 24 25 25 25 26 28 29 29 29 28 27 27 26 26 25 24 23 22 22 23 22 19
15 15 16 16 17 18 20 17 19 20 23 24 24 23 22 23 24 25 28 28 26 25 25 25 26 27 28 30 30 31 30 29 29 31 32 29 28 27 26 24 24 25 23
17 16 17 17 16 16 15 17 20 24 24 23 23 23 22 23 23 22 23 26 26 26 27 27 26 26 28 27 25 23 23 24 25 30 31 32 31 30 28 27 27 26 25
11 10 10 12 15 18 19 18 15 13 16 21 22 23 22 22 25 25 24 24 24 24 25 25 24 24 21 23 12 5 3 8 17 18 23 27 29 29 30 28 27 28 27
10 9 9 8 8 8 8 10 10 11 11 12 12 11 10 13 16 19 21 23 24 24 24 24 22 22 17 15 16 9 1 3 3 11 9 15 18 18 21 23 24 25 27
11 10 9 7 5 4 3 4 5 6 7 6 9 11 13 13 13 14 15 17 19 20 22 22 20 19 17 15 11 13 20 10 1 3 4 5 17 17 17 17 19 22 24
11 11 9 8 6 4 2 1 0 1 3 6 7 9 11 10 10 12 14 17 17 20 22 21 20 17 16 14 11 8 9 13 15 8 3 5 7 12 19 19 17 19 21
12 11 10 8 6 4 2 2 1 3 5 7 7 8 9 10 9 10 11 12 15 16 16 19 18 16 16 14 11 12 13 7 6 8 5 6 6 10 13 15 18 17 18

GFSSE_925_spd_051.txt.gz
Wind_Speed
20 22 24 22 19 18 17 17 16 15 14 13 11 10 10 12 15 17 15 14 14 14 14 15 14 15 16 16 15 15 15 14 14 13 12 14 12 12 12 11 11 11 7
27 24 24 23 20 18 17 15 14 13 13 11 10 10 10 13 14 14 14 13 13 13 13 14 14 14 14 15 14 14 14 14 14 14 13 14 13 11 11 11 10 11 12
31 24 23 20 19 17 16 17 15 13 12 10 10 10 11 13 14 13 13 12 12 12 13 12 13 13 13 13 13 13 12 13 13 12 12 10 9 10 10 9 8 9 9
29 23 22 21 19 19 17 16 15 13 12 9 9 10 10 13 13 12 11 11 11 12 12 11 11 12 11 11 11 11 10 11 12 12 11 10 8 9 10 15 10 10 11
25 24 22 21 20 18 18 17 15 13 10 7 9 11 11 14 12 12 8 8 11 12 12 12 12 11 10 10 10 9 8 7 9 11 11 11 9 7 10 13 14 12 10
26 24 22 20 20 18 18 17 16 12 8 7 10 12 13 13 12 9 6 8 10 11 12 11 11 11 10 9 9 9 10 9 9 10 9 10 10 9 9 9 9 9 9
25 22 20 20 18 18 18 16 15 12 8 8 12 14 15 13 11 9 7 7 8 10 10 10 9 9 8 7 8 8 6 7 8 8 8 7 6 6 6 6 6 8 9
25 22 19 19 18 17 17 16 13 11 7 7 13 16 13 12 9 8 6 6 7 8 8 8 7 7 6 5 5 6 5 5 7 7 7 6 3 4 5 6 6 9 9
25 22 18 18 17 18 17 16 12 9 7 7 11 16 15 11 8 6 6 5 7 6 6 6 6 5 4 3 3 4 3 3 5 6 7 6 2 3 1 4 6 7 7
25 21 19 16 16 18 17 15 13 8 7 6 9 12 12 11 9 7 6 5 5 5 4 4 4 4 4 2 1 1 2 3 5 5 6 5 2 2 1 5 7 5 6
22 20 20 19 17 18 18 14 11 8 8 6 6 7 9 9 8 7 6 6 5 4 3 2 2 2 1 1 1 2 3 4 5 5 4 3 1 2 3 2 4 4 3
17 20 19 18 18 19 20 16 13 11 9 7 6 7 6 7 7 7 7 7 6 5 3 2 1 1 1 1 2 3 5 5 6 6 4 2 1 2 4 5 5 6 6
21 22 20 18 17 18 19 19 17 14 11 9 7 6 6 6 7 7 7 8 8 7 6 5 4 3 3 4 5 5 6 6 7 7 6 4 2 4 6 6 8 10 11
22 22 20 19 17 17 18 18 18 15 13 11 9 7 7 7 7 8 8 8 9 9 8 8 7 6 6 7 8 9 9 9 9 9 8 7 6 6 7 9 11 10 8
22 22 20 18 17 17 19 17 17 16 14 11 11 10 9 8 7 8 8 9 10 10 10 9 9 8 9 10 10 11 11 11 11 11 11 10 10 10 11 10 9 7 7
22 22 20 19 18 17 17 17 17 15 14 13 13 12 11 11 9 8 9 11 11 11 11 11 10 11 11 12 12 13 13 13 13 14 13 13 13 13 14 14 12 12 10
22 20 20 19 18 17 16 16 15 15 15 15 14 13 14 13 13 13 12 12 12 12 13 14 14 15 15 16 17 16 16 16 18 18 17 16 16 16 16 17 15 14 13
22 20 18 18 18 17 15 14 15 15 15 15 15 14 15 15 15 16 16 16 14 15 16 17 17 18 20 21 21 21 21 21 21 22 23 22 20 19 19 18 18 17 15
20 19 18 17 17 18 17 16 16 16 17 16 16 16 16 16 17 18 20 20 19 19 20 20 20 20 21 20 22 24 25 25 25 26 27 28 26 24 23 22 20 20 20
18 20 19 19 17 14 15 15 16 18 20 20 20 19 18 18 19 21 23 23 23 23 23 22 21 21 21 21 21 23 24 25 24 23 26 29 29 28 26 25 22 22 23
15 16 17 17 17 17 17 18 18 19 19 20 20 19 20 20 20 22 23 22 22 22 23 22 20 20 19 20 15 15 17 16 22 15 17 20 21 24 25 25 23 23 23
10 14 15 16 16 16 16 15 14 12 15 19 19 19 21 23 23 23 24 24 23 23 23 22 20 15 14 16 7 3 2 7 11 10 10 14 16 15 18 20 21 22 23
6 8 9 10 12 14 16 16 14 13 12 11 11 11 12 13 15 17 19 21 22 22 23 23 22 20 14 12 10 7 1 3 3 11 10 9 12 12 10 12 13 13 16
8 9 10 10 9 8 8 8 9 8 7 6 6 8 9 11 11 12 13 14 15 17 18 20 19 19 18 14 11 15 16 8 2 2 3 5 11 13 12 12 15 14 10
11 12 11 10 9 7 6 5 4 4 3 5 6 6 7 6 7 7 8 10 13 16 17 19 20 20 19 15 16 10 12 12 9 7 2 4 7 13 15 13 13 11 11
13 13 13 11 9 7 5 3 1 1 2 4 6 7 8 9 8 8 9 10 11 12 14 15 16 17 19 19 13 14 11 4 4 5 3 6 6 8 9 11 13 10 9

GFSSE_925_spd_054.txt.gz
Wind_Speed
15 20 21 20 18 16 16 15 13 12 11 12 11 11 12 14 16 14 13 13 13 14 13 14 15 15 16 16 16 15 15 15 14 15 15 14 13 13 12 12 15 14 10
22 22 21 19 18 16 15 15 13 12 10 9 11 12 15 16 15 14 13 13 14 13 13 14 15 16 16 16 15 15 16 16 15 14 15 14 13 12 11 10 12 11 10
25 22 22 20 19 16 15 14 13 11 10 9 10 12 14 14 14 14 13 13 13 12 12 13 14 15 13 13 13 13 15 15 13 15 15 9 10 11 9 8 10 10 11
24 22 21 20 18 16 16 16 14 12 9 8 9 11 14 13 13 12 12 12 13 12 12 12 13 12 12 12 12 11 11 13 13 15 11 10 10 11 17 13 11 13 13
23 22 20 21 19 17 16 15 13 11 7 7 9 11 14 12 12 10 10 12 12 12 12 12 12 11 11 11 10 10 9 11 14 11 10 9 9 10 13 13 12 12 12
21 21 20 21 20 17 16 15 13 10 6 7 11 11 14 11 11 8 7 10 11 12 12 12 11 11 11 10 10 11 10 10 12 9 8 9 10 9 9 10 8 10 10
20 19 19 19 19 17 17 15 13 9 7 10 11 11 12 12 10 4 7 9 9 10 10 10 9 9 9 8 8 7 8 9 8 8 7 6 5 6 7 7 8 9 10
20 19 18 19 18 18 16 15 12 8 7 12 14 12 12 11 8 4 6 7 8 8 8 8 7 6 5 6 6 6 5 7 7 6 6 4 2 4 5 7 7 8 9
19 18 18 16 16 18 16 14 11 8 7 11 15 14 12 9 6 6 6 6 7 6 6 5 5 4 3 3 3 4 3 5 5 4 5 4 1 3 2 6 6 7 8
18 17 17 16 16 16 16 13 10 6 7 8 13 13 12 9 6 6 5 5 6 5 5 4 3 2 2 1 1 1 2 5 3 4 4 2 1 3 3 3 3 6 8
17 16 17 15 15 15 17 15 11 7 7 7 8 11 8 6 6 5 8 6 6 4 4 3 2 2 1 1 1 2 3 2 3 3 3 3 1 1 7 3 1 7 9
18 16 15 15 15 15 17 15 12 8 7 7 7 7 7 6 6 7 6 7 7 4 3 2 2 1 0 2 2 3 3 3 4 4 3 3 2 4 6 6 2 7 9
17 16 16 15 14 15 15 16 14 10 8 7 7 7 6 6 5 5 5 5 5 5 4 3 3 3 3 3 3 4 4 4 4 5 5 5 4 5 6 6 8 8 11
17 16 15 14 14 15 14 15 13 11 9 8 8 8 7 6 6 6 6 6 6 6 6 5 5 5 5 5 5 6 6 6 6 6 6 8 7 7 6 8 11 11 10
15 16 16 14 14 14 14 14 13 12 10 9 9 8 7 7 6 6 6 6 6 6 6 6 6 6 6 6 7 7 7 7 7 6 7 10 10 10 11 11 10 10 7
14 15 15 15 14 13 14 14 13 12 11 10 9 9 9 7 7 6 6 7 7 7 7 7 7 7 7 8 9 8 8 9 8 8 8 9 11 11 13 14 14 12 12
16 14 15 14 14 14 14 14 14 13 12 11 10 10 10 10 8 8 7 7 7 8 8 9 9 9 10 10 11 11 11 11 11 11 11 12 11 14 14 15 16 14 14
14 15 14 14 14 14 13 13 13 12 12 11 10 10 11 11 11 10 9 9 8 9 9 10 10 11 12 12 13 13 12 12 13 14 15 15 13 13 14 15 16 17 16
14 15 14 14 15 15 14 12 12 12 12 11 11 11 11 11 12 12 12 11 11 11 11 11 12 12 13 14 14 14 14 14 14 14 15 16 17 17 15 15 18 18 19
13 14 14 14 15 14 14 13 11 12 13 13 12 12 11 11 12 13 14 14 12 13 14 14 14 13 14 15 14 15 15 14 14 13 13 13 14 14 14 14 13 14 17
11 13 14 14 15 14 13 13 13 13 13 13 13 13 13 13 13 14 14 14 14 15 15 15 14 14 15 12 7 12 12 12 15 12 10 8 9 8 9 10 11 12 13
8 12 12 13 14 15 14 13 11 10 11 11 10 10 12 13 13 14 16 16 15 15 16 16 15 14 11 11 5 3 4 7 10 6 6 7 8 6 6 7 8 9 10
6 8 11 12 14 14 13 12 11 10 8 6 6 6 8 10 12 13 16 18 19 20 22 22 18 16 14 12 14 7 4 6 4 7 4 5 4 5 5 7 7 7 8
8 8 9 12 14 16 16 13 11 10 9 6 6 7 8 9 10 11 12 13 12 12 14 16 16 15 15 13 11 14 15 9 4 2 4 4 7 5 7 8 7 7 6
11 11 10 10 10 11 11 10 8 6 5 5 5 6 7 7 8 9 9 10 12 13 14 14 14 15 15 16 16 8 9 8 9 5 3 8 8 10 9 7 8 6 6
11 12 12 11 10 10 9 8 6 5 4 3 3 4 5 6 7 8 9 9 10 10 12 13 15 15 15 15 19 15 12 6 8 6 5 6 6 8 8 7 5 5 6

GFSSE_925_spd_057.txt.gz
Wind_Speed
18 21 21 19 17 14 13 11 11 11 10 9 10 11 11 14 14 14 15 14 14 15 16 18 18 18 17 17 17 16 16 16 17 18 17 16 15 13 13 17 16 12 10
23 22 22 19 17 15 13 13 11 10 9 10 10 11 14 15 14 14 14 14 13 14 15 16 17 16 16 16 16 16 15 16 16 15 13 16 15 13 11 12 13 12 15
22 22 20 19 17 15 14 11 11 8 8 10 10 11 13 14 14 13 13 13 13 13 14 15 15 14 13 14 14 15 15 15 16 15 15 10 14 13 12 14 14 15 18
23 21 20 20 18 16 14 14 12 10 8 10 10 11 13 13 13 12 13 13 13 13 13 13 13 13 13 13 12 11 14 15 17 16 11 12 12 16 15 14 12 13 15
22 21 20 20 19 17 16 14 11 9 7 9 11 12 12 12 10 11 12 13 13 13 13 12 12 12 12 12 11 11 12 15 15 12 12 12 10 11 11 10 11 13 13
21 20 20 19 18 17 16 13 11 9 7 8 11 12 11 12 9 9 10 12 13 13 12 12 11 11 11 11 11 11 12 13 12 9 8 10 8 9 10 10 11 12 13
21 20 20 18 17 16 16 15 12 8 8 11 9 12 11 10 9 7 9 10 11 11 11 10 10 9 9 9 8 8 9 11 9 8 7 6 6 7 9 10 10 11 12
20 18 18 18 16 16 15 14 11 8 10 14 11 11 11 10 4 3 7 8 9 8 8 8 7 6 6 7 6 6 7 8 7 6 6 4 4 5 6 10 11 11 12
18 19 18 17 16 16 14 13 10 9 11 13 13 14 12 8 4 3 5 6 6 6 5 5 5 4 3 4 4 4 5 8 7 5 6 3 2 3 3 6 9 12 14
16 18 18 17 16 15 13 12 9 7 10 13 11 12 10 6 3 4 4 5 5 4 4 3 3 2 2 2 2 3 4 7 5 4 4 5 2 2 2 3 5 9 12
16 14 17 17 16 15 15 13 10 5 6 10 11 9 7 5 4 2 4 4 4 3 2 2 1 1 1 2 2 3 4 3 4 4 3 6 2 2 7 5 3 6 10
19 15 14 16 16 17 15 15 10 7 5 6 7 7 6 5 6 6 5 7 5 4 2 1 1 0 2 1 5 5 4 4 4 4 4 6 4 4 5 8 4 7 9
17 17 14 13 13 15 15 14 10 7 8 6 7 7 6 6 5 6 4 5 5 3 4 3 4 1 3 3 4 4 5 5 5 5 6 8 5 6 6 6 7 7 9
17 16 16 15 14 14 14 14 13 10 9 8 8 8 7 6 6 6 6 6 6 6 5 6 5 5 5 5 6 6 6 6 5 6 7 11 8 7 6 5 9 9 9
13 15 16 14 13 13 14 14 13 11 9 8 8 8 7 7 6 6 7 7 7 6 6 6 6 6 6 6 6 7 6 7 7 7 7 11 9 8 9 11 10 10 10
10 14 15 14 14 13 12 13 12 12 10 9 9 8 9 7 7 6 6 7 7 7 7 7 7 6 7 7 8 8 8 8 9 9 10 10 13 11 10 11 13 12 12
13 12 15 15 14 13 13 12 13 13 11 10 10 10 10 9 8 7 6 6 7 7 8 8 8 8 8 9 10 10 10 10 11 12 12 12 12 14 14 13 14 14 13
14 14 13 12 13 13 12 12 12 12 12 11 10 10 11 11 10 8 8 7 7 8 8 9 9 10 10 11 11 11 12 13 12 14 15 15 14 13 13 15 14 15 15
14 15 15 14 14 14 13 11 11 11 12 11 10 10 10 10 11 11 9 9 9 10 10 11 12 12 12 13 12 13 13 14 15 15 16 16 16 16 14 14 16 17 17
13 15 16 15 14 14 13 12 11 11 11 11 11 10 10 10 10 11 11 11 12 12 13 14 15 14 14 13 13 13 14 15 16 15 15 14 12 10 10 11 11 13 13
12 15 16 16 15 14 16 14 14 13 12 12 12 11 10 11 11 12 13 13 13 14 15 15 15 15 15 14 12 13 14 13 16 16 13 10 8 8 7 7 8 9 9
10 14 16 16 16 16 15 15 14 13 12 11 11 10 10 11 12 14 15 15 15 17 17 16 16 16 16 13 5 4 3 8 12 8 6 6 8 5 4 4 5 5 6
8 11 13 14 14 15 15 12 12 8 9 5 8 8 9 10 10 11 14 17 18 18 21 22 21 20 16 14 15 9 3 4 3 6 4 4 4 4 5 5 6 6 6
9 9 9 10 10 10 12 10 11 10 10 9 7 8 8 8 8 9 11 12 12 11 13 15 14 14 15 15 14 18 19 12 3 3 5 5 5 6 6 7 6 6 6
12 10 11 8 10 11 12 11 10 10 7 7 6 5 5 5 7 9 10 10 11 12 13 14 13 13 14 15 17 16 15 12 9 3 2 5 5 9 9 6 6 4 4
13 12 11 9 8 9 9 8 7 7 6 5 4 3 4 5 6 7 9 9 11 11 11 12 12 14 14 14 16 16 15 6 7 7 4 6 3 9 8 6 2 4 5

GFSSE_925_spd_060.txt.gz
Wind_Speed
23 27 22 20 17 16 15 14 14 14 10 12 13 14 17 16 16 16 17 18 19 21 21 20 19 19 19 19 18 18 19 20 21 22 20 18 16 16 17 16 15 18 11
26 27 22 21 19 16 15 15 15 13 11 12 14 17 16 17 16 16 17 17 17 17 17 18 18 18 18 18 17 18 21 21 18 15 18 19 15 15 16 17 19 21 20
27 26 23 21 19 17 17 15 14 12 10 13 14 15 16 16 16 16 16 16 17 17 16 17 16 16 16 16 18 18 18 17 14 10 9 18 17 16 17 16 16 18 19
29 26 23 21 20 18 17 16 13 10 11 14 14 14 16 14 15 15 16 15 15 16 16 15 15 15 15 14 15 17 18 19 19 15 16 14 15 15 15 14 15 15 14
26 25 22 22 20 18 16 15 12 11 11 13 14 14 14 13 15 15 15 15 15 15 14 14 15 15 14 14 14 15 16 17 18 14 11 11 9 12 12 12 12 13 14
24 26 23 21 19 18 17 14 13 11 12 12 14 13 14 13 13 14 15 15 15 14 14 13 14 14 13 13 12 13 14 15 13 11 10 8 7 10 11 12 12 13 14
26 24 23 20 18 17 16 14 12 11 13 13 13 12 12 11 12 12 13 14 13 13 12 12 11 11 11 10 9 11 12 13 11 9 7 3 6 8 10 12 14 14 14
25 22 22 18 17 17 15 14 12 11 15 14 14 12 10 10 9 9 10 11 11 11 10 9 9 8 8 8 8 8 9 10 10 7 3 5 5 5 7 9 12 14 15
23 22 20 19 17 17 15 13 11 12 15 14 14 13 12 6 4 8 9 9 8 8 8 7 6 6 5 5 6 6 8 9 8 9 5 5 2 3 3 6 8 10 13
27 22 19 18 18 18 15 12 10 11 14 13 14 14 11 6 2 5 7 7 7 6 6 5 5 4 4 4 4 4 5 8 7 5 3 6 2 2 2 3 5 7 11
26 23 22 18 17 16 16 13 10 9 11 12 12 10 6 3 5 4 6 4 5 4 4 3 3 2 2 4 5 5 5 5 4 4 5 7 4 2 5 5 4 6 9
19 22 20 20 19 20 16 15 9 6 8 9 9 9 7 6 6 7 3 4 5 3 2 2 2 2 4 4 6 6 5 4 3 5 6 8 6 4 3 5 6 6 8
23 18 19 20 12 25 19 18 13 8 8 8 9 6 5 9 7 6 2 3 4 1 2 2 2 3 2 3 4 5 6 8 4 5 7 10 9 7 5 2 6 6 7
23 21 18 17 11 22 19 19 16 10 12 10 10 8 8 8 6 5 7 1 1 4 1 5 6 4 4 6 4 6 6 7 7 6 8 10 10 9 7 4 8 8 8
19 23 22 18 14 16 15 16 14 12 12 9 11 10 8 8 7 9 7 7 6 6 6 7 5 5 7 6 6 8 7 7 8 8 10 11 11 10 9 8 10 10 9
6 13 17 16 16 15 15 14 14 14 11 11 11 10 10 8 7 7 8 8 8 8 7 7 7 7 7 7 8 7 9 10 10 12 11 12 14 12 12 12 12 12 12
11 15 18 15 17 15 15 15 14 14 10 13 11 10 10 10 8 8 7 8 7 8 7 8 8 9 10 10 10 11 11 11 12 13 14 15 16 14 14 13 13 15 13
13 18 19 19 18 17 16 15 16 13 13 11 10 11 12 11 11 10 9 7 7 7 8 8 9 10 11 11 12 12 12 12 14 15 13 12 14 16 15 15 13 14 14
16 18 17 17 16 16 14 15 15 13 11 12 11 11 11 12 12 11 9 8 8 9 9 9 10 11 13 14 15 16 15 16 17 17 17 16 15 15 15 11 14 12 13
14 16 17 18 18 16 16 14 15 14 13 14 14 12 11 12 12 12 11 10 10 10 11 12 14 15 17 17 17 16 18 17 17 19 18 14 11 7 7 8 9 11 10
15 17 19 18 19 18 17 18 14 17 13 14 14 12 11 11 10 10 12 11 11 12 13 13 15 16 16 16 17 18 18 13 19 20 16 12 3 3 5 8 6 6 6
11 17 19 20 19 20 19 18 18 16 16 17 15 14 12 10 12 13 13 13 14 15 16 16 17 16 17 17 7 3 3 8 13 14 10 4 4 6 4 4 6 4 5
16 13 19 21 19 19 18 17 17 14 12 12 11 12 13 13 14 15 17 18 19 19 20 20 20 19 17 16 16 10 3 3 5 1 2 2 3 3 2 6 5 4 2
17 17 11 12 19 20 20 19 20 16 7 7 8 11 12 12 11 11 11 11 12 12 12 14 13 14 14 16 13 16 19 14 2 3 4 4 4 4 4 1 3 2 1
18 19 18 15 14 19 19 17 12 9 8 10 11 10 7 7 7 8 9 10 10 10 11 12 13 11 12 13 15 14 15 17 16 9 4 6 4 3 1 3 5 3 4
14 14 15 15 13 12 16 15 11 13 13 9 7 5 5 6 8 8 10 9 9 10 10 12 13 13 14 13 13 13 16 10 8 6 4 7 6 8 3 4 6 4 0

GFSSE_925_spd_063.txt.gz
Wind_Speed
30 29 25 21 20 18 17 17 16 14 16 16 18 19 17 17 18 19 20 23 24 23 22 20 20 19 19 19 20 20 20 20 22 22 18 18 18 18 19 22 24 17 16
35 30 26 22 20 18 18 18 17 15 18 19 20 19 18 17 18 18 19 20 20 20 20 18 18 18 18 20 21 20 19 17 16 21 19 18 19 18 18 19 19 18 16
35 30 26 23 21 19 19 17 16 16 19 20 20 19 18 17 18 18 18 19 18 18 17 16 17 16 19 19 19 18 17 14 13 14 19 18 18 16 16 15 15 14 15
34 30 27 23 21 21 19 17 15 15 20 18 19 18 17 17 17 18 18 18 18 16 17 16 15 15 16 18 19 19 19 18 17 18 16 13 12 12 13 13 13 13 12
32 29 27 24 22 20 18 16 13 17 19 19 17 16 17 17 17 17 17 18 17 16 16 15 16 16 16 17 18 18 18 17 15 13 12 8 11 11 13 13 14 14 14
27 27 25 24 22 20 18 15 15 17 19 19 17 15 17 17 17 17 17 17 16 16 15 15 15 15 15 15 15 15 15 14 11 9 8 8 9 11 12 13 14 13 13
27 27 24 23 21 19 17 16 15 17 18 18 17 14 15 15 15 16 16 16 16 15 14 13 13 13 12 12 13 13 12 11 10 7 7 5 7 9 10 12 13 13 13
29 27 24 21 21 18 16 15 15 18 18 19 17 14 14 12 13 14 15 14 13 12 12 11 10 10 10 10 10 10 10 10 9 5 4 6 5 6 6 8 10 11 12
28 27 24 22 20 18 16 14 16 18 18 19 16 14 13 12 10 12 13 13 11 11 10 9 8 7 7 8 8 9 9 8 8 6 4 7 3 3 3 4 6 8 10
26 26 25 24 22 20 17 14 15 17 17 17 17 15 11 7 7 9 9 10 9 8 7 7 6 6 6 6 6 6 6 6 6 4 3 6 3 2 2 4 3 5 8
25 25 23 23 23 21 18 15 14 15 16 17 16 12 8 7 8 9 9 7 7 7 6 5 5 4 5 6 6 6 4 4 3 3 4 5 5 2 2 4 4 5 7
25 25 22 22 22 22 21 15 12 13 14 15 14 11 8 7 7 8 5 5 6 5 5 4 3 4 4 2 2 3 2 4 2 3 5 6 8 6 4 5 7 7 7
21 25 23 20 21 21 22 19 13 12 12 12 11 11 10 9 10 5 3 5 6 5 5 4 4 3 1 3 3 2 3 5 4 3 5 8 8 7 6 5 8 6 7
23 23 21 19 19 23 22 20 16 12 12 13 10 11 9 12 6 7 6 3 4 4 4 3 1 3 3 4 3 3 5 6 7 6 7 9 9 9 8 6 7 8 8
22 22 25 17 21 25 19 20 17 12 16 14 14 11 13 10 10 9 8 8 5 4 5 5 4 4 6 7 7 6 8 8 7 9 10 11 11 10 10 10 9 10 9
24 25 24 22 19 22 18 20 17 13 14 15 16 15 13 10 10 12 10 9 7 8 6 7 7 7 8 7 8 8 8 10 11 11 14 14 13 13 11 10 11 11 12
18 26 27 24 22 22 18 18 17 15 15 15 17 15 14 12 11 8 11 10 10 10 9 9 8 8 9 10 10 9 11 14 13 15 16 17 14 16 15 13 11 10 11
20 25 22 22 19 18 19 18 16 16 17 14 18 15 14 14 13 11 10 9 9 9 9 9 10 9 9 11 12 12 13 13 12 15 13 11 9 12 14 13 11 9 11
18 22 25 24 25 21 20 20 18 17 18 14 17 15 15 15 14 14 12 10 9 9 9 9 8 9 11 13 15 16 17 16 16 16 18 17 16 12 11 6 7 9 7
20 21 22 23 23 21 20 18 17 19 13 16 16 13 15 14 14 15 13 11 10 11 10 10 12 13 15 16 16 17 18 20 22 25 24 17 13 7 3 3 6 5 4
20 22 23 25 25 23 23 22 20 20 17 16 15 15 14 13 12 13 13 12 10 12 13 11 11 13 15 14 16 18 19 21 19 19 21 16 8 5 1 4 4 3 5
24 24 24 27 27 27 24 24 20 21 19 16 16 13 14 14 14 12 13 13 14 15 14 15 15 15 18 19 12 5 3 7 11 11 6 10 6 2 3 4 2 2 4
22 25 27 26 26 26 26 22 20 19 18 19 19 18 17 17 16 15 14 14 15 16 17 19 20 19 20 20 18 11 2 3 3 2 3 3 2 1 4 4 3 2 4
26 22 25 27 26 26 26 26 26 24 19 18 19 17 15 14 15 16 16 15 15 15 16 15 14 15 14 17 13 15 18 12 2 3 3 4 4 6 11 8 6 3 4
24 22 22 21 25 27 26 25 25 23 17 17 17 17 14 12 11 11 10 10 10 10 10 11 12 13 12 14 14 15 14 15 15 11 4 6 5 5 11 9 7 3 2
15 14 16 19 18 17 18 17 19 20 19 17 16 15 11 9 8 7 7 7 8 9 9 10 11 12 13 13 13 14 18 10 6 8 3 6 7 3 10 8 5 3 1

GFSSE_925_spd_066.txt.gz
Wind_Speed
29 27 24 23 23 20 18 16 15 16 19 19 19 17 18 19 20 23 25 23 22 21 20 20 19 20 20 19 19 20 21 20 18 17 18 18 18 19 20 21 16 15 14
35 30 26 24 22 21 20 18 16 18 19 21 19 18 18 19 19 20 22 21 20 19 18 19 19 19 19 19 18 17 15 17 19 17 19 18 16 16 15 15 15 14 14
34 30 27 25 22 21 20 19 18 19 22 19 19 19 19 19 19 19 18 19 18 17 18 18 18 19 20 19 17 14 13 11 17 17 17 16 14 13 13 11 10 10 11
35 30 27 24 23 22 21 19 20 21 19 19 19 19 20 20 19 18 18 17 17 17 17 17 17 18 18 17 16 16 16 17 15 15 12 11 12 12 12 12 12 11 10
34 31 27 25 24 22 20 19 21 21 19 17 17 18 19 19 20 19 19 16 17 17 17 17 17 17 17 16 16 16 16 15 12 11 10 10 11 12 12 12 12 12 12
31 29 27 25 23 21 19 18 21 23 21 19 17 19 19 18 18 19 18 18 18 17 17 17 17 17 15 15 14 13 12 10 8 8 7 8 11 11 12 12 12 12 12
30 29 26 25 22 20 18 18 21 22 22 19 17 18 18 18 17 17 17 18 18 17 16 16 15 15 14 13 12 11 10 9 8 7 7 6 8 9 9 10 11 11 12
29 27 26 23 22 20 18 17 20 22 21 19 16 16 16 16 16 16 16 16 15 15 14 13 13 12 12 11 10 9 9 7 6 5 6 5 5 5 6 7 8 10 11
27 27 25 23 21 19 17 18 20 21 20 19 16 14 14 14 15 16 15 15 14 13 12 11 10 10 10 9 9 8 7 5 5 5 4 5 3 2 2 4 5 8 10
29 26 23 22 21 19 16 18 20 20 22 19 17 16 13 11 11 12 13 12 12 11 11 10 9 8 8 7 7 5 5 3 4 3 3 4 2 1 2 3 4 5 8
26 28 25 22 21 19 16 17 19 19 20 20 17 14 11 9 10 10 9 9 8 8 8 8 8 7 7 7 6 5 3 2 2 2 3 5 5 4 3 5 5 6 7
22 27 26 24 22 20 18 17 18 19 19 19 18 14 10 9 10 9 8 8 7 7 6 6 5 5 5 3 3 2 2 3 2 3 4 4 6 6 6 5 7 7 7
23 28 26 25 23 22 20 17 16 17 18 19 17 14 12 10 9 9 7 7 8 7 7 6 6 5 3 1 1 1 1 3 3 4 5 5 6 7 7 6 6 7 7
17 22 27 27 24 23 21 18 15 15 16 16 16 16 14 12 12 10 8 6 9 7 8 6 5 4 3 0 1 2 3 4 5 6 7 8 8 8 8 8 6 8 8
19 20 24 28 24 24 24 21 18 16 16 14 13 14 14 14 12 10 10 9 7 9 7 6 5 4 4 5 6 7 7 8 9 9 9 9 10 9 8 8 8 9 10
36 33 22 21 22 27 26 23 20 16 17 15 16 15 14 13 11 12 11 12 10 9 7 6 6 6 6 6 6 7 8 11 12 13 13 12 13 13 12 9 10 9 9
29 32 25 22 22 24 27 22 22 19 18 18 19 20 17 15 13 11 14 12 11 9 8 7 7 7 6 7 9 8 11 14 13 14 16 16 15 13 14 13 11 9 9
23 28 31 32 32 27 24 22 23 20 19 18 20 22 18 16 15 12 13 12 10 9 9 9 9 9 8 8 10 12 12 15 16 15 12 12 12 14 14 10 9 7 8
21 29 30 30 29 29 25 24 21 21 19 20 17 24 19 17 16 15 14 12 10 10 10 10 9 9 10 11 13 15 15 17 18 20 21 21 15 12 9 7 5 5 6
23 24 29 29 27 21 21 22 22 22 22 21 19 21 19 17 16 17 15 13 12 12 11 11 11 12 13 14 16 15 17 19 18 22 21 19 12 10 7 6 4 5 6
24 25 25 29 25 25 24 25 24 24 24 20 20 20 20 18 16 17 17 14 15 14 13 12 13 13 15 15 14 18 19 17 21 17 18 17 12 9 8 4 3 2 4
26 27 27 28 29 29 32 30 29 26 24 21 19 19 19 21 21 18 18 17 14 14 13 13 14 16 16 17 14 7 3 6 8 5 6 5 12 10 6 6 2 1 3
24 28 30 29 29 30 31 29 22 22 20 18 19 18 16 19 19 17 15 15 15 16 17 17 17 16 19 20 16 7 2 3 2 1 4 8 9 11 11 8 6 5 3
27 27 27 32 34 33 31 30 29 27 24 25 26 22 18 16 16 17 16 15 16 17 18 19 16 16 15 17 15 13 17 10 3 2 3 5 6 10 12 11 9 7 4
31 27 25 28 29 29 31 31 29 26 25 21 22 22 19 15 10 10 13 14 13 12 13 14 14 14 14 15 14 14 12 13 14 8 3 5 3 5 12 12 10 7 5
22 19 15 22 26 26 28 29 27 27 26 21 20 21 19 17 14 12 11 11 10 10 12 13 13 13 13 13 14 14 14 10 5 8 3 7 6 7 11 10 8 6 4

GFSSE_925_spd_069.txt.gz
Wind_Speed
26 26 24 23 21 20 18 17 16 19 18 17 15 17 19 22 24 25 23 21 20 19 19 19 19 19 19 19 19 18 17 16 17 18 18 17 17 17 16 16 16 16 17
33 29 26 24 21 20 18 16 18 20 20 16 15 16 19 22 24 24 22 20 19 18 18 19 19 19 17 16 16 16 17 17 18 17 16 16 15 15 14 11 13 12 15
32 29 27 24 21 21 19 18 20 20 18 17 16 17 18 20 21 21 21 19 18 18 18 18 18 18 17 15 14 13 14 16 16 14 13 12 14 13 13 13 12 11 12
32 29 26 24 23 21 19 21 21 21 17 17 18 17 18 19 20 18 18 18 17 17 17 17 19 18 17 16 15 16 15 13 12 11 12 13 14 13 13 14 14 13 12
31 29 26 25 24 22 20 21 23 18 17 17 18 19 18 19 18 17 17 17 16 16 18 18 18 17 16 16 15 14 12 11 10 9 10 12 13 13 13 14 15 14 13
30 28 25 24 23 21 20 22 21 19 17 17 17 19 18 18 18 17 17 16 16 17 18 18 17 15 14 14 13 12 10 9 7 8 8 10 11 11 11 12 13 13 13
28 27 25 24 22 20 20 22 21 19 17 17 17 17 18 19 18 16 16 16 16 17 18 17 16 15 13 12 11 10 9 8 7 8 8 8 8 8 8 10 11 13 13
28 26 24 22 20 18 18 21 22 21 18 16 17 17 17 17 18 16 15 14 14 15 15 14 14 13 12 11 9 9 7 6 5 6 7 6 5 4 5 7 9 11 13
27 25 24 21 19 17 17 21 23 21 19 15 15 15 16 16 17 17 16 14 13 12 11 11 11 10 10 9 9 7 6 4 4 4 5 5 4 3 4 6 7 9 11
26 25 23 21 19 17 16 20 22 22 19 16 15 15 14 15 15 15 15 14 13 11 10 9 8 8 8 7 6 6 4 3 3 3 3 4 4 2 4 6 8 7 9
23 24 22 21 18 17 16 19 20 21 19 18 14 16 14 14 13 13 12 12 11 10 9 8 7 7 7 7 5 5 2 2 2 2 3 3 4 5 6 5 6 6 7
22 23 22 22 20 17 16 19 18 20 21 20 16 13 11 12 12 12 11 10 9 9 8 8 6 6 5 3 3 2 2 3 3 3 4 4 5 6 7 6 7 7 8
17 19 22 24 22 19 17 19 19 19 21 20 17 13 10 10 12 11 11 10 9 8 8 7 6 5 3 2 2 2 1 2 3 4 5 5 6 6 7 8 6 7 8
15 17 21 22 23 20 17 18 19 19 20 20 19 16 13 12 10 10 9 9 9 9 8 6 6 5 3 2 1 1 2 3 4 5 6 6 6 7 7 7 7 7 9
34 8 12 19 24 24 22 19 18 19 20 19 19 17 15 13 13 11 10 8 8 9 8 8 6 5 5 5 5 6 5 6 7 8 9 8 8 9 9 9 7 7 8
24 9 14 15 24 25 26 23 21 19 18 18 18 16 17 14 13 12 11 11 9 8 8 7 6 7 6 6 6 5 7 9 11 13 13 14 14 14 14 11 10 10 9
24 28 29 32 23 24 24 24 23 22 19 19 18 17 17 16 16 13 13 12 11 10 9 9 8 7 6 5 7 7 9 10 10 12 12 13 13 12 9 11 12 11 10
29 30 33 31 33 21 21 20 23 23 21 21 19 19 20 18 17 15 13 13 10 11 11 10 9 7 8 8 8 10 12 13 14 16 18 14 13 15 11 12 11 11 8
35 30 33 35 34 36 34 23 22 25 25 23 20 22 23 21 19 18 14 12 11 12 11 10 10 9 10 9 11 13 15 17 16 19 16 19 17 14 13 7 7 8 7
32 35 35 35 31 33 27 27 29 30 29 24 20 20 24 23 20 19 17 14 13 12 13 13 12 12 11 13 15 16 16 17 19 19 22 20 16 10 9 8 7 5 5
28 30 32 33 34 32 30 33 34 37 27 22 23 20 21 24 21 19 18 15 14 14 13 12 10 11 12 14 13 16 16 20 23 24 19 16 13 10 11 9 7 2 3
23 28 26 30 33 34 32 32 31 29 25 22 21 21 19 22 24 21 18 17 17 15 12 10 9 11 16 15 10 9 3 8 10 4 5 4 5 11 11 7 6 5 4
16 20 26 29 33 32 31 31 27 21 21 20 18 18 18 20 24 22 18 17 16 13 12 13 14 14 15 17 15 7 2 3 4 2 1 4 9 11 10 9 8 6 4
21 20 22 23 28 28 26 24 25 21 16 23 20 20 18 18 20 22 19 17 15 14 13 16 17 17 17 16 12 11 16 11 3 3 1 3 6 9 10 11 9 8 4
28 24 22 21 20 22 21 23 26 24 24 18 16 22 22 23 19 15 15 9 10 15 15 19 15 13 13 14 12 11 8 11 14 8 3 4 4 6 12 12 11 9 7
22 24 21 19 20 21 23 26 28 28 24 22 21 25 24 23 19 14 14 17 17 16 16 15 14 13 12 12 12 13 12 7 4 7 3 7 4 6 10 12 13 10 8

GFSSE_925_spd_072.txt.gz
Wind_Speed
25 27 25 23 21 18 17 14 17 17 16 16 16 19 21 22 23 23 22 19 19 20 20 20 20 19 19 19 19 17 18 19 18 18 17 16 15 15 16 15 17 18 20
31 29 27 24 21 19 18 16 19 18 17 16 16 19 23 25 25 23 20 19 19 19 20 19 19 18 17 17 17 17 18 18 17 15 14 14 15 14 13 12 14 14 16
32 29 26 25 22 20 18 20 19 20 17 16 17 19 23 24 23 22 20 18 19 19 19 19 18 16 15 15 15 16 17 17 14 14 14 16 16 15 16 15 14 13 12
31 29 26 24 22 20 18 21 20 18 15 17 18 18 20 22 22 19 18 18 19 19 19 17 17 16 16 16 15 15 14 13 13 13 14 15 16 15 16 16 15 15 13
29 27 25 23 22 20 20 21 21 17 16 17 19 19 18 20 18 17 16 17 17 17 17 18 17 17 16 15 15 14 13 11 11 11 13 14 15 14 15 16 16 15 14
28 25 23 23 21 19 21 22 18 17 17 17 19 20 20 18 16 16 16 16 16 16 17 17 16 15 15 14 13 11 10 9 9 10 11 12 13 12 13 14 15 15 14
26 25 22 22 21 18 22 21 17 16 17 18 18 18 18 17 16 17 15 15 16 15 15 15 14 12 12 11 10 9 9 8 8 9 9 10 10 10 11 12 13 14 14
25 24 22 21 19 18 21 19 17 15 15 16 17 18 18 18 17 16 15 14 16 16 15 13 12 11 11 9 9 8 7 6 6 8 9 8 8 7 8 9 11 12 13
24 23 22 21 19 17 18 19 19 16 14 15 17 17 18 18 17 16 16 15 15 15 14 13 11 9 8 7 7 7 6 5 5 6 7 7 6 4 7 9 10 10 12
22 24 22 20 18 17 17 19 16 17 14 13 14 15 16 16 15 14 15 15 13 13 11 10 9 9 8 7 4 4 4 5 4 5 5 6 6 3 5 6 8 8 9
19 21 21 19 17 16 16 20 19 15 16 14 13 13 14 15 14 13 12 12 11 10 9 8 7 7 6 6 4 3 3 3 3 3 4 4 5 4 6 6 6 7 8
20 21 21 20 18 17 16 19 21 19 18 15 14 14 13 13 12 12 11 9 8 7 7 7 6 6 5 4 3 2 2 3 4 3 4 4 5 5 6 7 8 7 8
20 22 20 20 19 17 17 19 19 20 18 18 15 13 12 12 12 12 11 11 10 9 8 7 6 5 4 2 2 2 1 2 3 4 4 5 5 5 5 6 7 6 7
12 20 20 18 20 17 16 19 18 19 21 20 18 15 12 12 13 12 12 10 10 10 9 8 7 6 4 2 1 0 2 3 4 4 4 4 5 6 6 6 5 6 7
19 13 14 15 18 18 17 18 19 19 21 21 20 17 14 13 12 11 11 10 11 11 10 9 7 6 5 3 3 4 4 5 6 8 9 9 8 10 9 9 9 8 8
9 9 16 9 9 18 19 19 20 20 20 21 21 19 17 15 12 13 12 11 10 10 9 9 8 6 6 4 4 3 4 6 7 9 9 9 12 11 13 11 11 9 9
37 28 25 28 14 17 21 23 21 20 20 22 22 20 18 17 14 14 12 12 11 10 10 10 9 7 6 5 4 5 5 7 8 11 13 14 12 11 12 9 9 11 9
36 39 33 19 17 16 24 19 16 19 20 21 22 20 18 17 16 16 14 13 11 12 11 11 9 8 6 6 4 6 8 10 11 14 13 15 13 14 12 12 9 10 11
41 35 31 12 19 18 15 14 14 17 19 18 24 24 20 19 18 18 16 12 13 12 11 10 10 10 8 8 8 9 13 13 14 14 17 15 16 16 14 12 6 8 8
21 25 22 29 30 28 24 17 24 33 21 23 25 24 23 21 21 20 17 14 13 13 12 12 12 11 10 9 11 14 14 15 16 17 19 19 18 16 11 7 7 8 5
31 29 28 31 36 31 34 33 28 27 35 30 29 29 25 19 21 23 19 17 15 14 12 12 11 11 9 10 13 13 13 20 19 17 12 11 11 9 8 9 9 7 6
21 24 26 28 35 38 28 32 28 29 30 35 33 31 26 20 22 24 22 18 18 16 15 11 10 8 9 10 7 5 3 8 5 4 5 2 1 5 9 10 10 8 6
12 16 25 33 33 32 34 27 29 24 23 25 30 26 26 21 20 24 23 23 19 17 15 12 11 11 13 11 11 6 2 3 3 2 1 1 5 8 10 10 10 8 6
13 11 15 22 28 26 22 23 16 16 13 7 10 17 19 21 23 24 22 21 20 17 12 10 10 12 13 14 14 12 14 7 2 3 1 3 7 9 10 11 11 9 8
10 15 17 15 16 16 18 21 24 24 31 24 21 15 13 13 14 19 22 21 11 4 7 10 12 14 10 9 10 8 8 9 10 7 4 5 6 8 12 12 12 11 10
7 9 15 15 13 11 11 15 16 18 19 19 22 21 20 21 15 10 12 10 11 12 10 14 13 11 9 11 11 10 9 6 4 7 5 7 5 6 11 13 14 14 12

GFSSE_925_spd_075.txt.gz
Wind_Speed
21 25 25 24 21 18 17 17 18 17 16 16 19 21 21 21 21 22 21 19 19 20 20 20 20 20 19 17 17 18 18 18 18 17 16 16 14 13 14 16 19 17 16
27 27 27 25 22 19 17 19 18 17 18 16 21 22 22 23 24 22 19 20 20 20 20 20 18 19 18 17 17 18 17 16 15 15 15 17 17 15 13 13 13 14 16
27 26 25 25 22 19 18 22 19 16 18 16 21 25 26 25 23 21 20 20 20 19 19 18 17 16 16 17 17 17 15 14 15 15 17 16 16 16 16 16 15 12 13
27 25 24 23 23 20 19 21 21 18 17 16 21 23 25 25 23 20 20 20 20 19 18 17 16 16 16 15 16 15 13 13 14 15 14 15 15 16 16 16 15 15 14
24 24 24 23 22 20 21 21 20 16 17 19 19 22 24 23 20 19 19 19 20 19 18 17 16 17 16 15 14 12 12 12 12 14 14 14 14 14 15 15 15 15 15
23 24 24 23 21 20 22 20 18 15 16 21 19 20 21 20 18 18 18 19 19 19 17 17 16 15 14 13 12 11 10 10 12 13 12 13 13 12 13 14 15 15 14
25 24 22 23 21 21 22 20 16 16 16 17 21 20 20 18 17 17 17 16 18 18 17 16 15 14 13 11 10 9 9 9 11 11 11 10 10 10 11 12 13 14 13
25 24 22 21 21 23 21 19 15 16 16 17 18 18 17 16 17 16 16 16 15 16 17 15 13 12 11 10 10 8 7 7 8 10 10 9 9 8 9 11 11 12 12
26 24 22 21 20 22 20 18 15 14 16 18 18 18 16 16 16 14 15 15 14 14 13 13 12 11 10 9 9 8 6 6 6 8 8 8 8 5 7 8 9 9 10
26 26 23 20 20 20 20 19 17 13 14 17 18 18 17 15 15 14 14 13 14 14 12 11 10 8 8 7 6 6 6 6 5 6 6 6 6 4 4 3 5 6 8
23 24 23 21 19 18 21 17 18 15 13 14 15 16 17 15 14 14 14 14 13 12 11 10 10 9 7 6 5 4 4 4 4 4 4 4 5 5 5 5 5 5 6
21 22 24 22 19 18 19 21 17 18 15 14 14 15 15 15 15 14 13 12 11 11 10 10 9 8 8 6 5 4 4 4 4 4 3 3 3 3 3 5 6 4 5
5 20 21 22 20 18 18 21 20 17 18 13 14 14 14 14 13 14 13 13 12 11 10 10 9 9 7 5 5 4 3 3 3 3 3 3 2 2 2 4 5 4 4
10 8 21 20 20 18 17 20 22 20 18 17 15 14 13 13 13 13 12 12 11 11 10 9 8 8 7 5 5 4 2 1 1 0 1 1 2 3 5 5 6 6 5
8 13 16 20 20 17 16 18 19 21 21 20 17 16 13 12 13 12 12 11 10 10 10 8 8 7 7 5 5 4 3 3 3 4 6 6 7 7 8 9 9 8 7
11 3 7 10 17 18 16 18 19 18 20 22 21 18 15 13 13 13 12 12 11 12 11 10 9 7 6 5 4 4 3 4 4 5 5 8 8 9 10 9 10 10 7
13 14 12 13 10 15 19 19 19 18 17 19 21 20 19 16 15 13 14 12 12 11 12 11 10 9 8 7 5 5 4 5 7 7 8 9 8 10 10 10 8 9 9
22 18 16 17 20 15 18 19 19 17 16 17 18 19 19 19 18 16 15 14 13 13 12 13 11 10 9 8 6 6 5 7 9 10 13 11 12 11 11 9 10 9 9
33 30 29 22 24 21 18 12 13 15 14 15 17 18 20 22 20 19 17 15 13 14 15 14 13 11 10 8 8 8 8 10 11 12 13 16 14 14 13 11 8 7 8
32 34 33 30 24 21 14 11 19 19 17 13 14 16 17 26 26 23 20 17 15 16 15 15 14 13 12 7 7 9 11 12 12 15 18 19 17 14 10 7 8 9 9
38 29 28 30 25 19 19 16 22 22 26 21 21 23 20 24 26 26 25 21 19 18 18 17 16 14 11 10 7 8 10 16 14 9 9 9 9 8 6 7 10 11 10
16 27 26 27 27 21 24 21 25 19 21 25 23 29 28 31 32 28 27 25 24 21 19 20 17 13 10 10 3 4 3 5 3 1 4 4 3 4 6 9 10 10 9
12 19 27 35 32 29 29 26 21 18 16 19 22 26 32 35 27 28 29 28 25 25 24 22 19 17 11 7 7 4 2 2 3 4 2 3 3 5 7 10 10 10 9
13 9 13 24 26 30 29 30 25 24 15 22 12 8 16 17 16 20 24 27 25 25 23 18 11 11 11 6 7 9 15 9 3 3 2 3 5 7 8 9 10 11 10
2 5 8 9 8 15 23 27 27 23 27 23 18 16 21 16 18 16 20 20 20 16 11 9 7 3 7 10 10 8 7 6 6 7 5 4 6 10 11 11 11 12 11
9 7 4 0 0 1 6 13 17 18 22 25 25 24 25 27 19 14 14 14 14 14 12 10 11 8 10 12 13 11 8 3 4 7 7 11 9 7 12 13 14 14 13

GFSSE_925_spd_078.txt.gz
Wind_Speed
18 23 26 24 22 19 17 16 14 14 14 18 19 20 21 20 19 20 19 18 20 19 19 18 17 16 16 17 18 17 17 16 15 15 15 14 13 13 15 18 15 13 13
23 25 28 25 22 19 19 17 16 15 15 17 21 21 21 21 20 21 19 19 20 20 19 18 18 16 16 17 17 16 15 15 15 17 18 17 15 14 12 12 14 12 14
24 25 25 25 22 19 21 19 17 16 15 20 23 23 22 22 22 19 19 19 20 20 19 18 17 16 15 17 16 14 14 14 16 19 17 14 14 14 14 14 11 12 12
24 24 24 24 22 20 22 19 18 16 13 22 25 24 25 25 22 20 19 18 19 19 18 16 15 15 16 16 14 12 13 14 15 15 12 13 13 14 14 14 14 13 12
23 23 23 24 22 20 22 20 18 16 13 19 25 27 27 24 22 21 20 20 19 18 17 16 16 15 15 15 13 11 11 12 15 12 11 11 11 12 13 13 12 13 13
21 20 21 24 22 20 23 21 18 16 15 17 21 25 25 23 20 20 20 22 20 18 16 16 17 18 15 13 11 10 10 10 12 9 10 11 10 11 11 12 12 12 12
20 20 20 23 23 22 22 21 17 15 18 16 19 23 22 20 19 19 18 21 19 16 15 15 15 14 14 12 10 9 9 10 7 8 8 8 8 9 9 10 11 11 11
19 19 20 21 22 24 23 20 17 16 18 18 17 19 21 19 18 18 16 16 16 15 14 14 13 13 11 10 9 7 7 8 7 7 6 6 7 6 7 8 9 10 9
17 18 19 20 19 24 23 20 16 17 18 19 17 16 17 16 17 17 16 15 15 15 14 13 12 11 11 10 8 7 5 7 5 5 5 4 6 3 4 6 6 7 8
15 18 18 19 20 20 21 19 16 16 20 19 16 15 14 16 16 16 15 15 15 15 14 12 11 10 10 9 7 6 5 6 4 4 4 3 5 2 3 1 4 5 7
21 18 19 20 20 20 20 20 17 16 19 21 19 19 17 14 14 14 14 14 14 13 12 11 10 10 8 7 7 5 4 3 4 3 3 2 3 3 3 4 4 3 5
26 18 19 20 20 20 19 21 18 17 15 16 16 18 15 14 14 12 13 14 13 12 11 11 10 9 8 5 5 5 4 4 3 3 3 3 3 3 1 2 3 3 3
17 28 20 19 19 19 19 18 21 19 16 14 15 16 14 13 12 12 10 10 9 10 8 8 8 7 7 6 6 6 5 5 4 3 3 2 2 2 2 3 3 2 4
7 23 12 21 19 18 18 18 16 18 16 14 15 15 14 12 13 12 11 11 10 9 9 9 8 8 7 6 6 6 5 4 4 4 4 3 3 4 6 7 7 6 5
6 15 16 24 19 18 18 18 16 15 17 14 14 14 12 11 11 11 10 10 10 10 10 9 9 9 8 7 7 7 6 6 5 5 5 7 7 8 7 8 10 8 7
26 9 15 13 21 18 17 18 18 16 15 15 15 13 11 10 10 10 10 10 10 10 10 10 9 9 9 8 8 7 7 6 6 6 5 7 7 7 8 7 9 10 9
26 18 7 8 5 17 14 14 15 15 16 14 14 13 12 10 9 9 10 10 10 10 11 11 11 10 9 9 8 8 7 7 7 7 8 8 8 10 9 9 9 9 9
19 23 18 12 8 11 12 14 14 14 14 14 13 13 13 12 11 11 11 11 10 11 11 12 11 11 10 10 9 8 7 7 8 8 10 11 10 11 12 12 9 10 9
20 26 17 13 13 12 9 12 17 16 15 14 14 14 15 15 14 13 13 13 12 13 13 13 13 13 12 10 9 8 6 9 10 9 11 11 13 12 12 12 11 9 8
18 20 17 18 20 17 14 12 15 17 14 10 10 12 13 13 15 15 15 14 14 14 14 15 15 14 13 12 9 9 10 11 9 10 11 11 9 8 7 6 4 5 8
19 22 19 19 16 10 10 15 17 18 15 13 11 9 11 12 13 15 17 16 16 17 18 17 17 16 14 12 8 10 11 10 10 6 5 5 5 4 3 3 5 6 7
19 24 24 23 22 15 16 12 13 12 13 10 6 10 15 14 16 17 17 23 26 20 19 19 19 17 16 15 9 3 6 5 4 3 3 4 2 2 2 3 5 6 5
16 18 27 25 32 30 26 20 13 8 8 4 10 11 13 16 17 19 19 24 26 29 23 22 24 22 16 13 15 6 4 4 3 5 4 4 4 4 4 4 5 5 5
20 25 30 28 27 32 34 24 20 15 13 15 20 23 24 13 14 12 14 20 25 29 33 23 21 20 15 13 9 10 9 7 4 4 5 5 5 5 5 5 6 6 8
6 9 12 17 26 29 30 31 28 24 25 19 14 20 25 18 15 12 15 20 20 22 22 26 14 10 7 8 6 3 3 4 9 8 6 6 5 8 8 8 7 8 11
9 9 6 8 5 6 15 21 26 21 21 27 29 26 20 19 18 14 20 22 18 16 18 16 13 9 6 6 6 10 11 6 9 8 6 10 9 9 9 9 10 10 11

GFSSE_925_spd_081.txt.gz
Wind_Speed
16 25 27 23 20 17 15 13 13 14 16 17 17 18 17 18 18 19 17 16 18 17 17 17 16 15 17 17 18 16 15 15 15 14 14 15 14 15 16 17 17 15 16
17 24 27 24 21 19 16 14 12 12 15 18 18 19 18 19 19 19 18 18 18 17 16 16 16 16 17 16 16 15 15 16 20 20 18 15 14 12 11 12 13 13 13
18 24 25 24 22 20 17 16 14 14 14 20 20 21 21 20 20 19 19 19 19 17 17 16 16 15 16 15 14 14 15 19 20 18 17 13 14 14 13 12 13 12 12
20 27 24 25 22 21 19 17 16 15 16 21 22 23 22 22 21 19 19 19 19 18 17 16 15 14 16 13 13 13 15 17 15 11 11 11 12 13 13 13 13 13 12
16 22 24 25 21 21 20 18 16 14 15 21 22 23 23 23 21 20 19 20 18 17 16 14 14 15 15 11 11 12 14 16 15 12 10 10 11 12 12 12 12 12 12
13 18 22 24 21 20 21 18 16 14 13 22 23 24 24 23 21 20 21 19 18 16 15 16 14 13 14 11 10 10 12 13 11 9 10 10 11 11 11 12 12 12 12
16 17 19 23 20 19 21 19 17 14 14 20 22 24 23 23 20 20 22 20 18 16 15 16 17 15 12 11 10 9 10 10 7 7 8 9 9 9 9 10 11 11 11
17 16 17 19 20 19 20 20 17 16 15 18 22 23 23 21 19 18 21 20 17 16 15 14 14 13 12 10 9 9 9 10 6 6 7 7 8 7 7 7 8 9 8
7 12 16 16 16 20 20 20 16 16 17 17 19 20 23 20 18 16 16 16 15 15 14 13 12 11 10 9 7 7 8 8 5 5 5 5 6 4 4 6 5 6 7
18 8 10 14 15 17 17 18 16 17 20 19 19 20 18 17 17 16 16 14 15 15 13 12 11 10 9 7 6 5 6 8 4 5 4 3 4 3 2 1 2 4 5
22 20 9 15 17 19 19 17 16 17 21 20 18 18 16 15 15 15 14 15 14 14 12 11 10 9 8 6 5 5 5 2 4 3 3 3 4 4 2 2 2 1 4
20 40 35 22 20 22 20 20 17 16 17 18 16 16 15 14 15 15 14 14 13 13 12 11 10 9 7 5 4 4 2 3 3 3 4 3 3 3 1 0 1 2 3
18 25 31 37 36 26 24 23 21 18 17 17 18 18 17 17 14 12 11 12 11 12 9 10 9 8 8 7 6 6 5 4 4 4 4 4 4 3 3 4 5 4 4
22 26 26 36 44 31 22 27 22 21 19 18 18 19 17 16 15 14 13 13 12 11 10 10 9 9 8 8 7 6 6 5 4 4 6 4 4 5 6 7 8 8 8
22 22 23 29 34 26 27 27 24 18 20 17 18 18 16 14 15 14 12 12 12 11 11 10 10 10 10 9 9 8 7 7 6 6 5 5 6 7 8 8 9 10 9
20 22 20 21 27 23 25 25 24 20 18 20 17 17 15 14 14 13 12 11 10 10 11 11 11 10 10 10 9 9 8 7 7 6 6 5 7 8 7 8 8 10 10
24 26 22 12 14 21 18 18 19 20 19 16 16 16 14 12 12 12 11 11 11 11 11 11 11 11 11 11 10 10 9 9 8 8 8 7 8 9 10 9 10 8 8
18 18 13 8 8 3 15 15 14 14 15 17 18 17 16 13 12 12 11 12 12 11 11 12 12 12 12 12 11 12 9 9 9 8 8 7 8 9 9 11 9 10 9
15 15 13 16 14 8 10 13 14 14 14 14 13 14 15 14 13 11 12 11 11 11 11 12 13 14 13 13 13 11 9 7 8 9 8 8 9 9 10 10 10 11 8
15 18 18 22 24 17 6 10 14 16 15 13 14 13 13 14 13 12 11 11 11 13 13 14 14 15 15 15 14 12 6 7 14 8 9 8 6 5 5 6 6 3 8
14 20 19 22 22 17 11 14 14 19 17 14 12 12 11 11 11 12 12 12 9 12 14 16 17 17 16 15 11 9 13 15 14 7 6 6 5 3 3 2 4 3 8
5 16 17 15 17 11 8 11 7 8 9 10 7 6 4 5 6 9 11 10 14 15 16 15 19 19 19 20 11 10 4 11 8 7 7 5 4 3 3 4 6 7 6
7 11 14 12 9 11 10 7 6 10 10 8 8 6 6 4 7 9 14 14 14 16 18 22 24 23 19 22 23 9 4 4 6 10 7 5 5 6 5 5 6 8 8
5 4 5 12 15 11 17 14 12 11 9 7 8 8 10 9 10 8 9 15 16 15 16 21 23 32 27 19 19 21 12 2 1 2 7 7 5 7 7 7 7 8 9
6 14 14 17 21 27 28 29 23 20 18 17 14 16 9 11 13 12 12 15 16 12 11 17 12 17 16 17 10 6 5 4 3 3 4 5 6 9 9 6 8 9 9
3 6 14 17 17 18 23 29 32 30 25 23 26 19 17 13 15 14 10 15 28 18 12 11 9 16 15 9 7 3 1 3 2 5 4 8 6 8 9 9 10 9 8

GFSSE_925_spd_084.txt.gz
Wind_Speed
22 28 24 21 20 19 18 18 16 17 16 17 17 16 16 16 17 16 17 18 19 18 16 15 15 17 19 17 15 15 16 17 16 15 15 16 16 16 17 16 15 15 16
27 27 24 21 19 18 17 16 16 16 18 17 18 18 18 18 19 17 17 18 18 18 17 17 15 16 17 15 14 16 19 22 22 21 17 16 14 13 12 12 13 13 13
23 26 26 21 20 18 17 14 14 14 17 19 19 20 19 19 19 18 18 18 18 17 17 17 18 15 14 14 15 18 20 20 19 20 17 16 17 15 15 14 14 13 12
25 25 24 22 19 17 16 15 14 15 16 20 20 22 21 21 19 19 19 20 19 19 17 16 16 15 13 14 15 19 19 16 12 14 15 12 14 14 14 14 14 13 13
26 23 23 22 20 18 16 15 15 13 15 21 21 22 22 23 20 20 20 21 19 19 17 16 16 15 11 13 14 17 19 16 16 16 13 11 12 13 13 12 12 13 13
19 21 22 22 19 19 16 15 14 13 16 23 21 23 23 23 21 21 23 20 19 18 16 15 16 16 11 11 13 16 15 14 15 9 9 8 13 10 11 12 12 11 11
13 16 19 20 19 18 16 15 15 12 15 22 22 23 24 24 22 21 23 20 19 17 18 15 14 14 11 9 10 13 13 13 13 10 7 8 10 9 9 10 10 10 10
13 14 16 18 17 16 16 15 14 13 14 22 21 22 24 24 22 22 23 21 19 17 17 17 16 14 11 9 9 10 12 11 11 8 6 4 9 8 7 8 9 9 9
11 14 13 18 15 14 15 14 13 14 13 20 22 24 26 22 22 21 22 20 17 17 16 15 14 12 11 9 8 8 9 9 9 7 3 4 6 5 5 6 6 7 7
14 16 16 3 11 13 15 15 14 14 14 20 25 26 24 22 20 21 20 19 17 16 16 14 13 11 10 8 7 6 9 8 8 7 4 1 4 4 3 2 4 5 6
20 13 3 25 21 19 11 15 16 16 18 22 24 26 23 21 19 18 19 19 17 16 14 13 12 10 9 8 6 6 8 5 5 4 5 1 2 4 3 3 3 3 6
9 21 34 33 36 36 31 20 19 19 22 22 25 24 21 20 19 18 17 18 17 16 14 12 11 10 9 6 4 5 5 4 5 4 4 2 3 3 2 0 1 2 3
11 8 21 26 21 33 33 20 23 23 25 23 24 22 17 19 21 22 20 18 18 16 14 12 11 10 9 8 6 4 2 5 6 7 5 3 4 3 3 3 4 3 4
19 10 13 20 17 27 28 31 27 28 28 28 25 23 22 23 24 18 18 17 16 16 12 11 9 9 8 6 9 6 9 7 5 9 6 6 4 4 5 6 7 8 7
21 17 12 15 12 19 21 31 31 29 29 28 27 26 23 26 23 19 16 16 15 12 14 12 12 9 10 10 10 10 10 9 9 9 8 8 5 5 6 6 7 8 10
20 22 16 22 18 8 16 16 37 29 28 26 26 24 24 22 25 18 17 17 17 14 13 14 12 11 12 12 11 10 10 10 9 8 8 7 7 5 5 6 5 7 8
21 17 15 11 6 5 12 18 30 27 30 26 25 20 19 19 23 20 19 18 17 15 14 13 13 12 12 12 12 13 14 12 13 9 9 9 8 7 7 5 5 7 6
18 14 16 8 5 5 7 12 21 24 24 25 25 24 21 22 21 20 17 16 15 15 13 13 14 12 12 12 12 13 13 13 11 8 9 8 4 4 4 4 7 7 8
15 15 13 11 10 9 17 10 14 20 22 21 23 25 21 18 18 17 15 14 13 14 12 12 12 13 13 14 15 15 17 15 11 9 11 12 6 5 6 7 7 8 9
13 14 15 16 19 24 23 17 20 14 15 22 21 21 22 19 18 16 14 13 10 13 12 11 12 13 14 15 16 19 7 11 10 10 9 7 6 9 8 7 8 6 6
12 14 17 19 19 19 17 25 19 20 20 18 19 19 17 16 15 13 11 13 12 10 12 12 14 14 16 17 12 14 14 11 15 16 10 7 4 6 6 4 6 5 3
4 9 15 15 21 26 15 7 8 12 19 14 14 13 13 15 14 14 14 14 16 13 12 10 10 5 17 16 15 5 2 9 19 17 10 9 6 5 4 6 4 6 6
3 3 9 9 15 16 10 9 6 6 8 8 8 10 9 9 10 9 11 13 12 11 12 9 12 15 13 14 21 8 2 4 5 12 13 10 8 7 6 6 7 6 5
6 9 4 10 8 13 14 8 6 4 4 6 7 6 6 4 8 12 15 15 16 16 16 16 17 19 20 18 17 28 26 4 2 2 11 11 10 9 11 10 9 11 10
10 4 2 4 12 16 11 11 6 6 6 5 3 9 13 14 17 17 17 17 18 19 20 15 14 16 19 18 18 14 22 7 5 6 2 1 9 9 12 11 10 9 11
10 8 8 9 2 6 9 13 19 17 14 11 12 15 23 22 22 21 23 21 19 19 19 16 13 17 19 14 17 15 12 6 2 5 2 2 13 14 15 14 12 11 12

GFSSE_925_spd_087.txt.gz
Wind_Speed
22 29 25 22 21 19 19 19 19 18 18 18 17 15 15 16 17 17 18 19 20 17 17 18 19 19 17 16 16 16 16 16 15 17 17 16 16 17 17 15 15 16 15
27 29 25 23 21 18 17 18 18 19 18 18 18 17 17 17 17 19 19 20 19 18 17 18 19 17 16 16 17 19 21 21 20 16 15 15 14 13 12 12 13 13 13
28 29 26 22 21 18 16 15 17 18 18 19 19 19 19 18 18 19 19 20 20 19 19 16 17 16 15 17 21 21 21 19 19 18 15 17 16 15 15 14 14 13 12
26 29 26 22 20 18 15 14 14 16 19 19 20 20 20 20 19 19 20 21 22 20 20 18 15 14 16 19 21 20 17 13 11 14 13 14 16 14 14 13 13 13 13
25 29 27 22 19 17 14 13 12 14 17 20 21 21 21 22 20 20 22 22 19 20 20 20 15 13 15 18 19 17 15 16 16 16 11 12 14 13 13 13 13 13 13
27 26 26 23 18 17 15 12 12 12 15 21 21 23 22 22 22 21 25 22 21 21 19 19 16 13 14 16 18 16 16 16 14 9 10 11 12 12 12 12 12 12 13
20 20 23 21 18 16 14 11 12 11 14 21 22 24 23 24 23 23 24 22 21 19 18 19 19 13 13 15 17 15 14 12 11 11 8 10 11 10 11 11 11 11 12
20 18 16 16 15 14 10 10 11 11 11 21 22 24 24 24 24 26 23 22 21 20 17 16 17 13 12 13 15 15 14 13 12 7 6 8 10 9 9 9 10 10 10
18 19 18 16 12 7 6 7 9 10 9 20 22 23 24 25 25 25 22 21 20 22 21 19 17 15 12 12 13 14 12 12 10 6 5 6 7 7 7 7 7 8 8
18 21 19 17 20 14 8 2 8 10 10 18 21 23 26 26 26 25 24 21 20 21 22 20 17 14 12 11 11 12 11 11 9 6 6 3 5 5 4 5 5 6 7
14 18 19 14 11 9 12 20 17 12 12 15 24 27 29 28 26 25 25 22 20 21 20 18 16 14 12 11 10 11 13 10 10 7 3 2 4 5 4 4 4 3 4
18 19 16 18 18 19 20 25 27 18 16 17 27 30 30 28 27 26 25 22 19 19 19 17 15 13 12 9 8 9 10 9 9 9 6 2 4 5 4 2 1 1 1
10 13 18 25 18 26 21 25 34 30 22 21 27 32 30 29 26 26 25 24 21 19 19 17 16 14 12 11 9 9 8 7 10 8 7 4 5 5 4 3 3 3 4
12 16 13 11 12 19 24 22 29 27 24 29 29 26 30 26 28 28 28 26 23 22 19 17 15 13 13 10 8 7 7 7 9 12 8 6 6 6 6 5 6 7 7
17 15 10 11 12 10 17 18 21 27 27 37 35 30 27 29 30 30 27 25 24 22 19 16 14 13 13 11 10 11 10 9 9 10 10 6 6 7 6 7 7 8 8
14 18 14 12 14 14 17 14 19 26 33 40 38 34 30 30 31 28 26 26 24 22 19 16 14 13 13 12 12 12 12 13 12 12 10 10 8 8 6 7 6 6 8
19 22 20 16 14 15 21 15 15 26 37 39 39 37 36 35 31 27 24 26 24 20 19 17 15 15 14 15 14 13 13 13 12 13 11 10 11 9 9 7 6 6 7
22 22 21 18 16 16 19 23 8 23 30 37 36 34 34 37 33 26 24 24 23 20 20 18 17 15 15 15 14 15 16 17 15 14 14 12 13 10 10 9 8 9 8
21 20 18 19 18 12 18 26 19 28 29 32 36 32 30 30 32 28 25 24 23 21 19 18 16 16 13 13 13 13 14 16 15 13 12 11 12 10 9 8 8 8 10
19 15 14 20 19 22 17 16 30 31 27 28 34 31 29 29 29 27 23 22 21 21 20 18 16 14 14 14 14 15 15 13 16 12 11 11 10 8 7 8 9 9 7
15 19 13 16 22 20 18 18 19 23 24 27 31 37 33 30 29 26 24 21 18 22 21 18 15 15 13 13 10 10 16 15 15 15 18 14 12 10 8 9 8 8 6
8 9 18 15 18 20 17 17 13 19 17 21 27 23 26 29 29 26 25 22 18 19 20 18 17 14 14 14 11 3 2 7 14 20 14 16 15 11 8 9 9 9 9
10 7 5 18 21 21 14 13 12 13 19 21 20 15 14 21 22 23 21 23 22 20 21 19 14 13 10 9 14 8 3 4 3 10 18 17 15 11 9 10 11 11 11
8 10 10 7 12 22 13 11 8 9 12 12 14 14 12 15 10 6 9 14 17 18 19 18 19 18 17 21 15 16 12 6 2 3 5 15 14 11 10 13 12 12 12
15 13 11 13 6 19 14 9 8 6 10 11 8 7 8 8 7 10 12 16 19 18 18 22 23 26 31 28 24 14 18 18 14 3 1 3 8 7 6 13 15 14 14
20 14 5 9 10 11 7 0 5 6 6 9 10 8 9 15 17 14 17 17 15 17 20 21 20 19 21 24 24 24 21 12 12 8 3 6 4 8 14 14 19 15 16

GFSSE_925_spd_090.txt.gz
Wind_Speed
14 27 24 21 21 22 21 20 18 19 18 16 16 16 17 17 18 17 17 21 19 18 19 18 17 17 17 16 17 17 16 15 16 16 15 16 17 16 16 14 15 15 15
21 27 23 21 20 21 21 20 18 17 18 17 15 16 17 18 18 17 18 19 18 19 19 20 17 17 17 17 18 17 18 17 16 15 14 14 14 12 11 14 12 12 13
27 28 25 21 20 20 20 21 19 17 17 17 16 16 17 17 18 18 18 18 17 18 19 19 17 17 17 18 19 19 19 19 18 16 15 15 15 15 14 14 13 12 12
28 28 25 22 20 19 18 17 18 17 16 16 17 17 17 18 18 19 19 18 19 17 17 17 16 18 21 21 18 17 15 12 13 14 13 16 16 14 14 14 13 14 14
25 27 25 23 20 18 16 15 15 16 17 17 17 17 18 19 19 19 20 22 19 20 16 14 15 18 21 21 17 14 11 13 13 13 12 13 15 13 13 14 14 14 14
24 26 26 23 20 18 16 13 12 13 17 18 18 19 19 19 20 20 24 22 21 21 19 14 15 17 21 19 17 16 15 15 13 11 11 13 13 12 12 13 13 12 13
24 23 23 20 18 16 13 11 11 12 13 20 20 21 21 21 21 23 23 23 21 20 20 17 15 16 18 19 17 15 13 13 12 10 11 12 12 11 11 11 11 11 11
25 21 17 14 14 14 11 8 9 9 7 16 20 22 23 23 22 24 24 22 22 20 19 18 15 16 17 19 16 15 11 12 12 8 8 9 10 10 9 9 9 9 9
24 23 22 18 16 16 14 10 8 6 6 13 20 21 22 23 24 26 23 23 21 19 19 22 17 14 16 18 16 15 11 12 11 8 7 7 8 8 7 7 8 8 8
21 22 26 22 20 17 13 9 5 2 2 7 18 19 21 23 25 27 24 24 23 21 21 19 18 16 15 16 16 14 12 10 10 6 6 4 6 6 6 6 6 7 7
21 23 23 24 21 20 14 9 7 8 6 4 16 19 22 25 28 28 26 24 24 24 22 22 20 17 15 15 15 15 13 13 11 9 6 4 5 5 5 5 4 4 4
16 19 20 22 22 21 15 5 4 4 14 13 9 21 26 30 31 30 28 26 24 26 24 21 19 16 15 14 14 16 14 12 10 10 8 4 5 6 5 4 3 2 1
18 17 18 16 18 17 15 21 18 20 20 25 19 22 30 34 33 33 31 28 26 25 24 21 19 18 16 15 14 15 14 12 11 11 9 5 6 6 5 4 4 4 3
17 18 17 18 18 18 20 25 24 28 31 23 15 22 27 36 36 35 35 32 29 28 26 23 21 19 17 15 14 14 13 12 12 12 9 7 7 7 7 6 6 6 6
17 14 16 17 17 15 16 19 21 28 28 22 18 22 31 23 39 36 36 33 30 28 26 24 21 20 19 18 15 14 13 12 12 13 14 11 9 7 8 8 8 8 8
17 15 15 17 17 15 16 17 20 20 23 18 29 28 34 32 30 35 35 35 32 30 27 24 23 21 19 18 15 15 14 13 13 14 14 16 8 11 9 8 8 7 7
22 16 21 20 15 14 16 19 21 19 18 23 32 35 39 38 30 33 34 34 33 31 26 23 21 19 18 18 17 16 16 14 15 16 15 16 13 13 11 10 10 9 8
16 21 20 25 19 15 19 23 26 25 28 31 35 37 42 38 31 32 34 34 31 30 27 24 22 21 20 19 19 18 18 16 17 17 18 15 12 14 14 13 12 11 10
20 18 20 23 19 20 22 24 27 27 27 25 27 30 41 41 37 35 32 32 32 30 28 26 24 23 21 19 19 17 19 18 17 19 18 16 16 13 14 13 13 13 11
17 15 17 18 21 22 20 18 22 24 25 29 23 27 36 37 39 36 36 31 30 29 28 27 25 24 21 18 16 15 15 16 16 17 19 18 18 16 14 14 13 13 11
12 15 17 19 23 23 22 21 23 23 26 27 35 31 29 35 39 39 34 31 31 32 30 28 26 23 21 16 13 13 14 13 13 16 15 13 13 15 14 13 12 11 9
7 13 15 20 20 24 18 20 21 21 22 23 33 33 34 32 33 38 33 32 31 31 30 30 29 22 20 19 9 4 1 5 18 20 16 17 20 18 16 13 12 11 11
6 2 9 17 19 18 16 14 20 17 14 15 21 30 31 31 34 34 34 34 31 31 33 33 31 27 22 21 20 7 2 4 2 7 12 15 18 19 17 13 12 11 11
5 3 6 3 10 17 20 12 21 15 13 15 18 24 28 29 26 25 34 28 28 28 30 30 29 27 24 18 14 20 14 8 3 2 2 8 14 12 13 14 11 11 12
5 6 7 10 13 11 21 10 7 15 14 19 18 21 18 16 20 19 18 17 17 17 19 20 22 24 24 16 17 14 18 17 14 4 2 6 11 12 8 13 11 13 11
14 13 13 16 17 20 19 6 9 11 9 9 15 18 16 15 13 13 9 13 18 17 21 20 21 21 24 25 22 22 15 9 7 5 2 6 14 24 26 18 15 16 16

GFSSE_925_spd_093.txt.gz
Wind_Speed
12 24 22 20 19 19 21 19 19 18 16 16 16 16 16 16 15 15 16 18 17 16 14 15 15 15 14 15 15 15 15 15 13 14 15 16 15 14 14 15 14 15 16
15 26 22 19 18 18 19 18 18 18 17 16 16 15 15 16 15 16 17 17 17 18 17 14 15 15 16 16 15 14 15 15 15 14 14 13 12 12 13 13 13 13 12
16 26 23 20 17 16 17 17 17 17 17 15 16 15 15 15 15 17 17 18 19 17 18 14 15 16 17 18 17 17 16 15 14 13 12 13 15 13 14 13 12 12 12
22 28 26 23 20 19 19 17 16 16 16 16 15 16 16 17 16 16 17 17 17 18 18 16 15 16 18 18 18 16 15 14 13 13 14 15 14 13 12 12 12 13 13
26 27 25 23 21 20 19 17 15 15 15 16 16 16 16 17 18 17 17 19 17 18 17 16 16 18 18 17 14 11 11 12 11 11 12 13 13 12 11 12 12 12 13
23 25 24 22 21 19 17 16 15 15 15 15 16 16 17 17 18 18 19 22 19 14 14 15 18 20 20 16 12 11 13 12 11 10 11 12 13 11 10 11 11 11 12
24 25 24 21 19 17 15 12 12 12 15 15 17 17 17 18 18 18 21 22 21 19 15 15 18 21 19 17 14 12 14 12 10 9 10 11 11 10 10 9 10 10 10
21 22 22 20 18 17 15 11 10 11 11 15 18 19 20 20 20 19 24 23 21 22 18 16 17 20 19 16 13 12 12 11 10 9 9 9 9 8 8 8 8 9 9
19 22 22 22 21 20 17 15 13 11 8 10 18 20 21 20 21 22 23 21 23 22 20 16 17 18 20 18 14 12 11 12 9 7 8 7 7 7 7 7 7 7 7
17 22 23 22 21 21 18 13 9 7 4 3 13 18 19 20 22 22 26 22 21 21 22 20 17 18 19 19 16 13 12 13 10 8 6 6 7 6 6 5 6 5 6
16 19 23 23 25 20 17 13 10 7 4 4 6 13 17 20 23 26 28 25 23 23 22 23 19 18 18 18 18 15 12 12 12 9 7 6 6 6 5 5 4 4 3
15 19 20 22 24 24 20 12 12 9 6 6 9 9 15 21 25 30 29 26 25 23 23 22 21 19 18 18 18 17 14 13 12 11 8 7 7 6 6 4 4 3 2
11 16 19 20 24 24 23 18 13 11 5 4 9 7 13 21 28 32 30 29 27 27 25 24 24 21 20 19 19 19 17 15 13 12 10 8 7 8 6 5 5 4 4
21 18 17 19 20 23 21 20 18 17 19 17 18 15 12 22 29 32 33 32 31 30 29 27 26 23 21 19 18 19 19 16 14 13 12 11 9 9 8 7 6 6 6
21 22 22 22 22 23 24 25 23 25 27 29 28 23 12 22 29 31 34 34 34 32 30 30 27 25 23 21 19 19 19 17 16 16 15 13 11 10 8 8 8 7 8
22 22 21 23 23 23 24 21 21 21 23 24 29 27 26 24 29 25 33 38 36 33 34 32 30 27 24 22 20 18 19 17 16 16 17 17 17 15 12 10 9 8 8
25 25 23 25 23 24 22 20 20 18 19 23 26 31 31 26 33 36 25 33 31 34 36 33 30 25 24 22 22 20 19 19 17 17 18 18 20 19 14 13 12 11 9
28 31 26 25 26 26 25 21 21 20 19 23 27 30 34 30 32 38 37 29 32 29 37 33 30 27 26 25 24 22 20 20 18 19 20 20 20 22 17 18 14 14 12
25 28 26 26 28 26 23 20 21 19 23 27 31 35 31 30 36 38 34 30 29 35 36 35 32 31 27 25 23 22 21 21 20 20 21 21 21 19 18 18 16 16 14
21 23 23 23 23 24 23 22 21 17 21 28 35 37 38 35 38 37 37 29 36 38 37 39 35 30 28 26 21 21 21 21 21 22 21 21 23 23 19 19 18 17 16
13 16 17 16 18 21 22 23 22 24 21 25 29 26 30 34 34 38 37 35 32 34 40 39 33 30 29 23 17 17 18 18 18 20 19 20 23 22 20 19 18 16 15
4 4 9 15 14 15 20 24 22 20 22 20 28 32 25 27 29 37 35 38 40 37 36 37 34 26 28 24 12 4 2 7 19 20 17 18 19 21 21 21 18 16 14
5 4 6 11 14 18 22 23 22 23 25 21 24 33 33 30 27 29 33 36 36 38 37 36 35 33 25 26 22 7 2 4 2 11 21 20 21 23 23 21 19 16 14
6 3 7 8 10 17 20 22 21 21 21 20 24 31 34 29 23 24 30 29 31 35 35 35 36 35 24 22 25 21 8 3 3 1 5 17 22 26 26 25 22 19 16
9 9 7 7 12 9 12 15 10 18 27 21 16 16 28 29 22 16 22 26 24 27 29 35 32 31 26 18 22 17 25 18 11 3 3 4 16 28 31 29 26 23 22
14 16 15 14 17 19 17 15 8 13 5 10 5 6 21 23 19 17 16 12 9 7 8 18 21 21 23 25 18 17 14 8 11 6 3 3 7 16 27 27 26 25 23

GFSSE_925_spd_096.txt.gz
Wind_Speed
10 21 20 18 17 18 17 16 15 16 17 18 18 18 18 16 15 14 14 16 15 15 16 18 16 16 16 15 15 16 15 15 16 16 16 15 14 13 13 14 15 13 17
12 20 20 19 18 19 20 17 16 15 15 17 17 16 15 15 14 14 15 15 16 15 16 15 15 14 14 13 14 13 13 14 14 13 12 12 11 12 12 12 13 11 11
12 21 20 20 17 18 19 17 17 16 15 14 15 15 14 14 14 16 15 14 17 15 16 15 16 15 15 13 15 14 14 14 13 12 11 13 13 13 12 11 11 10 10
9 21 20 20 18 17 17 16 16 15 14 14 14 15 15 14 15 15 15 17 16 17 15 16 17 18 17 17 16 16 15 14 13 12 13 13 13 12 12 12 12 11 11
16 23 21 19 18 18 17 17 16 15 14 14 14 15 16 16 15 17 16 16 17 18 14 16 17 19 19 18 15 13 12 12 12 12 12 12 13 11 11 12 11 11 11
18 22 20 19 18 19 18 16 16 16 15 15 15 14 15 15 15 15 19 17 17 19 14 16 18 18 18 16 13 11 12 12 11 11 12 13 13 11 10 10 10 10 10
16 20 20 18 17 16 16 16 15 14 14 15 15 15 15 16 17 16 18 20 18 16 14 15 18 19 18 14 12 13 13 11 10 12 11 12 12 10 9 9 9 9 9
15 17 19 17 17 16 15 14 12 12 13 15 15 16 17 17 18 18 18 22 18 14 14 15 18 18 17 14 13 14 13 11 10 10 10 10 10 9 9 9 8 8 8
13 17 19 18 16 16 17 14 14 12 12 12 17 17 18 17 18 20 20 24 22 19 16 16 18 20 18 15 13 12 13 11 9 9 9 9 9 8 8 8 8 8 7
6 16 21 22 21 19 17 14 12 11 8 9 11 16 17 17 18 20 21 23 23 22 18 16 18 20 19 17 14 12 13 12 10 9 8 8 9 7 7 6 7 7 7
8 9 17 20 24 22 22 18 13 11 8 4 5 12 13 16 18 21 21 25 24 23 22 18 18 19 21 19 16 13 14 14 12 10 8 8 8 8 6 6 6 5 5
12 10 14 18 21 22 22 20 18 14 10 5 2 10 11 12 18 21 23 26 24 23 24 23 20 19 20 21 19 17 15 15 14 12 10 8 8 9 8 6 5 5 3
15 15 15 18 20 20 20 20 19 16 12 10 5 3 5 11 16 20 25 27 25 23 26 26 25 22 22 22 21 20 17 15 15 14 12 10 10 11 10 8 7 5 4
19 20 20 20 22 22 20 20 18 19 17 14 12 10 10 12 17 20 26 29 29 26 26 28 28 26 24 23 22 22 20 18 16 14 14 13 12 12 11 9 8 7 6
18 23 22 22 23 21 23 22 22 21 20 18 19 19 18 17 21 24 29 31 32 31 31 28 27 27 26 24 23 23 22 21 19 17 16 15 14 13 12 11 9 8 7
16 20 23 26 25 24 26 28 27 25 26 26 25 27 24 23 24 27 33 36 36 36 35 33 31 28 27 26 24 23 22 22 20 19 18 18 17 17 16 12 10 9 9
25 19 21 26 29 31 31 31 29 26 23 22 22 23 24 26 26 28 34 40 38 38 39 34 31 29 28 26 26 24 23 22 22 20 19 20 21 20 19 17 14 11 10
29 25 23 23 27 27 27 26 26 24 22 22 22 24 25 24 27 28 30 32 36 40 36 30 26 29 29 29 29 28 25 23 23 22 20 21 22 23 24 22 19 16 13
27 27 27 22 26 26 26 25 24 23 23 24 22 27 28 27 25 28 32 31 36 41 33 27 32 34 30 33 30 29 26 25 24 23 23 24 25 23 23 24 23 20 18
26 25 23 18 19 20 20 22 23 23 25 25 26 29 33 33 30 30 33 34 34 36 36 29 31 34 32 31 30 28 26 26 24 25 25 24 25 24 24 23 23 24 21
19 14 13 13 14 15 16 18 16 21 18 26 30 30 31 33 30 34 35 35 39 40 37 40 31 29 30 32 22 25 25 26 25 27 26 26 26 24 25 26 24 26 22
6 5 6 6 8 12 15 19 18 20 20 23 25 27 30 29 23 31 36 36 40 35 35 34 31 26 28 28 17 6 3 10 22 27 25 25 25 25 25 26 27 27 25
9 6 5 1 5 10 14 17 18 18 20 22 26 28 30 30 25 21 27 38 40 37 35 35 35 35 27 30 31 10 2 5 3 14 28 26 24 23 24 26 27 28 25
13 8 6 4 6 9 13 15 15 14 16 24 29 27 25 28 29 29 30 25 20 31 32 37 34 34 26 18 26 33 14 4 3 1 8 21 25 24 24 26 27 29 27
16 9 8 7 8 6 7 9 13 6 14 26 25 24 25 28 31 34 30 26 26 27 25 28 35 36 37 28 24 22 27 13 9 2 2 3 16 26 29 31 32 31 27
17 15 14 15 14 13 16 13 11 8 11 21 11 3 12 15 20 14 16 17 14 16 12 19 30 31 33 32 27 27 23 12 9 6 3 5 6 13 27 30 30 31 31

GFSSE_925_spd_099.txt.gz
Wind_Speed
6 18 20 20 20 17 16 16 16 14 15 15 15 16 16 15 14 12 13 15 15 11 16 13 16 15 17 16 16 15 16 17 17 17 16 13 12 13 15 16 13 16 17
7 19 18 18 19 18 16 16 15 16 14 16 15 14 13 13 14 12 13 14 16 16 17 15 15 14 14 14 14 13 15 14 14 14 12 12 12 12 11 13 13 11 13
7 16 17 18 18 19 18 16 15 15 16 16 15 14 12 12 12 13 15 15 16 16 16 14 13 14 13 14 14 13 13 13 13 11 11 11 11 11 11 10 10 11 11
5 15 16 17 17 19 20 18 17 15 14 14 15 14 13 13 13 14 14 15 16 17 15 16 15 16 13 14 14 14 13 12 11 12 11 11 11 12 11 11 11 11 11
10 17 17 16 16 17 18 18 18 17 15 13 15 15 15 13 14 14 14 17 15 17 16 17 18 19 15 15 15 14 14 12 12 11 11 11 11 11 11 11 11 11 12
8 16 18 17 15 15 17 18 17 16 16 15 14 14 14 15 15 16 16 15 17 18 14 17 18 17 17 16 13 12 12 12 11 11 11 11 10 10 10 11 11 11 11
7 16 16 15 14 14 15 15 16 16 16 16 15 14 15 14 15 16 17 15 18 17 13 16 18 18 17 14 12 12 12 11 12 12 10 10 9 10 9 9 9 10 10
6 13 15 14 14 15 15 15 14 15 14 14 15 15 15 15 15 16 15 17 18 18 14 15 18 17 17 14 12 14 12 11 12 11 11 10 9 8 8 8 8 8 9
7 9 16 17 15 14 14 14 13 12 13 15 15 15 15 15 15 17 17 20 19 16 15 14 18 18 17 14 14 14 13 11 11 11 11 9 10 8 8 8 8 8 8
10 5 14 18 19 18 16 15 14 13 12 12 13 16 16 15 14 15 17 20 19 16 14 13 18 19 17 15 14 14 14 12 10 11 10 9 10 8 8 7 7 7 7
9 9 8 15 19 20 20 19 17 15 14 11 10 12 16 17 15 16 17 20 22 19 16 15 16 19 19 17 15 14 16 14 12 11 10 10 10 9 9 8 7 7 6
15 11 12 13 19 20 21 22 20 17 13 10 7 10 15 17 17 17 19 21 23 23 21 18 16 17 19 16 16 15 16 17 16 14 12 11 11 10 9 8 8 7 6
19 15 13 16 17 20 20 19 17 16 15 11 7 4 11 13 16 18 19 22 24 24 23 24 20 18 18 19 20 19 18 17 17 16 14 12 12 11 11 10 9 8 7
25 20 17 16 19 21 20 21 19 19 17 17 15 14 14 15 17 21 24 25 27 29 26 24 24 21 22 22 22 22 21 19 18 18 16 15 13 13 13 13 11 10 9
28 23 19 20 21 24 24 24 22 22 22 19 16 14 11 13 16 20 25 28 33 33 30 30 28 26 25 24 23 23 23 22 20 19 18 17 16 15 15 15 12 11 10
28 26 18 19 22 25 26 26 26 23 22 20 20 20 20 21 20 21 25 29 30 36 37 34 33 32 32 27 25 24 23 24 24 23 21 19 19 18 17 16 15 13 11
30 27 23 19 21 25 26 28 27 27 25 24 24 23 21 21 23 24 24 29 34 33 31 37 36 32 29 26 26 25 24 24 25 26 24 23 22 21 21 20 17 15 13
30 27 26 22 20 24 30 32 30 29 29 28 24 21 20 20 19 19 21 24 29 35 32 36 35 35 31 29 29 26 26 25 26 26 26 25 24 25 25 24 22 20 17
29 27 25 23 22 24 26 27 26 24 25 25 23 21 21 21 22 20 22 27 24 27 30 33 32 33 37 30 25 24 26 23 27 27 29 29 26 26 26 25 27 26 23
30 28 26 21 20 19 19 18 20 21 23 24 24 25 25 24 23 22 24 25 27 29 31 31 30 36 30 29 26 30 30 30 32 31 32 29 30 29 28 27 26 28 29
23 24 22 16 15 15 15 12 13 17 19 21 23 24 24 26 28 24 28 28 30 33 35 32 33 30 26 29 21 19 26 32 34 34 33 33 31 31 29 28 28 26 29
7 10 10 10 11 11 10 12 12 14 16 20 21 24 26 26 27 27 30 32 34 35 35 35 34 26 28 29 16 11 8 18 24 35 35 35 34 31 31 30 29 29 29
8 2 7 6 4 2 5 10 14 16 18 19 20 21 25 25 28 28 30 32 34 39 36 38 36 36 27 23 32 12 3 6 4 20 33 35 34 32 31 32 31 30 31
13 14 12 9 9 7 8 11 14 16 14 15 20 27 31 27 30 28 31 31 27 32 35 37 38 37 31 25 20 27 24 6 3 3 11 27 33 33 32 30 31 32 30
18 18 14 15 14 11 7 6 13 16 8 4 9 11 17 21 27 30 29 28 31 25 14 18 21 24 24 18 21 15 22 25 23 5 2 4 17 29 31 27 26 26 28
20 21 18 19 18 15 13 11 9 7 6 9 13 12 14 16 14 26 28 26 26 22 19 24 29 30 29 25 20 25 21 14 21 13 5 4 5 7 16 25 29 30 30

GFSSE_925_spd_102.txt.gz
Wind_Speed
4 9 15 15 15 15 17 16 13 14 14 15 14 13 12 12 11 11 13 13 14 13 13 13 12 11 15 14 14 12 11 13 15 15 12 13 13 13 12 14 13 14 13
4 10 17 17 15 15 16 17 15 15 15 14 13 13 12 11 11 11 11 12 11 12 12 12 14 14 14 12 10 12 13 13 13 11 9 10 11 10 11 12 11 11 11
4 10 14 17 18 16 15 15 16 15 14 14 13 13 11 11 10 10 11 12 12 14 15 14 13 12 11 11 11 11 11 12 11 8 11 7 7 8 8 8 9 9 9
10 9 13 16 17 17 16 15 15 16 15 15 14 12 12 10 11 11 13 14 13 14 15 13 14 12 11 11 11 11 10 10 10 10 7 7 7 8 8 9 9 9 9
8 9 11 15 16 18 18 17 16 14 14 15 14 14 12 11 11 11 12 14 14 14 14 14 14 16 12 11 10 11 11 10 10 9 7 7 7 7 7 8 8 8 9
6 6 10 13 14 16 17 18 17 16 14 13 13 13 13 13 13 13 13 14 14 15 14 15 16 15 13 13 12 10 10 10 9 7 7 8 6 7 7 7 7 8 8
6 4 8 11 12 12 14 15 16 17 16 15 14 14 14 14 14 15 14 14 15 16 13 13 17 15 14 13 10 9 9 10 8 7 6 6 7 8 7 7 7 7 7
10 6 6 10 11 12 12 13 14 14 14 13 13 14 15 14 15 14 15 14 16 17 13 12 15 15 15 12 10 10 9 9 8 7 7 6 7 7 7 7 6 6 6
9 6 4 10 11 12 12 14 14 14 13 13 13 15 14 14 14 14 14 16 16 18 14 13 14 15 15 12 11 12 11 9 7 7 7 6 9 8 7 7 7 6 6
9 8 6 7 11 12 12 16 15 15 15 16 16 15 15 15 14 14 16 15 17 18 16 14 15 16 16 13 12 13 12 10 7 8 7 7 9 8 8 7 7 6 5
12 10 9 10 8 11 12 13 16 15 15 13 13 12 16 14 15 15 15 17 19 19 17 15 14 17 17 14 13 13 14 11 9 9 8 11 10 9 8 8 8 7 7
16 15 10 10 14 10 10 11 13 14 15 11 12 12 14 15 16 16 15 18 19 20 18 16 15 16 17 14 13 15 14 13 12 10 10 12 12 10 10 9 9 8 7
17 16 15 12 13 17 12 12 16 19 16 15 12 12 14 12 14 15 15 16 18 22 20 19 16 16 17 18 17 15 15 15 14 12 12 13 14 13 13 12 11 10 10
19 18 14 13 14 17 18 14 14 15 17 17 15 14 13 13 11 14 14 16 19 21 25 22 20 20 19 20 19 18 17 15 15 14 13 16 16 15 15 15 14 13 12
20 17 15 13 15 16 21 15 15 15 15 14 12 11 11 10 12 14 13 15 18 20 23 27 24 21 24 21 22 21 20 18 17 15 14 17 19 18 17 18 18 17 15
22 22 17 14 13 16 20 22 16 15 15 14 13 11 10 12 12 15 18 22 21 20 23 25 25 24 26 24 23 22 21 19 19 18 17 15 19 21 21 20 18 19 18
24 23 20 17 15 16 18 18 16 15 15 15 14 13 14 14 15 15 16 18 20 26 25 25 25 26 24 25 24 23 20 20 20 20 20 18 17 21 24 24 23 21 20
25 23 22 19 16 16 18 18 16 15 16 16 16 17 16 16 15 15 17 19 19 21 25 26 26 24 22 30 31 25 21 20 21 21 20 20 19 18 20 26 26 25 22
22 22 20 20 19 17 17 17 18 17 17 17 17 18 17 16 17 17 18 19 19 22 25 28 30 28 27 28 29 28 29 23 21 21 21 20 22 20 19 22 28 29 28
21 20 19 20 19 17 16 14 15 15 15 15 16 17 17 18 18 18 20 22 21 22 24 27 29 28 28 27 27 27 26 25 23 24 19 19 23 22 23 22 22 29 32
16 18 18 17 19 16 14 12 13 14 13 14 15 16 18 19 21 21 22 23 23 25 27 26 28 28 29 27 19 20 24 26 27 28 24 24 26 24 25 24 25 25 25
14 10 10 12 13 14 12 10 7 6 8 11 11 14 17 20 22 23 23 24 25 27 29 29 29 28 31 29 20 17 10 24 25 26 22 21 25 27 29 27 26 28 30
16 16 8 3 6 7 7 7 5 6 8 11 13 16 20 23 23 26 28 27 27 28 29 28 30 33 29 28 31 15 4 8 16 26 28 28 28 33 29 28 29 34 31
17 15 12 10 9 5 6 4 5 9 11 12 13 16 22 24 26 28 30 31 32 30 30 30 33 39 38 27 25 33 25 11 6 5 10 17 27 29 30 30 31 33 32
13 14 11 13 16 16 13 11 8 8 9 8 4 6 9 11 15 22 25 28 30 30 28 30 29 29 30 26 25 22 32 16 13 1 6 7 11 16 27 24 24 29 32
16 17 18 18 21 18 18 18 15 15 9 5 6 7 9 10 16 16 16 26 30 29 28 29 29 33 29 25 20 21 21 20 14 8 4 5 7 22 14 22 28 29 26

GFSSE_925_spd_105.txt.gz
Wind_Speed
5 6 11 11 11 11 11 9 10 12 12 12 12 11 10 9 8 7 9 8 10 10 9 9 8 8 10 9 8 6 9 13 13 11 10 11 10 10 11 11 12 12 11
9 4 12 13 13 12 12 10 11 12 13 13 12 10 9 8 7 8 9 9 9 10 11 9 8 11 11 10 8 9 10 11 10 7 7 7 8 7 8 10 11 11 11
11 4 10 13 12 12 13 12 12 13 12 10 9 9 8 9 7 7 8 9 8 10 9 11 9 11 10 6 7 8 8 8 7 8 10 5 4 5 4 5 6 6 7
10 6 8 14 14 13 12 12 12 12 12 12 10 9 9 8 8 7 8 9 7 8 10 12 10 8 7 7 8 7 6 6 6 8 4 5 5 6 6 6 7 7 7
10 7 5 11 13 14 12 12 12 12 12 11 11 9 9 7 8 8 9 10 10 10 10 10 11 10 10 8 7 7 6 6 7 4 3 4 4 5 6 6 6 7 7
12 9 4 10 11 12 13 13 13 13 12 12 11 10 9 10 9 9 9 9 12 10 12 11 12 12 9 9 8 6 6 6 6 3 3 4 4 5 6 6 5 6 7
12 8 6 6 10 10 12 14 14 12 12 11 10 11 11 11 11 10 11 10 14 12 12 11 11 12 10 10 8 7 6 7 4 3 4 3 4 6 5 5 5 5 5
11 10 6 4 7 9 11 13 14 14 14 13 13 12 13 12 12 11 11 12 14 14 14 11 12 13 12 11 9 8 7 7 4 5 4 3 6 6 5 4 4 4 4
12 11 8 6 8 11 11 12 14 16 15 15 14 14 14 14 13 13 12 13 14 15 15 12 12 13 14 12 10 9 9 8 8 6 6 6 6 6 5 5 4 4 4
12 11 10 9 5 10 11 15 16 16 15 14 14 13 15 15 15 15 14 15 14 16 16 14 12 13 14 13 11 11 11 9 9 7 7 6 7 8 7 6 6 5 4
12 11 12 10 10 8 11 12 14 15 15 15 14 14 15 14 13 14 14 15 16 18 18 16 14 15 15 15 13 12 13 11 10 10 10 12 10 8 8 8 8 7 6
14 14 11 11 12 10 9 9 11 12 12 13 13 11 12 12 13 16 16 17 19 18 20 19 17 15 18 14 15 16 14 13 14 12 11 13 12 11 10 10 10 9 9
16 17 14 12 10 12 12 11 11 12 13 13 12 11 11 12 12 13 14 14 16 18 18 19 17 17 17 18 19 16 16 16 17 14 14 15 15 15 14 13 12 12 11
19 18 16 13 12 13 13 17 14 14 14 15 15 13 14 12 14 12 11 15 16 18 20 22 22 20 20 20 20 19 18 18 17 15 15 17 17 17 16 16 15 14 14
21 19 17 15 14 13 16 16 19 16 15 13 12 13 14 10 13 14 15 15 11 17 19 22 23 23 23 24 23 22 21 20 18 17 15 16 17 19 19 17 18 17 17
22 21 19 19 18 15 16 17 22 17 16 15 14 13 13 10 9 8 11 14 18 14 18 20 22 22 24 26 26 24 23 21 21 19 18 15 17 20 22 21 20 19 19
22 22 23 21 20 19 17 20 21 25 16 15 15 14 14 14 13 13 14 14 16 16 21 19 21 21 25 24 23 24 25 25 23 22 20 19 17 19 23 24 24 23 21
23 24 23 22 20 19 19 18 19 22 22 17 16 15 16 16 15 14 16 16 16 17 19 22 23 23 26 23 25 24 22 24 25 24 23 22 21 19 18 22 27 27 24
19 22 22 21 20 20 20 19 21 20 19 16 17 18 18 17 18 17 17 18 16 18 19 20 22 22 22 22 22 23 26 25 26 26 26 24 23 23 21 19 20 26 28
20 20 22 21 20 20 20 19 18 18 19 17 18 18 17 17 17 17 17 18 19 19 20 20 24 24 24 23 23 27 27 29 29 25 25 25 24 26 25 23 18 20 27
17 20 19 19 20 19 19 19 18 18 18 17 15 14 14 14 16 18 19 20 21 22 24 24 25 26 26 25 20 24 26 29 29 32 25 26 24 26 26 26 24 22 21
19 18 20 19 17 18 19 14 14 15 16 13 10 10 11 13 14 17 20 22 24 24 25 28 28 27 26 24 18 19 7 15 26 32 34 34 33 29 30 26 19 25 24
18 18 18 16 13 6 8 12 13 9 6 4 8 9 11 12 17 20 23 27 28 27 28 28 30 30 26 27 27 15 4 7 9 26 35 35 34 31 29 29 29 29 25
18 17 16 17 14 12 7 2 4 4 6 4 6 8 10 7 13 17 23 25 30 32 32 32 32 30 27 25 24 32 36 9 4 3 24 33 34 31 29 29 27 27 19
18 15 13 13 15 13 9 11 12 14 12 8 5 5 6 8 11 12 15 20 30 32 35 34 31 28 27 26 28 21 28 35 25 1 4 7 18 28 28 28 22 20 23
17 17 15 11 13 15 16 19 21 16 13 14 16 13 11 10 13 16 17 19 18 19 29 30 30 30 29 30 28 27 21 12 11 9 4 3 4 7 12 14 16 18 29

GFSSE_925_spd_108.txt.gz
Wind_Speed
11 2 4 7 7 8 7 6 7 9 9 9 9 8 7 6 5 6 7 9 9 7 6 7 7 8 9 8 6 6 11 12 10 10 10 11 12 11 11 11 11 11 12
11 3 6 9 9 8 8 8 8 10 10 9 10 7 7 6 4 5 5 6 7 7 6 6 6 11 11 8 9 9 9 9 8 7 7 7 8 9 10 11 11 12 12
13 5 6 9 9 9 9 8 8 9 10 9 8 6 7 6 3 5 5 5 5 6 9 7 8 10 10 5 7 7 7 6 6 9 8 7 2 5 5 5 5 7 8
12 7 6 8 9 8 8 7 8 9 9 7 6 5 5 5 5 4 4 5 5 3 5 11 10 9 7 5 6 5 4 4 6 5 2 5 4 5 6 7 7 6 6
11 13 7 8 9 9 8 7 8 8 9 9 7 7 6 5 5 4 6 6 6 5 6 8 8 7 7 5 7 5 4 4 6 5 7 4 3 5 6 6 7 8 7
14 11 6 3 7 10 11 10 10 10 9 8 9 8 6 6 6 4 5 5 8 7 9 9 8 8 7 8 7 7 5 5 7 4 2 4 5 5 5 6 5 6 7
15 13 11 2 5 7 10 11 11 11 10 10 10 9 8 8 8 6 8 7 9 10 10 10 8 9 8 8 7 7 6 8 6 4 3 4 4 4 6 5 5 6 6
15 15 10 8 5 6 7 9 11 12 12 11 12 11 12 10 10 9 9 9 9 12 12 12 10 10 10 10 9 7 6 8 7 4 4 5 5 3 5 5 5 5 5
13 13 13 7 8 7 9 9 11 13 14 15 14 13 12 12 11 11 11 11 12 12 14 13 11 11 12 12 11 9 8 8 10 6 8 9 8 6 7 5 5 5 5
11 12 12 12 8 3 7 10 13 13 13 13 14 14 14 13 14 13 13 13 13 13 15 15 13 13 13 15 14 11 11 11 12 8 10 9 10 8 9 7 7 6 6
11 10 13 11 11 10 8 9 11 13 14 15 16 15 15 15 15 15 15 15 14 15 16 17 16 14 14 15 16 15 14 14 14 10 10 13 11 8 10 10 9 8 7
13 13 12 13 11 11 12 8 8 10 12 14 15 14 13 14 13 16 16 14 15 16 17 19 18 16 16 17 19 17 18 16 15 12 15 15 14 12 12 11 11 11 10
17 18 16 15 13 12 12 14 14 11 12 14 14 13 13 13 16 17 13 13 17 16 18 20 20 20 20 21 20 21 21 19 18 18 19 17 16 14 14 14 13 13 12
16 18 17 17 14 14 15 15 18 16 14 17 18 18 17 18 14 17 14 15 16 18 20 22 22 23 23 21 21 23 23 20 20 21 22 19 19 17 17 17 16 15 14
18 18 18 16 17 17 16 18 19 21 20 16 17 16 18 17 17 15 17 11 5 15 18 21 24 24 24 23 25 24 25 24 19 21 19 19 21 18 19 19 19 18 17
20 20 20 19 17 17 17 19 20 21 23 18 16 16 13 13 13 12 14 14 13 11 10 18 22 26 27 26 26 27 30 27 22 24 22 21 19 20 18 21 22 20 20
20 21 22 21 20 19 20 20 21 22 24 25 20 13 15 14 12 11 11 11 13 12 14 16 18 19 24 25 26 25 29 26 29 26 23 25 23 20 20 21 25 23 22
22 23 23 23 22 21 18 19 22 20 24 28 21 18 17 17 16 14 13 15 15 15 16 15 17 21 24 25 27 29 27 25 30 30 31 27 22 24 24 22 25 27 27
26 27 28 26 25 23 21 21 22 23 25 24 27 21 21 20 17 18 16 17 17 17 17 18 22 19 19 25 28 31 33 32 29 30 33 32 32 31 30 26 24 25 30
24 26 26 28 28 24 22 22 24 22 24 23 24 25 22 22 17 15 16 18 17 18 18 19 22 23 25 25 27 29 31 35 34 28 29 32 32 36 33 29 25 27 27
21 23 25 27 28 26 23 23 21 23 19 18 23 22 20 16 14 12 13 14 16 19 22 22 23 23 27 27 24 22 28 32 31 33 37 35 34 37 33 35 32 30 28
19 21 21 23 26 24 22 18 22 18 19 21 20 15 15 10 9 11 11 14 16 20 25 26 27 28 28 25 18 16 7 14 25 31 33 37 38 37 39 34 35 36 35
19 21 20 21 21 19 18 18 17 18 18 19 19 9 3 1 3 6 11 16 18 21 28 28 29 31 25 27 30 16 3 6 5 23 35 37 37 38 42 41 40 35 34
18 17 19 20 20 20 15 11 8 13 7 10 9 10 8 7 8 12 11 12 15 20 26 29 31 34 33 28 25 32 33 19 4 4 15 32 37 39 38 38 38 41 37
17 19 17 18 20 21 18 12 7 6 12 12 10 11 9 9 8 9 12 13 13 16 20 24 28 32 32 30 28 26 24 28 28 11 10 6 26 31 35 35 35 36 42
16 16 18 18 18 19 17 17 15 15 15 18 19 15 14 11 12 15 15 14 16 19 22 26 23 17 30 33 30 27 25 15 13 13 9 8 8 17 32 35 35 37 38

GFSSE_925_spd_111.txt.gz
Wind_Speed
15 3 3 6 4 5 6 4 5 6 7 8 8 6 6 6 6 7 8 8 9 8 8 8 8 9 9 9 8 9 12 11 10 10 10 11 12 13 12 12 12 13 15
14 8 4 7 6 5 6 4 4 5 6 7 8 5 6 5 3 6 6 7 7 7 7 6 7 9 9 10 9 10 11 10 9 8 7 7 9 10 10 11 13 12 11
13 11 3 6 6 6 6 5 5 5 6 6 6 5 6 6 1 3 4 5 4 5 6 6 9 11 8 9 9 8 8 8 9 10 8 6 3 5 4 4 5 7 8
10 11 5 6 6 5 5 6 6 7 6 6 4 4 4 4 3 2 2 4 4 3 9 8 10 10 7 5 9 8 7 7 7 5 3 3 4 4 5 5 5 6 6
13 12 5 3 5 5 4 5 6 7 7 7 6 5 5 4 4 4 3 5 5 4 5 10 9 7 6 4 8 7 7 8 8 4 5 10 2 4 6 7 7 7 7
12 11 10 2 4 6 7 6 6 7 8 8 9 8 7 7 6 5 3 5 7 6 7 8 8 7 7 6 6 6 7 9 9 5 8 6 2 3 6 7 6 7 7
12 11 9 5 3 5 8 9 9 8 9 9 9 9 8 8 7 7 7 7 6 9 9 10 8 8 9 8 8 7 7 10 9 6 7 6 4 3 5 6 6 6 6
13 11 8 8 4 2 5 6 9 11 11 12 11 11 11 10 10 10 9 8 9 10 11 12 11 9 10 9 10 8 8 10 9 8 9 8 7 5 7 7 6 7 6
11 12 11 8 5 3 4 7 9 11 13 14 13 12 12 12 12 11 11 11 11 10 12 13 13 11 11 11 11 10 9 10 12 8 5 8 8 7 8 8 7 7 7
11 11 13 11 8 4 4 7 8 10 11 13 14 14 14 14 15 14 13 14 13 13 15 16 16 14 12 13 14 13 11 11 14 13 10 13 11 9 9 9 9 9 8
13 12 14 13 13 10 9 7 9 10 12 14 15 15 15 16 17 17 17 17 17 16 16 17 17 16 14 14 16 16 14 15 14 16 11 13 13 12 11 11 11 10 10
15 18 17 17 16 14 12 10 9 9 10 11 15 17 17 17 18 18 18 16 17 18 18 17 18 17 16 17 17 17 19 17 17 19 16 15 15 15 13 13 13 12 12
16 16 18 18 17 15 14 14 14 13 11 11 14 14 15 16 15 17 20 23 21 19 20 20 20 20 20 20 19 20 21 20 19 20 21 17 20 18 16 15 15 15 14
17 17 17 18 17 17 16 16 16 17 17 15 17 19 18 16 18 15 15 12 21 24 23 22 22 22 23 22 22 22 22 22 23 23 23 20 25 22 20 19 18 17 17
18 19 19 18 18 18 19 18 18 19 20 22 19 20 20 24 22 20 19 15 9 14 21 20 22 23 24 25 24 24 26 25 27 25 25 23 28 25 24 21 22 21 20
21 23 23 21 19 20 21 21 21 20 21 23 24 18 23 20 22 20 18 17 17 13 10 16 22 22 22 25 26 26 26 27 29 29 24 26 25 29 26 24 24 24 24
20 22 23 23 21 21 22 21 20 22 21 22 26 26 18 24 18 16 15 14 14 11 9 11 13 17 21 25 28 28 28 30 27 29 32 29 29 27 26 27 25 27 27
23 24 25 25 24 23 21 22 22 24 23 24 25 29 27 21 23 17 16 15 13 13 13 13 14 15 18 20 22 24 26 28 30 30 27 27 34 33 32 30 29 29 31
23 22 24 25 25 27 24 22 22 23 26 25 25 28 32 26 22 22 21 19 16 15 15 14 16 19 21 23 24 25 29 32 34 34 34 39 36 33 33 33 32 31 31
23 23 21 23 25 28 26 24 21 23 24 27 27 28 28 31 26 26 22 18 12 12 13 14 16 18 22 25 26 29 32 35 34 34 35 35 37 38 38 35 34 35 35
23 22 21 21 23 25 24 24 26 23 24 25 24 24 27 26 31 19 13 6 6 6 9 13 16 19 22 23 24 23 27 32 34 33 34 37 39 41 42 42 42 42 40
21 20 22 20 23 23 24 25 21 21 18 18 21 19 12 7 8 6 6 4 5 9 12 14 17 20 24 23 18 17 10 19 25 31 33 33 38 38 39 44 41 41 41
18 19 19 20 21 21 21 20 20 17 18 15 17 6 9 8 10 9 7 8 10 12 13 14 15 18 21 24 24 16 4 7 3 17 28 32 33 35 37 40 46 48 45
17 16 15 17 19 20 18 20 13 11 10 9 7 9 11 14 15 14 13 8 10 11 13 14 15 17 20 24 25 27 34 28 10 12 18 28 34 36 36 36 39 43 46
13 14 16 16 17 20 18 19 19 14 9 9 10 11 13 15 15 16 15 13 9 10 12 13 16 16 15 20 22 28 28 28 29 12 14 13 23 29 36 36 37 36 38
12 13 14 15 16 19 21 17 17 18 16 14 14 16 20 16 16 14 12 13 12 12 13 12 14 14 16 22 25 23 20 19 17 15 12 15 17 26 29 36 36 39 41

GFSSE_925_spd_114.txt.gz
Wind_Speed
14 8 4 4 4 4 4 2 3 5 5 6 5 6 6 6 6 7 8 8 8 7 8 9 10 10 9 9 9 11 10 11 11 11 10 10 10 12 10 12 13 14 13
9 9 3 4 4 4 5 3 3 5 6 6 6 3 5 2 4 6 7 7 7 6 7 8 9 9 10 10 13 13 10 10 9 9 9 7 8 9 11 12 11 10 10
9 8 3 3 4 4 4 3 3 4 5 6 7 5 6 5 2 4 5 6 6 6 6 7 9 11 9 10 8 11 9 9 10 10 7 6 4 3 4 4 5 6 7
9 8 5 5 4 4 4 4 4 4 5 5 5 5 5 5 3 3 3 5 6 5 10 7 12 10 7 5 8 9 9 8 8 6 4 5 3 3 3 4 5 5 6
5 8 6 3 2 3 3 5 6 6 6 6 6 5 5 5 5 5 4 5 7 4 7 11 10 10 7 4 7 9 8 8 7 4 6 6 3 2 4 6 6 5 5
9 8 7 2 1 3 5 5 6 7 7 7 7 7 6 6 6 7 5 6 7 7 6 11 12 9 9 7 8 9 9 9 7 4 6 8 4 2 4 4 5 5 5
12 10 9 4 1 2 5 7 8 8 8 9 9 9 9 9 8 8 7 7 8 10 10 11 12 10 9 8 9 9 10 12 9 5 8 9 6 4 5 5 5 6 7
11 12 11 8 6 2 2 5 8 10 10 11 11 11 11 11 10 10 10 10 10 10 12 13 14 11 10 10 10 10 10 13 12 9 9 10 7 6 6 8 7 7 7
10 11 12 11 8 5 4 6 7 9 11 13 12 12 13 12 13 12 12 13 12 12 13 15 15 14 12 12 12 12 12 13 14 12 9 13 10 8 8 9 8 8 8
11 11 14 13 12 10 6 7 8 10 11 12 14 15 15 15 16 15 14 15 15 15 15 17 17 17 15 13 14 14 13 12 15 15 11 14 13 11 11 10 10 10 10
14 15 15 15 15 14 12 10 9 10 12 13 15 16 17 18 18 18 18 18 18 17 17 18 19 19 17 15 15 15 15 15 15 17 16 14 16 15 14 12 12 13 12
15 15 16 16 15 15 15 13 12 11 10 13 14 16 18 18 19 19 20 19 20 20 20 20 20 21 19 19 17 17 18 18 18 18 19 17 17 18 17 15 15 15 15
14 14 16 17 16 15 15 16 16 14 14 15 14 16 16 18 18 18 19 20 20 20 21 21 21 22 23 22 21 20 20 19 21 20 20 21 18 20 20 19 17 18 18
17 18 17 16 16 15 16 19 19 18 18 18 18 15 17 18 19 20 18 18 17 20 24 24 23 23 24 24 24 23 22 22 22 23 23 23 24 22 24 22 21 20 20
18 18 18 17 17 17 17 16 18 19 20 20 21 20 19 21 22 24 23 20 20 18 20 25 24 23 25 25 26 26 26 26 25 24 24 24 26 26 28 28 24 22 22
18 20 21 20 20 21 20 19 19 19 20 21 22 25 22 22 25 25 26 24 22 19 17 19 22 23 23 24 24 27 27 27 28 26 26 26 26 31 28 33 31 26 24
19 20 20 19 20 21 22 22 22 20 20 22 22 23 27 25 26 26 25 25 25 22 19 17 15 12 16 19 22 23 24 27 29 28 29 30 29 31 32 33 34 31 28
19 21 19 18 20 23 23 21 21 21 21 23 23 22 25 29 27 27 27 23 21 19 18 16 14 14 15 17 19 21 22 23 24 26 30 31 31 34 35 35 34 34 33
19 20 21 22 22 26 27 22 19 18 19 22 23 23 23 28 28 29 25 28 23 21 18 16 14 15 16 17 19 20 22 24 25 28 31 31 32 34 35 37 37 41 38
18 18 18 19 20 26 23 23 22 19 17 17 20 22 22 24 27 27 26 19 19 18 18 15 13 13 14 17 19 21 25 27 30 32 33 33 34 35 42 44 41 41 42
18 18 18 19 24 23 24 22 17 18 22 18 17 12 13 14 16 15 18 14 10 12 6 2 3 5 10 12 15 20 22 24 28 30 31 33 34 36 39 43 46 47 44
16 17 17 19 22 22 24 22 17 21 13 11 11 10 10 11 9 5 4 4 3 2 2 3 4 7 8 12 6 14 6 8 17 23 27 33 37 37 37 42 45 45 47
16 17 17 18 19 19 20 21 20 17 10 15 16 13 12 10 11 10 10 6 3 12 13 13 12 10 7 13 12 9 4 4 3 11 19 26 31 34 37 37 40 44 45
14 13 14 14 15 17 17 19 19 16 13 15 13 12 13 14 12 13 11 12 14 13 13 13 17 11 8 8 12 8 20 25 9 14 22 23 29 35 37 36 37 40 43
10 10 10 10 13 17 19 17 18 19 16 16 15 13 13 11 12 12 15 15 15 15 11 12 11 10 12 8 10 8 12 17 24 12 15 13 24 29 38 38 38 40 41
7 8 9 12 14 16 17 19 18 18 19 19 18 19 19 18 20 18 17 18 18 17 16 12 10 11 11 12 12 11 9 4 8 8 7 12 15 27 33 38 39 41 42

GFSSE_925_spd_117.txt.gz
Wind_Speed
13 12 2 3 2 1 1 1 2 3 3 4 5 5 5 4 5 6 6 7 7 6 6 6 7 8 6 8 9 10 11 11 10 9 8 8 10 9 10 10 13 12 10
9 9 2 1 2 1 2 1 2 3 3 3 2 3 3 2 3 4 5 5 5 5 6 7 8 8 7 8 10 9 8 9 9 8 8 8 9 11 11 11 9 8 8
9 9 5 2 3 2 3 3 2 3 4 5 6 3 4 3 0 1 3 4 5 4 6 6 8 8 8 7 10 9 7 8 8 8 6 5 4 4 4 5 5 5 5
11 9 9 3 2 2 3 4 4 3 4 5 5 4 5 4 2 2 2 4 5 5 7 5 9 10 8 7 8 8 7 8 7 6 5 5 3 2 3 3 4 4 4
8 10 10 3 1 2 2 3 3 4 5 5 5 5 5 5 6 4 4 6 7 7 7 10 10 9 6 5 6 9 8 8 7 5 5 4 2 3 3 4 5 5 5
11 11 10 5 4 2 3 3 4 5 5 7 7 7 6 6 6 6 7 6 7 8 6 10 11 10 8 7 6 9 8 8 8 6 5 6 3 3 3 4 5 4 5
12 13 12 9 7 4 5 6 6 7 8 8 9 8 8 8 8 8 9 7 7 9 8 8 10 11 9 9 8 9 10 10 9 7 7 8 6 5 4 4 4 5 5
11 12 13 11 9 6 3 4 7 9 10 11 11 11 11 11 11 10 10 10 10 10 12 12 13 14 12 11 11 11 11 12 11 9 8 10 8 7 6 6 6 6 6
10 11 12 13 12 10 7 6 7 8 10 12 12 12 13 13 13 12 13 13 13 13 13 15 15 16 15 13 12 12 12 12 14 12 10 12 10 9 9 8 8 8 8
12 13 13 13 13 12 12 11 10 9 11 12 14 15 15 16 16 16 15 15 15 15 15 15 17 18 17 15 14 14 14 14 15 15 14 11 13 12 11 11 10 10 10
14 15 14 15 15 14 13 12 12 13 11 11 14 15 16 18 18 18 18 18 18 18 18 18 18 19 19 17 16 16 16 17 16 16 17 15 14 16 14 14 12 12 12
15 15 16 15 14 13 12 14 14 15 14 14 13 14 16 18 19 19 19 19 20 20 21 20 20 20 20 21 19 18 19 19 19 19 19 19 17 18 17 17 16 14 15
13 14 15 16 14 14 13 14 15 15 16 16 17 15 15 17 18 19 21 21 21 22 22 21 22 23 22 23 22 21 21 21 22 21 21 20 21 19 19 21 20 18 17
14 16 16 17 18 16 15 15 16 16 16 17 18 18 17 17 18 19 21 22 21 20 22 23 24 24 24 24 24 23 23 23 24 23 23 22 22 24 21 22 24 21 20
17 18 20 19 19 20 19 18 17 18 18 18 18 19 19 20 22 22 23 23 24 23 23 23 24 26 26 24 25 26 25 26 26 26 26 24 24 25 26 25 26 25 23
17 21 21 19 19 20 22 22 21 19 19 18 18 18 20 22 22 23 25 26 26 27 27 24 24 26 25 24 23 26 27 28 27 26 27 25 25 25 26 29 29 30 27
17 19 20 19 20 21 24 24 23 22 21 20 20 20 21 21 23 24 24 28 28 28 27 27 25 21 21 21 20 22 22 23 24 24 26 25 24 25 27 28 31 31 33
16 18 17 17 19 23 23 23 22 22 21 20 20 20 20 21 22 25 25 26 28 26 25 26 24 20 18 18 16 16 18 19 21 21 21 23 26 27 28 27 32 36 34
15 16 17 17 18 23 23 23 21 20 19 20 19 16 16 17 19 19 22 24 24 24 22 18 18 17 17 17 16 16 18 19 19 21 23 25 26 28 31 33 32 35 38
12 13 13 14 18 19 18 19 17 20 21 20 17 16 14 12 12 14 14 15 17 19 20 19 17 17 16 15 14 15 19 21 23 26 28 29 31 32 32 33 35 36 38
11 12 12 15 18 17 21 21 17 19 18 19 17 17 14 14 15 14 12 9 4 7 5 6 8 11 9 6 7 10 16 20 26 28 30 29 29 30 32 33 35 38 41
11 12 14 14 16 17 16 15 13 17 11 13 15 16 15 15 15 13 9 10 8 5 7 13 6 8 4 4 3 6 3 5 12 16 20 25 28 29 32 33 34 36 39
11 12 12 13 14 16 14 15 14 13 14 15 16 15 16 15 15 14 14 12 9 10 11 12 11 11 8 13 12 4 2 3 8 15 15 20 24 30 34 34 35 36 37
10 10 11 12 14 15 14 14 15 12 11 11 12 12 15 17 17 18 18 15 13 13 12 10 10 11 10 8 9 9 12 10 4 7 8 19 22 28 33 37 36 38 39
6 9 10 10 12 14 16 16 16 17 14 15 16 18 19 22 20 18 19 19 19 18 14 14 14 14 13 8 9 9 10 13 4 4 6 7 21 23 24 25 33 38 40
4 6 7 9 10 11 13 15 15 15 15 17 18 19 19 19 19 19 18 17 16 16 16 16 16 14 13 7 10 9 7 5 8 5 5 11 8 13 32 25 32 35 39